<?xml version="1.0" encoding="UTF-8" standalone="no" ?>
<gpx xmlns="http://www.topografix.com/GPX/1/1" xmlns:xsi="http://www.w3.org/2001/XMLSchema-instance" xsi:schemaLocation="http://www.topografix.com/GPX/1/1 http://www.topografix.com/GPX/1/1/gpx.xsd" version="1.1" creator="VisuGPX - https://www.visugpx.com">
  <metadata>
    <name>Val Maira : Saretto - Chialvetta</name>
    <desc><![CDATA[Sarreto à Chialvetta via Col d'Enchiausa, avec les randonneurs de l'ASVEL Ski Montagne (69), CAF La Mure (38), CAF Lyon (69), ASVF Villefontaine (38)]]></desc>
  </metadata>
  <trk>
    <name><![CDATA[Chiappera - Chialvetta]]></name>
    <trkseg>
      <trkpt lat="44.47821" lon="6.93599">
        <ele>1544.232</ele>
        <time>2016-03-13T07:01:18Z</time>
      </trkpt>
      <trkpt lat="44.47816" lon="6.93598">
        <ele>1544.951</ele>
        <time>2016-03-13T07:01:57Z</time>
      </trkpt>
      <trkpt lat="44.47808" lon="6.93597">
        <ele>1546.61</ele>
        <time>2016-03-13T07:02:12Z</time>
      </trkpt>
      <trkpt lat="44.47804" lon="6.93595">
        <ele>1546.772</ele>
        <time>2016-03-13T07:02:25Z</time>
      </trkpt>
      <trkpt lat="44.47802" lon="6.93594">
        <ele>1548.656</ele>
        <time>2016-03-13T07:03:03Z</time>
      </trkpt>
      <trkpt lat="44.47797" lon="6.93593">
        <ele>1549.636</ele>
        <time>2016-03-13T07:03:41Z</time>
      </trkpt>
      <trkpt lat="44.47793" lon="6.93591">
        <ele>1550.397</ele>
        <time>2016-03-13T07:03:55Z</time>
      </trkpt>
      <trkpt lat="44.47782" lon="6.93586">
        <ele>1552.249</ele>
        <time>2016-03-13T07:04:15Z</time>
      </trkpt>
      <trkpt lat="44.47779" lon="6.93585">
        <ele>1552.373</ele>
        <time>2016-03-13T07:04:41Z</time>
      </trkpt>
      <trkpt lat="44.47773" lon="6.93583">
        <ele>1553.583</ele>
        <time>2016-03-13T07:04:55Z</time>
      </trkpt>
      <trkpt lat="44.47769" lon="6.93581">
        <ele>1554.273</ele>
        <time>2016-03-13T07:05:16Z</time>
      </trkpt>
      <trkpt lat="44.47764" lon="6.93581">
        <ele>1554.823</ele>
        <time>2016-03-13T07:06:05Z</time>
      </trkpt>
      <trkpt lat="44.47762" lon="6.93581">
        <ele>1555.396</ele>
        <time>2016-03-13T07:06:28Z</time>
      </trkpt>
      <trkpt lat="44.47758" lon="6.93582">
        <ele>1554.712</ele>
        <time>2016-03-13T07:07:33Z</time>
      </trkpt>
      <trkpt lat="44.47755" lon="6.9358">
        <ele>1555.177</ele>
        <time>2016-03-13T07:07:54Z</time>
      </trkpt>
      <trkpt lat="44.4775" lon="6.93578">
        <ele>1556.075</ele>
        <time>2016-03-13T07:09:30Z</time>
      </trkpt>
      <trkpt lat="44.47741" lon="6.93576">
        <ele>1557.782</ele>
        <time>2016-03-13T07:09:47Z</time>
      </trkpt>
      <trkpt lat="44.47732" lon="6.93574">
        <ele>1558.762</ele>
        <time>2016-03-13T07:10:03Z</time>
      </trkpt>
      <trkpt lat="44.47718" lon="6.93573">
        <ele>1560.298</ele>
        <time>2016-03-13T07:10:19Z</time>
      </trkpt>
      <trkpt lat="44.47709" lon="6.93571">
        <ele>1562.404</ele>
        <time>2016-03-13T07:10:35Z</time>
      </trkpt>
      <trkpt lat="44.47695" lon="6.93573">
        <ele>1564.121</ele>
        <time>2016-03-13T07:10:57Z</time>
      </trkpt>
      <trkpt lat="44.4769" lon="6.93584">
        <ele>1566.343</ele>
        <time>2016-03-13T07:11:22Z</time>
      </trkpt>
      <trkpt lat="44.47687" lon="6.93588">
        <ele>1567.059</ele>
        <time>2016-03-13T07:11:59Z</time>
      </trkpt>
      <trkpt lat="44.47685" lon="6.93592">
        <ele>1567.794</ele>
        <time>2016-03-13T07:12:03Z</time>
      </trkpt>
      <trkpt lat="44.47674" lon="6.93597">
        <ele>1568.851</ele>
        <time>2016-03-13T07:12:16Z</time>
      </trkpt>
      <trkpt lat="44.47661" lon="6.93605">
        <ele>1570.6</ele>
        <time>2016-03-13T07:12:34Z</time>
      </trkpt>
      <trkpt lat="44.47652" lon="6.93619">
        <ele>1572.838</ele>
        <time>2016-03-13T07:12:55Z</time>
      </trkpt>
      <trkpt lat="44.47639" lon="6.93631">
        <ele>1574.709</ele>
        <time>2016-03-13T07:13:13Z</time>
      </trkpt>
      <trkpt lat="44.47629" lon="6.93646">
        <ele>1577.301</ele>
        <time>2016-03-13T07:13:34Z</time>
      </trkpt>
      <trkpt lat="44.47617" lon="6.93658">
        <ele>1580.036</ele>
        <time>2016-03-13T07:13:53Z</time>
      </trkpt>
      <trkpt lat="44.47606" lon="6.93674">
        <ele>1583.133</ele>
        <time>2016-03-13T07:14:15Z</time>
      </trkpt>
      <trkpt lat="44.47602" lon="6.93679">
        <ele>1584.076</ele>
        <time>2016-03-13T07:14:22Z</time>
      </trkpt>
      <trkpt lat="44.4759" lon="6.93699">
        <ele>1586.422</ele>
        <time>2016-03-13T07:14:45Z</time>
      </trkpt>
      <trkpt lat="44.47579" lon="6.9372">
        <ele>1588.618</ele>
        <time>2016-03-13T07:15:05Z</time>
      </trkpt>
      <trkpt lat="44.47573" lon="6.93728">
        <ele>1589.363</ele>
        <time>2016-03-13T07:15:13Z</time>
      </trkpt>
      <trkpt lat="44.47563" lon="6.93742">
        <ele>1591.2</ele>
        <time>2016-03-13T07:15:30Z</time>
      </trkpt>
      <trkpt lat="44.47551" lon="6.93768">
        <ele>1593.903</ele>
        <time>2016-03-13T07:15:57Z</time>
      </trkpt>
      <trkpt lat="44.47539" lon="6.93794">
        <ele>1596.31</ele>
        <time>2016-03-13T07:16:21Z</time>
      </trkpt>
      <trkpt lat="44.47527" lon="6.93802">
        <ele>1599.052</ele>
        <time>2016-03-13T07:16:38Z</time>
      </trkpt>
      <trkpt lat="44.47526" lon="6.93809">
        <ele>1598.992</ele>
        <time>2016-03-13T07:18:44Z</time>
      </trkpt>
      <trkpt lat="44.47516" lon="6.9382">
        <ele>1601.682</ele>
        <time>2016-03-13T07:19:10Z</time>
      </trkpt>
      <trkpt lat="44.47504" lon="6.93823">
        <ele>1603.37</ele>
        <time>2016-03-13T07:19:27Z</time>
      </trkpt>
      <trkpt lat="44.4749" lon="6.93836">
        <ele>1604.881</ele>
        <time>2016-03-13T07:19:48Z</time>
      </trkpt>
      <trkpt lat="44.47476" lon="6.93857">
        <ele>1606.943</ele>
        <time>2016-03-13T07:20:15Z</time>
      </trkpt>
      <trkpt lat="44.47462" lon="6.93874">
        <ele>1609.413</ele>
        <time>2016-03-13T07:20:38Z</time>
      </trkpt>
      <trkpt lat="44.47455" lon="6.93888">
        <ele>1610.71</ele>
        <time>2016-03-13T07:20:55Z</time>
      </trkpt>
      <trkpt lat="44.47453" lon="6.93893">
        <ele>1611.733</ele>
        <time>2016-03-13T07:21:01Z</time>
      </trkpt>
      <trkpt lat="44.47448" lon="6.93897">
        <ele>1612.343</ele>
        <time>2016-03-13T07:21:18Z</time>
      </trkpt>
      <trkpt lat="44.47443" lon="6.93907">
        <ele>1613.403</ele>
        <time>2016-03-13T07:21:41Z</time>
      </trkpt>
      <trkpt lat="44.47434" lon="6.93925">
        <ele>1615.089</ele>
        <time>2016-03-13T07:21:59Z</time>
      </trkpt>
      <trkpt lat="44.47431" lon="6.93931">
        <ele>1615.794</ele>
        <time>2016-03-13T07:22:06Z</time>
      </trkpt>
      <trkpt lat="44.47426" lon="6.93942">
        <ele>1617.078</ele>
        <time>2016-03-13T07:22:20Z</time>
      </trkpt>
      <trkpt lat="44.47431" lon="6.93956">
        <ele>1618.495</ele>
        <time>2016-03-13T07:22:31Z</time>
      </trkpt>
      <trkpt lat="44.4742" lon="6.93968">
        <ele>1619.726</ele>
        <time>2016-03-13T07:22:46Z</time>
      </trkpt>
      <trkpt lat="44.47413" lon="6.93983">
        <ele>1621.75</ele>
        <time>2016-03-13T07:23:01Z</time>
      </trkpt>
      <trkpt lat="44.47402" lon="6.94001">
        <ele>1623.914</ele>
        <time>2016-03-13T07:23:23Z</time>
      </trkpt>
      <trkpt lat="44.474" lon="6.94005">
        <ele>1623.967</ele>
        <time>2016-03-13T07:23:28Z</time>
      </trkpt>
      <trkpt lat="44.47393" lon="6.94017">
        <ele>1625.716</ele>
        <time>2016-03-13T07:23:43Z</time>
      </trkpt>
      <trkpt lat="44.47387" lon="6.94025">
        <ele>1626.868</ele>
        <time>2016-03-13T07:23:54Z</time>
      </trkpt>
      <trkpt lat="44.47377" lon="6.94034">
        <ele>1627.642</ele>
        <time>2016-03-13T07:24:07Z</time>
      </trkpt>
      <trkpt lat="44.47371" lon="6.94049">
        <ele>1628.961</ele>
        <time>2016-03-13T07:24:21Z</time>
      </trkpt>
      <trkpt lat="44.47369" lon="6.94055">
        <ele>1629.838</ele>
        <time>2016-03-13T07:24:28Z</time>
      </trkpt>
      <trkpt lat="44.47367" lon="6.94058">
        <ele>1630.145</ele>
        <time>2016-03-13T07:26:28Z</time>
      </trkpt>
      <trkpt lat="44.47367" lon="6.94063">
        <ele>1628.979</ele>
        <time>2016-03-13T07:26:32Z</time>
      </trkpt>
      <trkpt lat="44.47359" lon="6.94066">
        <ele>1631.812</ele>
        <time>2016-03-13T07:27:00Z</time>
      </trkpt>
      <trkpt lat="44.47347" lon="6.94069">
        <ele>1632.533</ele>
        <time>2016-03-13T07:27:28Z</time>
      </trkpt>
      <trkpt lat="44.47337" lon="6.94076">
        <ele>1634.217</ele>
        <time>2016-03-13T07:27:49Z</time>
      </trkpt>
      <trkpt lat="44.47331" lon="6.94078">
        <ele>1634.75</ele>
        <time>2016-03-13T07:28:22Z</time>
      </trkpt>
      <trkpt lat="44.4733" lon="6.94073">
        <ele>1634.877</ele>
        <time>2016-03-13T07:28:27Z</time>
      </trkpt>
      <trkpt lat="44.47323" lon="6.9406">
        <ele>1635.852</ele>
        <time>2016-03-13T07:28:42Z</time>
      </trkpt>
      <trkpt lat="44.47324" lon="6.94051">
        <ele>1637.046</ele>
        <time>2016-03-13T07:30:54Z</time>
      </trkpt>
      <trkpt lat="44.47325" lon="6.94039">
        <ele>1637.879</ele>
        <time>2016-03-13T07:31:08Z</time>
      </trkpt>
      <trkpt lat="44.47327" lon="6.9402">
        <ele>1639.131</ele>
        <time>2016-03-13T07:31:30Z</time>
      </trkpt>
      <trkpt lat="44.47332" lon="6.93989">
        <ele>1640.928</ele>
        <time>2016-03-13T07:31:58Z</time>
      </trkpt>
      <trkpt lat="44.47332" lon="6.93985">
        <ele>1640.931</ele>
        <time>2016-03-13T07:32:01Z</time>
      </trkpt>
      <trkpt lat="44.47337" lon="6.93971">
        <ele>1641.602</ele>
        <time>2016-03-13T07:32:14Z</time>
      </trkpt>
      <trkpt lat="44.47342" lon="6.9396">
        <ele>1641.293</ele>
        <time>2016-03-13T07:32:24Z</time>
      </trkpt>
      <trkpt lat="44.47337" lon="6.93952">
        <ele>1642.199</ele>
        <time>2016-03-13T07:32:28Z</time>
      </trkpt>
      <trkpt lat="44.47339" lon="6.93949">
        <ele>1642.162</ele>
        <time>2016-03-13T07:32:31Z</time>
      </trkpt>
      <trkpt lat="44.47346" lon="6.93927">
        <ele>1642.032</ele>
        <time>2016-03-13T07:32:51Z</time>
      </trkpt>
      <trkpt lat="44.47341" lon="6.9391">
        <ele>1642.63</ele>
        <time>2016-03-13T07:33:09Z</time>
      </trkpt>
      <trkpt lat="44.47344" lon="6.93907">
        <ele>1642.759</ele>
        <time>2016-03-13T07:33:26Z</time>
      </trkpt>
      <trkpt lat="44.47356" lon="6.93904">
        <ele>1642.981</ele>
        <time>2016-03-13T07:34:47Z</time>
      </trkpt>
      <trkpt lat="44.47347" lon="6.9388">
        <ele>1643.116</ele>
        <time>2016-03-13T07:35:07Z</time>
      </trkpt>
      <trkpt lat="44.47343" lon="6.93868">
        <ele>1643.924</ele>
        <time>2016-03-13T07:35:16Z</time>
      </trkpt>
      <trkpt lat="44.47345" lon="6.93856">
        <ele>1644.588</ele>
        <time>2016-03-13T07:35:34Z</time>
      </trkpt>
      <trkpt lat="44.47349" lon="6.9384">
        <ele>1645.185</ele>
        <time>2016-03-13T07:36:08Z</time>
      </trkpt>
      <trkpt lat="44.47352" lon="6.93803">
        <ele>1645.932</ele>
        <time>2016-03-13T07:36:33Z</time>
      </trkpt>
      <trkpt lat="44.47349" lon="6.9378">
        <ele>1647.365</ele>
        <time>2016-03-13T07:36:52Z</time>
      </trkpt>
      <trkpt lat="44.47344" lon="6.93755">
        <ele>1648.136</ele>
        <time>2016-03-13T07:37:15Z</time>
      </trkpt>
      <trkpt lat="44.4734" lon="6.93733">
        <ele>1650.549</ele>
        <time>2016-03-13T07:37:41Z</time>
      </trkpt>
      <trkpt lat="44.47336" lon="6.93717">
        <ele>1652.644</ele>
        <time>2016-03-13T07:38:02Z</time>
      </trkpt>
      <trkpt lat="44.47333" lon="6.93698">
        <ele>1654.036</ele>
        <time>2016-03-13T07:38:23Z</time>
      </trkpt>
      <trkpt lat="44.47336" lon="6.93681">
        <ele>1656.877</ele>
        <time>2016-03-13T07:39:28Z</time>
      </trkpt>
      <trkpt lat="44.47333" lon="6.93662">
        <ele>1659.863</ele>
        <time>2016-03-13T07:39:49Z</time>
      </trkpt>
      <trkpt lat="44.4733" lon="6.93638">
        <ele>1662.397</ele>
        <time>2016-03-13T07:40:13Z</time>
      </trkpt>
      <trkpt lat="44.47321" lon="6.93617">
        <ele>1663.361</ele>
        <time>2016-03-13T07:40:38Z</time>
      </trkpt>
      <trkpt lat="44.47317" lon="6.93607">
        <ele>1664.939</ele>
        <time>2016-03-13T07:40:52Z</time>
      </trkpt>
      <trkpt lat="44.4731" lon="6.9359">
        <ele>1665.853</ele>
        <time>2016-03-13T07:41:12Z</time>
      </trkpt>
      <trkpt lat="44.4731" lon="6.93568">
        <ele>1667.679</ele>
        <time>2016-03-13T07:41:33Z</time>
      </trkpt>
      <trkpt lat="44.4731" lon="6.93559">
        <ele>1669.484</ele>
        <time>2016-03-13T07:41:46Z</time>
      </trkpt>
      <trkpt lat="44.47318" lon="6.93547">
        <ele>1672.604</ele>
        <time>2016-03-13T07:42:07Z</time>
      </trkpt>
      <trkpt lat="44.47323" lon="6.93536">
        <ele>1675.046</ele>
        <time>2016-03-13T07:42:25Z</time>
      </trkpt>
      <trkpt lat="44.47332" lon="6.93542">
        <ele>1677.339</ele>
        <time>2016-03-13T07:42:42Z</time>
      </trkpt>
      <trkpt lat="44.47342" lon="6.93536">
        <ele>1677.72</ele>
        <time>2016-03-13T07:42:56Z</time>
      </trkpt>
      <trkpt lat="44.47349" lon="6.93529">
        <ele>1680.748</ele>
        <time>2016-03-13T07:43:14Z</time>
      </trkpt>
      <trkpt lat="44.47354" lon="6.93519">
        <ele>1682.206</ele>
        <time>2016-03-13T07:43:30Z</time>
      </trkpt>
      <trkpt lat="44.47365" lon="6.93518">
        <ele>1684.402</ele>
        <time>2016-03-13T07:43:46Z</time>
      </trkpt>
      <trkpt lat="44.47369" lon="6.93509">
        <ele>1686.17</ele>
        <time>2016-03-13T07:44:01Z</time>
      </trkpt>
      <trkpt lat="44.47374" lon="6.93498">
        <ele>1688.971</ele>
        <time>2016-03-13T07:44:19Z</time>
      </trkpt>
      <trkpt lat="44.4738" lon="6.93484">
        <ele>1691.19</ele>
        <time>2016-03-13T07:44:39Z</time>
      </trkpt>
      <trkpt lat="44.47388" lon="6.93475">
        <ele>1693.32</ele>
        <time>2016-03-13T07:45:00Z</time>
      </trkpt>
      <trkpt lat="44.47393" lon="6.93465">
        <ele>1695.473</ele>
        <time>2016-03-13T07:45:17Z</time>
      </trkpt>
      <trkpt lat="44.47396" lon="6.93457">
        <ele>1698.042</ele>
        <time>2016-03-13T07:45:34Z</time>
      </trkpt>
      <trkpt lat="44.47405" lon="6.93452">
        <ele>1700.404</ele>
        <time>2016-03-13T07:45:58Z</time>
      </trkpt>
      <trkpt lat="44.47411" lon="6.93443">
        <ele>1702.885</ele>
        <time>2016-03-13T07:46:17Z</time>
      </trkpt>
      <trkpt lat="44.47414" lon="6.93436">
        <ele>1705.147</ele>
        <time>2016-03-13T07:46:32Z</time>
      </trkpt>
      <trkpt lat="44.47419" lon="6.93429">
        <ele>1707.229</ele>
        <time>2016-03-13T07:46:46Z</time>
      </trkpt>
      <trkpt lat="44.47428" lon="6.93436">
        <ele>1708.907</ele>
        <time>2016-03-13T07:47:05Z</time>
      </trkpt>
      <trkpt lat="44.47435" lon="6.93435">
        <ele>1711.058</ele>
        <time>2016-03-13T07:47:23Z</time>
      </trkpt>
      <trkpt lat="44.47434" lon="6.93423">
        <ele>1712.728</ele>
        <time>2016-03-13T07:47:40Z</time>
      </trkpt>
      <trkpt lat="44.47436" lon="6.93409">
        <ele>1714.266</ele>
        <time>2016-03-13T07:47:57Z</time>
      </trkpt>
      <trkpt lat="44.47438" lon="6.93398">
        <ele>1715.079</ele>
        <time>2016-03-13T07:48:10Z</time>
      </trkpt>
      <trkpt lat="44.47439" lon="6.93388">
        <ele>1717.286</ele>
        <time>2016-03-13T07:48:27Z</time>
      </trkpt>
      <trkpt lat="44.47442" lon="6.93378">
        <ele>1719.331</ele>
        <time>2016-03-13T07:48:44Z</time>
      </trkpt>
      <trkpt lat="44.47446" lon="6.93367">
        <ele>1720.694</ele>
        <time>2016-03-13T07:49:01Z</time>
      </trkpt>
      <trkpt lat="44.47449" lon="6.93356">
        <ele>1722.787</ele>
        <time>2016-03-13T07:49:18Z</time>
      </trkpt>
      <trkpt lat="44.47451" lon="6.93348">
        <ele>1725.083</ele>
        <time>2016-03-13T07:49:33Z</time>
      </trkpt>
      <trkpt lat="44.47452" lon="6.93335">
        <ele>1727.342</ele>
        <time>2016-03-13T07:49:52Z</time>
      </trkpt>
      <trkpt lat="44.47454" lon="6.93326">
        <ele>1729.311</ele>
        <time>2016-03-13T07:50:06Z</time>
      </trkpt>
      <trkpt lat="44.47455" lon="6.93317">
        <ele>1731.224</ele>
        <time>2016-03-13T07:50:20Z</time>
      </trkpt>
      <trkpt lat="44.47454" lon="6.93306">
        <ele>1733.89</ele>
        <time>2016-03-13T07:50:41Z</time>
      </trkpt>
      <trkpt lat="44.47454" lon="6.93298">
        <ele>1736.852</ele>
        <time>2016-03-13T07:51:00Z</time>
      </trkpt>
      <trkpt lat="44.47456" lon="6.93286">
        <ele>1738.617</ele>
        <time>2016-03-13T07:51:14Z</time>
      </trkpt>
      <trkpt lat="44.47462" lon="6.93277">
        <ele>1740.599</ele>
        <time>2016-03-13T07:51:31Z</time>
      </trkpt>
      <trkpt lat="44.47465" lon="6.93268">
        <ele>1743.717</ele>
        <time>2016-03-13T07:51:50Z</time>
      </trkpt>
      <trkpt lat="44.47462" lon="6.93267">
        <ele>1745.839</ele>
        <time>2016-03-13T07:52:06Z</time>
      </trkpt>
      <trkpt lat="44.47459" lon="6.93263">
        <ele>1746.946</ele>
        <time>2016-03-13T07:52:20Z</time>
      </trkpt>
      <trkpt lat="44.47456" lon="6.93258">
        <ele>1748.999</ele>
        <time>2016-03-13T07:52:35Z</time>
      </trkpt>
      <trkpt lat="44.4746" lon="6.93257">
        <ele>1749.527</ele>
        <time>2016-03-13T07:55:22Z</time>
      </trkpt>
      <trkpt lat="44.47463" lon="6.93247">
        <ele>1750</ele>
        <time>2016-03-13T07:55:37Z</time>
      </trkpt>
      <trkpt lat="44.47467" lon="6.93228">
        <ele>1751.356</ele>
        <time>2016-03-13T07:55:55Z</time>
      </trkpt>
      <trkpt lat="44.47472" lon="6.93207">
        <ele>1752.994</ele>
        <time>2016-03-13T07:56:17Z</time>
      </trkpt>
      <trkpt lat="44.47478" lon="6.93198">
        <ele>1754.453</ele>
        <time>2016-03-13T07:56:34Z</time>
      </trkpt>
      <trkpt lat="44.47485" lon="6.93186">
        <ele>1755.533</ele>
        <time>2016-03-13T07:56:53Z</time>
      </trkpt>
      <trkpt lat="44.4749" lon="6.93172">
        <ele>1757.272</ele>
        <time>2016-03-13T07:57:12Z</time>
      </trkpt>
      <trkpt lat="44.47496" lon="6.93157">
        <ele>1758.955</ele>
        <time>2016-03-13T07:57:30Z</time>
      </trkpt>
      <trkpt lat="44.47501" lon="6.93143">
        <ele>1760.197</ele>
        <time>2016-03-13T07:57:47Z</time>
      </trkpt>
      <trkpt lat="44.47512" lon="6.93136">
        <ele>1761.933</ele>
        <time>2016-03-13T07:58:03Z</time>
      </trkpt>
      <trkpt lat="44.47513" lon="6.93132">
        <ele>1762.107</ele>
        <time>2016-03-13T07:58:09Z</time>
      </trkpt>
      <trkpt lat="44.47521" lon="6.93121">
        <ele>1763.939</ele>
        <time>2016-03-13T07:58:25Z</time>
      </trkpt>
      <trkpt lat="44.47527" lon="6.93112">
        <ele>1764.922</ele>
        <time>2016-03-13T07:58:40Z</time>
      </trkpt>
      <trkpt lat="44.47529" lon="6.93102">
        <ele>1766.169</ele>
        <time>2016-03-13T07:58:53Z</time>
      </trkpt>
      <trkpt lat="44.4753" lon="6.931">
        <ele>1766.655</ele>
        <time>2016-03-13T07:59:58Z</time>
      </trkpt>
      <trkpt lat="44.4753" lon="6.93084">
        <ele>1769.479</ele>
        <time>2016-03-13T08:00:19Z</time>
      </trkpt>
      <trkpt lat="44.47521" lon="6.93087">
        <ele>1772.027</ele>
        <time>2016-03-13T08:00:39Z</time>
      </trkpt>
      <trkpt lat="44.47521" lon="6.93071">
        <ele>1775.224</ele>
        <time>2016-03-13T08:00:57Z</time>
      </trkpt>
      <trkpt lat="44.47522" lon="6.93057">
        <ele>1778.669</ele>
        <time>2016-03-13T08:01:20Z</time>
      </trkpt>
      <trkpt lat="44.4752" lon="6.93055">
        <ele>1779.288</ele>
        <time>2016-03-13T08:01:53Z</time>
      </trkpt>
      <trkpt lat="44.47512" lon="6.93057">
        <ele>1780.509</ele>
        <time>2016-03-13T08:02:38Z</time>
      </trkpt>
      <trkpt lat="44.47506" lon="6.93059">
        <ele>1782.881</ele>
        <time>2016-03-13T08:02:50Z</time>
      </trkpt>
      <trkpt lat="44.47503" lon="6.93057">
        <ele>1784.652</ele>
        <time>2016-03-13T08:03:05Z</time>
      </trkpt>
      <trkpt lat="44.47505" lon="6.93047">
        <ele>1785.595</ele>
        <time>2016-03-13T08:03:29Z</time>
      </trkpt>
      <trkpt lat="44.47516" lon="6.93023">
        <ele>1787.643</ele>
        <time>2016-03-13T08:03:57Z</time>
      </trkpt>
      <trkpt lat="44.4752" lon="6.93008">
        <ele>1789.595</ele>
        <time>2016-03-13T08:04:18Z</time>
      </trkpt>
      <trkpt lat="44.47515" lon="6.93012">
        <ele>1792.008</ele>
        <time>2016-03-13T08:04:36Z</time>
      </trkpt>
      <trkpt lat="44.4751" lon="6.93016">
        <ele>1794.254</ele>
        <time>2016-03-13T08:04:48Z</time>
      </trkpt>
      <trkpt lat="44.47506" lon="6.93022">
        <ele>1795.924</ele>
        <time>2016-03-13T08:05:00Z</time>
      </trkpt>
      <trkpt lat="44.475" lon="6.93022">
        <ele>1798.019</ele>
        <time>2016-03-13T08:05:16Z</time>
      </trkpt>
      <trkpt lat="44.47491" lon="6.93028">
        <ele>1800.363</ele>
        <time>2016-03-13T08:05:36Z</time>
      </trkpt>
      <trkpt lat="44.47488" lon="6.9303">
        <ele>1801.105</ele>
        <time>2016-03-13T08:05:41Z</time>
      </trkpt>
      <trkpt lat="44.47483" lon="6.93031">
        <ele>1802.997</ele>
        <time>2016-03-13T08:05:53Z</time>
      </trkpt>
      <trkpt lat="44.47483" lon="6.93027">
        <ele>1803.919</ele>
        <time>2016-03-13T08:06:11Z</time>
      </trkpt>
      <trkpt lat="44.47484" lon="6.93019">
        <ele>1805.653</ele>
        <time>2016-03-13T08:06:24Z</time>
      </trkpt>
      <trkpt lat="44.47485" lon="6.93006">
        <ele>1807.775</ele>
        <time>2016-03-13T08:06:41Z</time>
      </trkpt>
      <trkpt lat="44.47486" lon="6.93001">
        <ele>1808.668</ele>
        <time>2016-03-13T08:06:49Z</time>
      </trkpt>
      <trkpt lat="44.47489" lon="6.93">
        <ele>1809.064</ele>
        <time>2016-03-13T08:06:59Z</time>
      </trkpt>
      <trkpt lat="44.4749" lon="6.92989">
        <ele>1810.787</ele>
        <time>2016-03-13T08:07:14Z</time>
      </trkpt>
      <trkpt lat="44.47493" lon="6.92975">
        <ele>1812.673</ele>
        <time>2016-03-13T08:07:33Z</time>
      </trkpt>
      <trkpt lat="44.4749" lon="6.92979">
        <ele>1814.687</ele>
        <time>2016-03-13T08:08:01Z</time>
      </trkpt>
      <trkpt lat="44.47486" lon="6.92985">
        <ele>1816.883</ele>
        <time>2016-03-13T08:08:14Z</time>
      </trkpt>
      <trkpt lat="44.4748" lon="6.92987">
        <ele>1818.695</ele>
        <time>2016-03-13T08:08:27Z</time>
      </trkpt>
      <trkpt lat="44.47473" lon="6.9299">
        <ele>1820.814</ele>
        <time>2016-03-13T08:08:41Z</time>
      </trkpt>
      <trkpt lat="44.47473" lon="6.92978">
        <ele>1821.686</ele>
        <time>2016-03-13T08:08:58Z</time>
      </trkpt>
      <trkpt lat="44.47475" lon="6.92969">
        <ele>1823.24</ele>
        <time>2016-03-13T08:09:11Z</time>
      </trkpt>
      <trkpt lat="44.47476" lon="6.92961">
        <ele>1825.079</ele>
        <time>2016-03-13T08:09:23Z</time>
      </trkpt>
      <trkpt lat="44.47469" lon="6.92968">
        <ele>1827.114</ele>
        <time>2016-03-13T08:09:57Z</time>
      </trkpt>
      <trkpt lat="44.47462" lon="6.92971">
        <ele>1830.842</ele>
        <time>2016-03-13T08:10:13Z</time>
      </trkpt>
      <trkpt lat="44.47458" lon="6.92967">
        <ele>1832.192</ele>
        <time>2016-03-13T08:10:32Z</time>
      </trkpt>
      <trkpt lat="44.47462" lon="6.9295">
        <ele>1836.153</ele>
        <time>2016-03-13T08:11:14Z</time>
      </trkpt>
      <trkpt lat="44.47449" lon="6.92958">
        <ele>1839.319</ele>
        <time>2016-03-13T08:11:41Z</time>
      </trkpt>
      <trkpt lat="44.47448" lon="6.92954">
        <ele>1840.547</ele>
        <time>2016-03-13T08:11:54Z</time>
      </trkpt>
      <trkpt lat="44.47448" lon="6.92944">
        <ele>1842.336</ele>
        <time>2016-03-13T08:12:08Z</time>
      </trkpt>
      <trkpt lat="44.47451" lon="6.92936">
        <ele>1844.756</ele>
        <time>2016-03-13T08:12:25Z</time>
      </trkpt>
      <trkpt lat="44.47447" lon="6.92939">
        <ele>1845.121</ele>
        <time>2016-03-13T08:12:35Z</time>
      </trkpt>
      <trkpt lat="44.47441" lon="6.92942">
        <ele>1846.638</ele>
        <time>2016-03-13T08:12:48Z</time>
      </trkpt>
      <trkpt lat="44.47435" lon="6.92944">
        <ele>1848.923</ele>
        <time>2016-03-13T08:13:03Z</time>
      </trkpt>
      <trkpt lat="44.47434" lon="6.9293">
        <ele>1852.551</ele>
        <time>2016-03-13T08:13:43Z</time>
      </trkpt>
      <trkpt lat="44.47434" lon="6.92918">
        <ele>1854.774</ele>
        <time>2016-03-13T08:13:59Z</time>
      </trkpt>
      <trkpt lat="44.47428" lon="6.92923">
        <ele>1857.167</ele>
        <time>2016-03-13T08:14:40Z</time>
      </trkpt>
      <trkpt lat="44.47424" lon="6.92924">
        <ele>1858.082</ele>
        <time>2016-03-13T08:14:56Z</time>
      </trkpt>
      <trkpt lat="44.47426" lon="6.92919">
        <ele>1858.634</ele>
        <time>2016-03-13T08:15:10Z</time>
      </trkpt>
      <trkpt lat="44.4743" lon="6.92908">
        <ele>1860.766</ele>
        <time>2016-03-13T08:15:27Z</time>
      </trkpt>
      <trkpt lat="44.4743" lon="6.92906">
        <ele>1863.269</ele>
        <time>2016-03-13T08:16:06Z</time>
      </trkpt>
      <trkpt lat="44.47421" lon="6.9291">
        <ele>1865.663</ele>
        <time>2016-03-13T08:16:25Z</time>
      </trkpt>
      <trkpt lat="44.47413" lon="6.92914">
        <ele>1868.442</ele>
        <time>2016-03-13T08:16:49Z</time>
      </trkpt>
      <trkpt lat="44.47413" lon="6.92911">
        <ele>1868.358</ele>
        <time>2016-03-13T08:17:03Z</time>
      </trkpt>
      <trkpt lat="44.47416" lon="6.92902">
        <ele>1870.416</ele>
        <time>2016-03-13T08:17:23Z</time>
      </trkpt>
      <trkpt lat="44.47418" lon="6.92894">
        <ele>1872.242</ele>
        <time>2016-03-13T08:17:40Z</time>
      </trkpt>
      <trkpt lat="44.47417" lon="6.92897">
        <ele>1872.554</ele>
        <time>2016-03-13T08:17:54Z</time>
      </trkpt>
      <trkpt lat="44.47411" lon="6.92901">
        <ele>1874.477</ele>
        <time>2016-03-13T08:18:09Z</time>
      </trkpt>
      <trkpt lat="44.47407" lon="6.92903">
        <ele>1875.994</ele>
        <time>2016-03-13T08:18:22Z</time>
      </trkpt>
      <trkpt lat="44.47404" lon="6.92907">
        <ele>1877.006</ele>
        <time>2016-03-13T08:18:35Z</time>
      </trkpt>
      <trkpt lat="44.47405" lon="6.92898">
        <ele>1878.348</ele>
        <time>2016-03-13T08:19:05Z</time>
      </trkpt>
      <trkpt lat="44.47407" lon="6.9289">
        <ele>1879.471</ele>
        <time>2016-03-13T08:19:18Z</time>
      </trkpt>
      <trkpt lat="44.4741" lon="6.92885">
        <ele>1881.276</ele>
        <time>2016-03-13T08:19:30Z</time>
      </trkpt>
      <trkpt lat="44.4741" lon="6.92881">
        <ele>1882.824</ele>
        <time>2016-03-13T08:19:46Z</time>
      </trkpt>
      <trkpt lat="44.47402" lon="6.92882">
        <ele>1884.983</ele>
        <time>2016-03-13T08:20:04Z</time>
      </trkpt>
      <trkpt lat="44.47396" lon="6.92885">
        <ele>1885.258</ele>
        <time>2016-03-13T08:20:17Z</time>
      </trkpt>
      <trkpt lat="44.47399" lon="6.92875">
        <ele>1888.696</ele>
        <time>2016-03-13T08:20:37Z</time>
      </trkpt>
      <trkpt lat="44.47401" lon="6.9287">
        <ele>1890.44</ele>
        <time>2016-03-13T08:20:51Z</time>
      </trkpt>
      <trkpt lat="44.47397" lon="6.92872">
        <ele>1891.655</ele>
        <time>2016-03-13T08:21:02Z</time>
      </trkpt>
      <trkpt lat="44.47392" lon="6.9287">
        <ele>1892.622</ele>
        <time>2016-03-13T08:21:14Z</time>
      </trkpt>
      <trkpt lat="44.47382" lon="6.92871">
        <ele>1894.847</ele>
        <time>2016-03-13T08:21:33Z</time>
      </trkpt>
      <trkpt lat="44.47375" lon="6.92873">
        <ele>1896.525</ele>
        <time>2016-03-13T08:21:45Z</time>
      </trkpt>
      <trkpt lat="44.47365" lon="6.92878">
        <ele>1898.76</ele>
        <time>2016-03-13T08:22:14Z</time>
      </trkpt>
      <trkpt lat="44.47356" lon="6.92878">
        <ele>1898.977</ele>
        <time>2016-03-13T08:34:12Z</time>
      </trkpt>
      <trkpt lat="44.47349" lon="6.92877">
        <ele>1900.829</ele>
        <time>2016-03-13T08:34:26Z</time>
      </trkpt>
      <trkpt lat="44.47342" lon="6.92877">
        <ele>1901.902</ele>
        <time>2016-03-13T08:34:39Z</time>
      </trkpt>
      <trkpt lat="44.47337" lon="6.92876">
        <ele>1902.932</ele>
        <time>2016-03-13T08:34:51Z</time>
      </trkpt>
      <trkpt lat="44.47334" lon="6.92874">
        <ele>1904.01</ele>
        <time>2016-03-13T08:35:03Z</time>
      </trkpt>
      <trkpt lat="44.47337" lon="6.92863">
        <ele>1906.124</ele>
        <time>2016-03-13T08:35:22Z</time>
      </trkpt>
      <trkpt lat="44.4734" lon="6.92854">
        <ele>1907.916</ele>
        <time>2016-03-13T08:35:37Z</time>
      </trkpt>
      <trkpt lat="44.47343" lon="6.92847">
        <ele>1909.123</ele>
        <time>2016-03-13T08:35:50Z</time>
      </trkpt>
      <trkpt lat="44.47346" lon="6.92839">
        <ele>1910.151</ele>
        <time>2016-03-13T08:36:11Z</time>
      </trkpt>
      <trkpt lat="44.47347" lon="6.92831">
        <ele>1911.927</ele>
        <time>2016-03-13T08:36:36Z</time>
      </trkpt>
      <trkpt lat="44.47335" lon="6.92832">
        <ele>1914.675</ele>
        <time>2016-03-13T08:36:58Z</time>
      </trkpt>
      <trkpt lat="44.47322" lon="6.92834">
        <ele>1916.945</ele>
        <time>2016-03-13T08:37:26Z</time>
      </trkpt>
      <trkpt lat="44.47311" lon="6.92835">
        <ele>1920.11</ele>
        <time>2016-03-13T08:37:52Z</time>
      </trkpt>
      <trkpt lat="44.47304" lon="6.92835">
        <ele>1921.944</ele>
        <time>2016-03-13T08:38:09Z</time>
      </trkpt>
      <trkpt lat="44.47298" lon="6.92834">
        <ele>1923.556</ele>
        <time>2016-03-13T08:38:24Z</time>
      </trkpt>
      <trkpt lat="44.4729" lon="6.92835">
        <ele>1924.919</ele>
        <time>2016-03-13T08:38:39Z</time>
      </trkpt>
      <trkpt lat="44.47283" lon="6.92835">
        <ele>1926.476</ele>
        <time>2016-03-13T08:38:54Z</time>
      </trkpt>
      <trkpt lat="44.47275" lon="6.92836">
        <ele>1927.297</ele>
        <time>2016-03-13T08:39:09Z</time>
      </trkpt>
      <trkpt lat="44.47268" lon="6.92838">
        <ele>1928.093</ele>
        <time>2016-03-13T08:39:22Z</time>
      </trkpt>
      <trkpt lat="44.47261" lon="6.92838">
        <ele>1928.899</ele>
        <time>2016-03-13T08:39:35Z</time>
      </trkpt>
      <trkpt lat="44.47254" lon="6.92839">
        <ele>1929.889</ele>
        <time>2016-03-13T08:39:47Z</time>
      </trkpt>
      <trkpt lat="44.47246" lon="6.92841">
        <ele>1932.212</ele>
        <time>2016-03-13T08:40:05Z</time>
      </trkpt>
      <trkpt lat="44.47236" lon="6.9284">
        <ele>1933.871</ele>
        <time>2016-03-13T08:40:26Z</time>
      </trkpt>
      <trkpt lat="44.47225" lon="6.92838">
        <ele>1936.257</ele>
        <time>2016-03-13T08:40:53Z</time>
      </trkpt>
      <trkpt lat="44.47219" lon="6.92837">
        <ele>1937.401</ele>
        <time>2016-03-13T08:41:06Z</time>
      </trkpt>
      <trkpt lat="44.47213" lon="6.92837">
        <ele>1938.849</ele>
        <time>2016-03-13T08:41:20Z</time>
      </trkpt>
      <trkpt lat="44.47203" lon="6.92838">
        <ele>1940.937</ele>
        <time>2016-03-13T08:41:45Z</time>
      </trkpt>
      <trkpt lat="44.47191" lon="6.92836">
        <ele>1943.986</ele>
        <time>2016-03-13T08:42:12Z</time>
      </trkpt>
      <trkpt lat="44.47177" lon="6.92835">
        <ele>1946.808</ele>
        <time>2016-03-13T08:42:40Z</time>
      </trkpt>
      <trkpt lat="44.4717" lon="6.92838">
        <ele>1948.615</ele>
        <time>2016-03-13T08:42:56Z</time>
      </trkpt>
      <trkpt lat="44.47159" lon="6.92846">
        <ele>1951.657</ele>
        <time>2016-03-13T08:43:22Z</time>
      </trkpt>
      <trkpt lat="44.47151" lon="6.92851">
        <ele>1953.979</ele>
        <time>2016-03-13T08:43:47Z</time>
      </trkpt>
      <trkpt lat="44.47148" lon="6.92852">
        <ele>1954.31</ele>
        <time>2016-03-13T08:44:12Z</time>
      </trkpt>
      <trkpt lat="44.47143" lon="6.92854">
        <ele>1954.912</ele>
        <time>2016-03-13T08:44:19Z</time>
      </trkpt>
      <trkpt lat="44.47138" lon="6.92854">
        <ele>1955.427</ele>
        <time>2016-03-13T08:44:24Z</time>
      </trkpt>
      <trkpt lat="44.47127" lon="6.92853">
        <ele>1955.092</ele>
        <time>2016-03-13T08:44:42Z</time>
      </trkpt>
      <trkpt lat="44.47122" lon="6.92856">
        <ele>1954.984</ele>
        <time>2016-03-13T08:44:53Z</time>
      </trkpt>
      <trkpt lat="44.4712" lon="6.92858">
        <ele>1954.423</ele>
        <time>2016-03-13T08:45:08Z</time>
      </trkpt>
      <trkpt lat="44.47114" lon="6.92859">
        <ele>1952.291</ele>
        <time>2016-03-13T08:45:27Z</time>
      </trkpt>
      <trkpt lat="44.47111" lon="6.92861">
        <ele>1953.292</ele>
        <time>2016-03-13T08:45:41Z</time>
      </trkpt>
      <trkpt lat="44.47106" lon="6.92862">
        <ele>1952.996</ele>
        <time>2016-03-13T08:45:57Z</time>
      </trkpt>
      <trkpt lat="44.47099" lon="6.92864">
        <ele>1951.905</ele>
        <time>2016-03-13T08:46:04Z</time>
      </trkpt>
      <trkpt lat="44.47097" lon="6.92862">
        <ele>1951.126</ele>
        <time>2016-03-13T08:46:07Z</time>
      </trkpt>
      <trkpt lat="44.47084" lon="6.92866">
        <ele>1951.403</ele>
        <time>2016-03-13T08:46:20Z</time>
      </trkpt>
      <trkpt lat="44.47073" lon="6.92869">
        <ele>1950.534</ele>
        <time>2016-03-13T08:46:29Z</time>
      </trkpt>
      <trkpt lat="44.4706" lon="6.92871">
        <ele>1951.599</ele>
        <time>2016-03-13T08:46:44Z</time>
      </trkpt>
      <trkpt lat="44.47045" lon="6.92876">
        <ele>1952.196</ele>
        <time>2016-03-13T08:47:03Z</time>
      </trkpt>
      <trkpt lat="44.4703" lon="6.92888">
        <ele>1951.966</ele>
        <time>2016-03-13T08:47:22Z</time>
      </trkpt>
      <trkpt lat="44.47023" lon="6.92897">
        <ele>1952.328</ele>
        <time>2016-03-13T08:47:35Z</time>
      </trkpt>
      <trkpt lat="44.47004" lon="6.92892">
        <ele>1951.628</ele>
        <time>2016-03-13T08:48:10Z</time>
      </trkpt>
      <trkpt lat="44.46983" lon="6.92897">
        <ele>1952.296</ele>
        <time>2016-03-13T08:48:27Z</time>
      </trkpt>
      <trkpt lat="44.46969" lon="6.92901">
        <ele>1950.486</ele>
        <time>2016-03-13T08:48:59Z</time>
      </trkpt>
      <trkpt lat="44.46967" lon="6.92903">
        <ele>1949.696</ele>
        <time>2016-03-13T08:49:01Z</time>
      </trkpt>
      <trkpt lat="44.46966" lon="6.92907">
        <ele>1949.723</ele>
        <time>2016-03-13T08:49:03Z</time>
      </trkpt>
      <trkpt lat="44.46956" lon="6.9291">
        <ele>1948.787</ele>
        <time>2016-03-13T08:49:22Z</time>
      </trkpt>
      <trkpt lat="44.46946" lon="6.92912">
        <ele>1946.898</ele>
        <time>2016-03-13T08:49:40Z</time>
      </trkpt>
      <trkpt lat="44.46943" lon="6.92915">
        <ele>1946.203</ele>
        <time>2016-03-13T08:50:21Z</time>
      </trkpt>
      <trkpt lat="44.4694" lon="6.92916">
        <ele>1946.008</ele>
        <time>2016-03-13T08:50:25Z</time>
      </trkpt>
      <trkpt lat="44.46937" lon="6.92917">
        <ele>1944.734</ele>
        <time>2016-03-13T08:50:28Z</time>
      </trkpt>
      <trkpt lat="44.46933" lon="6.92924">
        <ele>1943.622</ele>
        <time>2016-03-13T08:51:15Z</time>
      </trkpt>
      <trkpt lat="44.4693" lon="6.92932">
        <ele>1943.437</ele>
        <time>2016-03-13T08:51:32Z</time>
      </trkpt>
      <trkpt lat="44.46928" lon="6.92931">
        <ele>1943.175</ele>
        <time>2016-03-13T08:51:54Z</time>
      </trkpt>
      <trkpt lat="44.46921" lon="6.92925">
        <ele>1941.539</ele>
        <time>2016-03-13T08:51:59Z</time>
      </trkpt>
      <trkpt lat="44.46917" lon="6.92923">
        <ele>1939.986</ele>
        <time>2016-03-13T08:52:03Z</time>
      </trkpt>
      <trkpt lat="44.46914" lon="6.92921">
        <ele>1939.624</ele>
        <time>2016-03-13T08:52:19Z</time>
      </trkpt>
      <trkpt lat="44.46906" lon="6.9292">
        <ele>1937.354</ele>
        <time>2016-03-13T08:52:55Z</time>
      </trkpt>
      <trkpt lat="44.46897" lon="6.92919">
        <ele>1935.486</ele>
        <time>2016-03-13T08:52:59Z</time>
      </trkpt>
      <trkpt lat="44.46889" lon="6.9292">
        <ele>1933.647</ele>
        <time>2016-03-13T08:53:02Z</time>
      </trkpt>
      <trkpt lat="44.46883" lon="6.92921">
        <ele>1932.011</ele>
        <time>2016-03-13T08:53:04Z</time>
      </trkpt>
      <trkpt lat="44.46876" lon="6.92917">
        <ele>1929.66</ele>
        <time>2016-03-13T08:53:14Z</time>
      </trkpt>
      <trkpt lat="44.46875" lon="6.92931">
        <ele>1927.303</ele>
        <time>2016-03-13T08:53:20Z</time>
      </trkpt>
      <trkpt lat="44.46871" lon="6.92938">
        <ele>1925.228</ele>
        <time>2016-03-13T08:53:23Z</time>
      </trkpt>
      <trkpt lat="44.4687" lon="6.92941">
        <ele>1924.618</ele>
        <time>2016-03-13T08:53:25Z</time>
      </trkpt>
      <trkpt lat="44.46856" lon="6.92944">
        <ele>1921.297</ele>
        <time>2016-03-13T08:53:40Z</time>
      </trkpt>
      <trkpt lat="44.46843" lon="6.92945">
        <ele>1918.218</ele>
        <time>2016-03-13T08:53:51Z</time>
      </trkpt>
      <trkpt lat="44.46822" lon="6.9294">
        <ele>1914.942</ele>
        <time>2016-03-13T08:54:03Z</time>
      </trkpt>
      <trkpt lat="44.46814" lon="6.92938">
        <ele>1912.915</ele>
        <time>2016-03-13T08:54:14Z</time>
      </trkpt>
      <trkpt lat="44.46807" lon="6.9294">
        <ele>1912.194</ele>
        <time>2016-03-13T08:54:29Z</time>
      </trkpt>
      <trkpt lat="44.46805" lon="6.92941">
        <ele>1912.783</ele>
        <time>2016-03-13T08:54:58Z</time>
      </trkpt>
      <trkpt lat="44.46794" lon="6.92946">
        <ele>1912.537</ele>
        <time>2016-03-13T08:55:13Z</time>
      </trkpt>
      <trkpt lat="44.46782" lon="6.92956">
        <ele>1912.437</ele>
        <time>2016-03-13T08:55:31Z</time>
      </trkpt>
      <trkpt lat="44.46774" lon="6.9296">
        <ele>1912.437</ele>
        <time>2016-03-13T08:55:42Z</time>
      </trkpt>
      <trkpt lat="44.4676" lon="6.92973">
        <ele>1912.511</ele>
        <time>2016-03-13T08:56:06Z</time>
      </trkpt>
      <trkpt lat="44.46752" lon="6.9298">
        <ele>1912.374</ele>
        <time>2016-03-13T08:56:21Z</time>
      </trkpt>
      <trkpt lat="44.46744" lon="6.92988">
        <ele>1914.704</ele>
        <time>2016-03-13T08:56:38Z</time>
      </trkpt>
      <trkpt lat="44.4674" lon="6.92994">
        <ele>1913.829</ele>
        <time>2016-03-13T08:57:12Z</time>
      </trkpt>
      <trkpt lat="44.46734" lon="6.93">
        <ele>1913.306</ele>
        <time>2016-03-13T08:57:29Z</time>
      </trkpt>
      <trkpt lat="44.4673" lon="6.93005">
        <ele>1913.533</ele>
        <time>2016-03-13T08:58:14Z</time>
      </trkpt>
      <trkpt lat="44.46721" lon="6.93013">
        <ele>1913.71</ele>
        <time>2016-03-13T08:59:18Z</time>
      </trkpt>
      <trkpt lat="44.46716" lon="6.93018">
        <ele>1915.423</ele>
        <time>2016-03-13T08:59:40Z</time>
      </trkpt>
      <trkpt lat="44.46705" lon="6.93025">
        <ele>1916.625</ele>
        <time>2016-03-13T08:59:58Z</time>
      </trkpt>
      <trkpt lat="44.46693" lon="6.93025">
        <ele>1921.64</ele>
        <time>2016-03-13T09:00:36Z</time>
      </trkpt>
      <trkpt lat="44.46694" lon="6.9303">
        <ele>1922.842</ele>
        <time>2016-03-13T09:00:53Z</time>
      </trkpt>
      <trkpt lat="44.4669" lon="6.93035">
        <ele>1925.342</ele>
        <time>2016-03-13T09:01:09Z</time>
      </trkpt>
      <trkpt lat="44.46686" lon="6.93043">
        <ele>1928.618</ele>
        <time>2016-03-13T09:01:30Z</time>
      </trkpt>
      <trkpt lat="44.46682" lon="6.93045">
        <ele>1929.308</ele>
        <time>2016-03-13T09:01:43Z</time>
      </trkpt>
      <trkpt lat="44.4668" lon="6.93051">
        <ele>1931.665</ele>
        <time>2016-03-13T09:02:08Z</time>
      </trkpt>
      <trkpt lat="44.46676" lon="6.93064">
        <ele>1933.56</ele>
        <time>2016-03-13T09:02:26Z</time>
      </trkpt>
      <trkpt lat="44.46671" lon="6.93077">
        <ele>1934.833</ele>
        <time>2016-03-13T09:02:50Z</time>
      </trkpt>
      <trkpt lat="44.46661" lon="6.93085">
        <ele>1937.875</ele>
        <time>2016-03-13T09:03:12Z</time>
      </trkpt>
      <trkpt lat="44.46654" lon="6.93094">
        <ele>1940.633</ele>
        <time>2016-03-13T09:03:32Z</time>
      </trkpt>
      <trkpt lat="44.46649" lon="6.93107">
        <ele>1943.175</ele>
        <time>2016-03-13T09:03:58Z</time>
      </trkpt>
      <trkpt lat="44.46646" lon="6.93113">
        <ele>1943.799</ele>
        <time>2016-03-13T09:04:33Z</time>
      </trkpt>
      <trkpt lat="44.46638" lon="6.93123">
        <ele>1946.827</ele>
        <time>2016-03-13T09:04:53Z</time>
      </trkpt>
      <trkpt lat="44.46632" lon="6.93141">
        <ele>1950.124</ele>
        <time>2016-03-13T09:05:17Z</time>
      </trkpt>
      <trkpt lat="44.46625" lon="6.93153">
        <ele>1952.405</ele>
        <time>2016-03-13T09:05:41Z</time>
      </trkpt>
      <trkpt lat="44.46619" lon="6.93162">
        <ele>1953.06</ele>
        <time>2016-03-13T09:05:57Z</time>
      </trkpt>
      <trkpt lat="44.46616" lon="6.93164">
        <ele>1953.184</ele>
        <time>2016-03-13T09:06:01Z</time>
      </trkpt>
      <trkpt lat="44.46607" lon="6.9316">
        <ele>1953.514</ele>
        <time>2016-03-13T09:06:19Z</time>
      </trkpt>
      <trkpt lat="44.46601" lon="6.93153">
        <ele>1954.297</ele>
        <time>2016-03-13T09:06:35Z</time>
      </trkpt>
      <trkpt lat="44.46596" lon="6.93144">
        <ele>1953.913</ele>
        <time>2016-03-13T09:06:50Z</time>
      </trkpt>
      <trkpt lat="44.4659" lon="6.93108">
        <ele>1956.611</ele>
        <time>2016-03-13T09:07:24Z</time>
      </trkpt>
      <trkpt lat="44.46583" lon="6.93082">
        <ele>1958.178</ele>
        <time>2016-03-13T09:07:52Z</time>
      </trkpt>
      <trkpt lat="44.46569" lon="6.93065">
        <ele>1959.166</ele>
        <time>2016-03-13T09:08:15Z</time>
      </trkpt>
      <trkpt lat="44.46562" lon="6.93058">
        <ele>1959.071</ele>
        <time>2016-03-13T09:08:25Z</time>
      </trkpt>
      <trkpt lat="44.46547" lon="6.93045">
        <ele>1957.705</ele>
        <time>2016-03-13T09:08:44Z</time>
      </trkpt>
      <trkpt lat="44.46532" lon="6.93041">
        <ele>1957.132</ele>
        <time>2016-03-13T09:09:01Z</time>
      </trkpt>
      <trkpt lat="44.4653" lon="6.93041">
        <ele>1956.796</ele>
        <time>2016-03-13T09:09:49Z</time>
      </trkpt>
      <trkpt lat="44.46521" lon="6.93038">
        <ele>1957.901</ele>
        <time>2016-03-13T09:10:02Z</time>
      </trkpt>
      <trkpt lat="44.46499" lon="6.93029">
        <ele>1959.481</ele>
        <time>2016-03-13T09:10:32Z</time>
      </trkpt>
      <trkpt lat="44.46487" lon="6.93017">
        <ele>1961.341</ele>
        <time>2016-03-13T09:10:54Z</time>
      </trkpt>
      <trkpt lat="44.46481" lon="6.93011">
        <ele>1962.567</ele>
        <time>2016-03-13T09:11:08Z</time>
      </trkpt>
      <trkpt lat="44.46467" lon="6.93011">
        <ele>1965.664</ele>
        <time>2016-03-13T09:11:34Z</time>
      </trkpt>
      <trkpt lat="44.46458" lon="6.93004">
        <ele>1968.417</ele>
        <time>2016-03-13T09:11:56Z</time>
      </trkpt>
      <trkpt lat="44.46445" lon="6.93002">
        <ele>1969.26</ele>
        <time>2016-03-13T09:12:16Z</time>
      </trkpt>
      <trkpt lat="44.46432" lon="6.93">
        <ele>1970.211</ele>
        <time>2016-03-13T09:12:36Z</time>
      </trkpt>
      <trkpt lat="44.4642" lon="6.93001">
        <ele>1969.109</ele>
        <time>2016-03-13T09:12:55Z</time>
      </trkpt>
      <trkpt lat="44.46404" lon="6.93003">
        <ele>1968.465</ele>
        <time>2016-03-13T09:13:15Z</time>
      </trkpt>
      <trkpt lat="44.46388" lon="6.93004">
        <ele>1970.32</ele>
        <time>2016-03-13T09:13:39Z</time>
      </trkpt>
      <trkpt lat="44.46385" lon="6.92993">
        <ele>1971.831</ele>
        <time>2016-03-13T09:13:55Z</time>
      </trkpt>
      <trkpt lat="44.46383" lon="6.92984">
        <ele>1972.563</ele>
        <time>2016-03-13T09:14:07Z</time>
      </trkpt>
      <trkpt lat="44.46379" lon="6.92977">
        <ele>1975.633</ele>
        <time>2016-03-13T09:14:43Z</time>
      </trkpt>
      <trkpt lat="44.46375" lon="6.92976">
        <ele>1977.443</ele>
        <time>2016-03-13T09:14:58Z</time>
      </trkpt>
      <trkpt lat="44.46368" lon="6.92968">
        <ele>1979.037</ele>
        <time>2016-03-13T09:15:13Z</time>
      </trkpt>
      <trkpt lat="44.46361" lon="6.92959">
        <ele>1982.141</ele>
        <time>2016-03-13T09:15:30Z</time>
      </trkpt>
      <trkpt lat="44.46359" lon="6.9295">
        <ele>1985.151</ele>
        <time>2016-03-13T09:15:47Z</time>
      </trkpt>
      <trkpt lat="44.46357" lon="6.92958">
        <ele>1986.319</ele>
        <time>2016-03-13T09:16:00Z</time>
      </trkpt>
      <trkpt lat="44.46349" lon="6.92973">
        <ele>1989.45</ele>
        <time>2016-03-13T09:16:21Z</time>
      </trkpt>
      <trkpt lat="44.46347" lon="6.92965">
        <ele>1991.241</ele>
        <time>2016-03-13T09:16:35Z</time>
      </trkpt>
      <trkpt lat="44.46341" lon="6.92957">
        <ele>1994.169</ele>
        <time>2016-03-13T09:16:53Z</time>
      </trkpt>
      <trkpt lat="44.46336" lon="6.9295">
        <ele>1996.375</ele>
        <time>2016-03-13T09:17:09Z</time>
      </trkpt>
      <trkpt lat="44.46333" lon="6.92947">
        <ele>1997.306</ele>
        <time>2016-03-13T09:17:29Z</time>
      </trkpt>
      <trkpt lat="44.46322" lon="6.92952">
        <ele>1998.37</ele>
        <time>2016-03-13T09:17:43Z</time>
      </trkpt>
      <trkpt lat="44.46317" lon="6.92951">
        <ele>1999.052</ele>
        <time>2016-03-13T09:17:49Z</time>
      </trkpt>
      <trkpt lat="44.46308" lon="6.92951">
        <ele>2000.165</ele>
        <time>2016-03-13T09:18:01Z</time>
      </trkpt>
      <trkpt lat="44.46298" lon="6.92959">
        <ele>2000.83</ele>
        <time>2016-03-13T09:18:15Z</time>
      </trkpt>
      <trkpt lat="44.46287" lon="6.92969">
        <ele>2001.668</ele>
        <time>2016-03-13T09:18:27Z</time>
      </trkpt>
      <trkpt lat="44.46276" lon="6.92976">
        <ele>2002.965</ele>
        <time>2016-03-13T09:18:40Z</time>
      </trkpt>
      <trkpt lat="44.46266" lon="6.92982">
        <ele>2002.112</ele>
        <time>2016-03-13T09:18:55Z</time>
      </trkpt>
      <trkpt lat="44.46251" lon="6.9299">
        <ele>2000.254</ele>
        <time>2016-03-13T09:19:07Z</time>
      </trkpt>
      <trkpt lat="44.46239" lon="6.92993">
        <ele>2000.476</ele>
        <time>2016-03-13T09:19:21Z</time>
      </trkpt>
      <trkpt lat="44.46228" lon="6.92997">
        <ele>2001.182</ele>
        <time>2016-03-13T09:19:36Z</time>
      </trkpt>
      <trkpt lat="44.46226" lon="6.93">
        <ele>2001.359</ele>
        <time>2016-03-13T09:21:10Z</time>
      </trkpt>
      <trkpt lat="44.46224" lon="6.93009">
        <ele>2004.495</ele>
        <time>2016-03-13T09:21:24Z</time>
      </trkpt>
      <trkpt lat="44.46216" lon="6.93016">
        <ele>2007.5</ele>
        <time>2016-03-13T09:21:45Z</time>
      </trkpt>
      <trkpt lat="44.46207" lon="6.9302">
        <ele>2011.801</ele>
        <time>2016-03-13T09:22:08Z</time>
      </trkpt>
      <trkpt lat="44.462" lon="6.93017">
        <ele>2013.828</ele>
        <time>2016-03-13T09:22:24Z</time>
      </trkpt>
      <trkpt lat="44.46193" lon="6.9302">
        <ele>2015.638</ele>
        <time>2016-03-13T09:22:38Z</time>
      </trkpt>
      <trkpt lat="44.46185" lon="6.93022">
        <ele>2017.189</ele>
        <time>2016-03-13T09:22:52Z</time>
      </trkpt>
      <trkpt lat="44.46178" lon="6.93026">
        <ele>2019.036</ele>
        <time>2016-03-13T09:23:06Z</time>
      </trkpt>
      <trkpt lat="44.46172" lon="6.93025">
        <ele>2020.804</ele>
        <time>2016-03-13T09:23:19Z</time>
      </trkpt>
      <trkpt lat="44.46161" lon="6.9303">
        <ele>2024.138</ele>
        <time>2016-03-13T09:23:41Z</time>
      </trkpt>
      <trkpt lat="44.46154" lon="6.9303">
        <ele>2026.133</ele>
        <time>2016-03-13T09:23:56Z</time>
      </trkpt>
      <trkpt lat="44.46144" lon="6.93031">
        <ele>2028.966</ele>
        <time>2016-03-13T09:24:15Z</time>
      </trkpt>
      <trkpt lat="44.46137" lon="6.93029">
        <ele>2031.188</ele>
        <time>2016-03-13T09:24:31Z</time>
      </trkpt>
      <trkpt lat="44.46126" lon="6.93026">
        <ele>2034.177</ele>
        <time>2016-03-13T09:24:50Z</time>
      </trkpt>
      <trkpt lat="44.46117" lon="6.93023">
        <ele>2037.387</ele>
        <time>2016-03-13T09:25:12Z</time>
      </trkpt>
      <trkpt lat="44.46111" lon="6.93012">
        <ele>2040.772</ele>
        <time>2016-03-13T09:25:34Z</time>
      </trkpt>
      <trkpt lat="44.46107" lon="6.92999">
        <ele>2043.401</ele>
        <time>2016-03-13T09:25:57Z</time>
      </trkpt>
      <trkpt lat="44.46101" lon="6.9299">
        <ele>2046.561</ele>
        <time>2016-03-13T09:26:19Z</time>
      </trkpt>
      <trkpt lat="44.46093" lon="6.92983">
        <ele>2049.637</ele>
        <time>2016-03-13T09:26:40Z</time>
      </trkpt>
      <trkpt lat="44.46086" lon="6.92977">
        <ele>2052.321</ele>
        <time>2016-03-13T09:26:56Z</time>
      </trkpt>
      <trkpt lat="44.46082" lon="6.92974">
        <ele>2053.946</ele>
        <time>2016-03-13T09:27:11Z</time>
      </trkpt>
      <trkpt lat="44.46075" lon="6.92969">
        <ele>2057.109</ele>
        <time>2016-03-13T09:27:28Z</time>
      </trkpt>
      <trkpt lat="44.46068" lon="6.92964">
        <ele>2060.317</ele>
        <time>2016-03-13T09:27:47Z</time>
      </trkpt>
      <trkpt lat="44.46059" lon="6.92962">
        <ele>2063.012</ele>
        <time>2016-03-13T09:28:07Z</time>
      </trkpt>
      <trkpt lat="44.46053" lon="6.92962">
        <ele>2064.764</ele>
        <time>2016-03-13T09:28:33Z</time>
      </trkpt>
      <trkpt lat="44.46043" lon="6.92963">
        <ele>2068.027</ele>
        <time>2016-03-13T09:28:54Z</time>
      </trkpt>
      <trkpt lat="44.46034" lon="6.92972">
        <ele>2071.137</ele>
        <time>2016-03-13T09:29:17Z</time>
      </trkpt>
      <trkpt lat="44.46026" lon="6.92981">
        <ele>2074.221</ele>
        <time>2016-03-13T09:29:35Z</time>
      </trkpt>
      <trkpt lat="44.4602" lon="6.92988">
        <ele>2077.563</ele>
        <time>2016-03-13T09:29:54Z</time>
      </trkpt>
      <trkpt lat="44.46013" lon="6.92997">
        <ele>2080.798</ele>
        <time>2016-03-13T09:30:17Z</time>
      </trkpt>
      <trkpt lat="44.46005" lon="6.93007">
        <ele>2083.448</ele>
        <time>2016-03-13T09:30:41Z</time>
      </trkpt>
      <trkpt lat="44.45999" lon="6.93013">
        <ele>2086.738</ele>
        <time>2016-03-13T09:30:59Z</time>
      </trkpt>
      <trkpt lat="44.45992" lon="6.9301">
        <ele>2089.8</ele>
        <time>2016-03-13T09:31:17Z</time>
      </trkpt>
      <trkpt lat="44.45987" lon="6.9301">
        <ele>2092.891</ele>
        <time>2016-03-13T09:31:36Z</time>
      </trkpt>
      <trkpt lat="44.45979" lon="6.93014">
        <ele>2095.938</ele>
        <time>2016-03-13T09:31:57Z</time>
      </trkpt>
      <trkpt lat="44.45973" lon="6.93017">
        <ele>2098.95</ele>
        <time>2016-03-13T09:32:17Z</time>
      </trkpt>
      <trkpt lat="44.45968" lon="6.93023">
        <ele>2100.961</ele>
        <time>2016-03-13T09:32:49Z</time>
      </trkpt>
      <trkpt lat="44.45967" lon="6.93033">
        <ele>2103.02</ele>
        <time>2016-03-13T09:41:59Z</time>
      </trkpt>
      <trkpt lat="44.45965" lon="6.93043">
        <ele>2104.964</ele>
        <time>2016-03-13T09:42:14Z</time>
      </trkpt>
      <trkpt lat="44.45955" lon="6.93045">
        <ele>2106.587</ele>
        <time>2016-03-13T09:42:32Z</time>
      </trkpt>
      <trkpt lat="44.45949" lon="6.93042">
        <ele>2109.361</ele>
        <time>2016-03-13T09:42:50Z</time>
      </trkpt>
      <trkpt lat="44.45945" lon="6.93047">
        <ele>2112.056</ele>
        <time>2016-03-13T09:43:09Z</time>
      </trkpt>
      <trkpt lat="44.45944" lon="6.93063">
        <ele>2115.195</ele>
        <time>2016-03-13T09:43:38Z</time>
      </trkpt>
      <trkpt lat="44.45937" lon="6.93069">
        <ele>2118.223</ele>
        <time>2016-03-13T09:43:57Z</time>
      </trkpt>
      <trkpt lat="44.4593" lon="6.93069">
        <ele>2120.736</ele>
        <time>2016-03-13T09:44:16Z</time>
      </trkpt>
      <trkpt lat="44.4593" lon="6.93076">
        <ele>2122.805</ele>
        <time>2016-03-13T09:44:33Z</time>
      </trkpt>
      <trkpt lat="44.45935" lon="6.93089">
        <ele>2125.35</ele>
        <time>2016-03-13T09:44:59Z</time>
      </trkpt>
      <trkpt lat="44.45942" lon="6.93101">
        <ele>2128.526</ele>
        <time>2016-03-13T09:45:23Z</time>
      </trkpt>
      <trkpt lat="44.45937" lon="6.93107">
        <ele>2131.889</ele>
        <time>2016-03-13T09:45:44Z</time>
      </trkpt>
      <trkpt lat="44.45931" lon="6.93107">
        <ele>2133.182</ele>
        <time>2016-03-13T09:45:58Z</time>
      </trkpt>
      <trkpt lat="44.45925" lon="6.93111">
        <ele>2135.171</ele>
        <time>2016-03-13T09:46:12Z</time>
      </trkpt>
      <trkpt lat="44.45921" lon="6.93112">
        <ele>2137.388</ele>
        <time>2016-03-13T09:46:26Z</time>
      </trkpt>
      <trkpt lat="44.45913" lon="6.93112">
        <ele>2139.98</ele>
        <time>2016-03-13T09:46:49Z</time>
      </trkpt>
      <trkpt lat="44.45907" lon="6.93111">
        <ele>2140.744</ele>
        <time>2016-03-13T09:47:03Z</time>
      </trkpt>
      <trkpt lat="44.459" lon="6.9311">
        <ele>2142.004</ele>
        <time>2016-03-13T09:47:25Z</time>
      </trkpt>
      <trkpt lat="44.45902" lon="6.93121">
        <ele>2145.873</ele>
        <time>2016-03-13T09:48:05Z</time>
      </trkpt>
      <trkpt lat="44.45904" lon="6.9313">
        <ele>2148.018</ele>
        <time>2016-03-13T09:48:35Z</time>
      </trkpt>
      <trkpt lat="44.45906" lon="6.93137">
        <ele>2149.857</ele>
        <time>2016-03-13T09:48:54Z</time>
      </trkpt>
      <trkpt lat="44.459" lon="6.93138">
        <ele>2150.999</ele>
        <time>2016-03-13T09:49:08Z</time>
      </trkpt>
      <trkpt lat="44.45893" lon="6.93137">
        <ele>2152.951</ele>
        <time>2016-03-13T09:49:26Z</time>
      </trkpt>
      <trkpt lat="44.45887" lon="6.93135">
        <ele>2154.73</ele>
        <time>2016-03-13T09:49:37Z</time>
      </trkpt>
      <trkpt lat="44.45882" lon="6.93132">
        <ele>2156.405</ele>
        <time>2016-03-13T09:50:17Z</time>
      </trkpt>
      <trkpt lat="44.45882" lon="6.9314">
        <ele>2158.022</ele>
        <time>2016-03-13T09:50:33Z</time>
      </trkpt>
      <trkpt lat="44.45884" lon="6.93152">
        <ele>2160.522</ele>
        <time>2016-03-13T09:51:05Z</time>
      </trkpt>
      <trkpt lat="44.45884" lon="6.93157">
        <ele>2162.969</ele>
        <time>2016-03-13T09:51:26Z</time>
      </trkpt>
      <trkpt lat="44.45878" lon="6.93155">
        <ele>2164.001</ele>
        <time>2016-03-13T09:51:39Z</time>
      </trkpt>
      <trkpt lat="44.45876" lon="6.93153">
        <ele>2165.608</ele>
        <time>2016-03-13T09:51:51Z</time>
      </trkpt>
      <trkpt lat="44.4587" lon="6.93151">
        <ele>2166.845</ele>
        <time>2016-03-13T09:52:02Z</time>
      </trkpt>
      <trkpt lat="44.45867" lon="6.93147">
        <ele>2168.612</ele>
        <time>2016-03-13T09:52:21Z</time>
      </trkpt>
      <trkpt lat="44.45867" lon="6.93152">
        <ele>2169.986</ele>
        <time>2016-03-13T09:52:32Z</time>
      </trkpt>
      <trkpt lat="44.45866" lon="6.93156">
        <ele>2170.811</ele>
        <time>2016-03-13T09:52:44Z</time>
      </trkpt>
      <trkpt lat="44.45865" lon="6.9316">
        <ele>2172.505</ele>
        <time>2016-03-13T09:52:58Z</time>
      </trkpt>
      <trkpt lat="44.45866" lon="6.93164">
        <ele>2172.919</ele>
        <time>2016-03-13T09:53:25Z</time>
      </trkpt>
      <trkpt lat="44.45864" lon="6.93169">
        <ele>2174.042</ele>
        <time>2016-03-13T09:53:37Z</time>
      </trkpt>
      <trkpt lat="44.45858" lon="6.93164">
        <ele>2175.654</ele>
        <time>2016-03-13T09:53:54Z</time>
      </trkpt>
      <trkpt lat="44.45855" lon="6.9316">
        <ele>2177.377</ele>
        <time>2016-03-13T09:54:09Z</time>
      </trkpt>
      <trkpt lat="44.45849" lon="6.93155">
        <ele>2178.73</ele>
        <time>2016-03-13T09:54:42Z</time>
      </trkpt>
      <trkpt lat="44.4585" lon="6.93159">
        <ele>2180.262</ele>
        <time>2016-03-13T09:54:57Z</time>
      </trkpt>
      <trkpt lat="44.45849" lon="6.93164">
        <ele>2181.512</ele>
        <time>2016-03-13T09:55:25Z</time>
      </trkpt>
      <trkpt lat="44.45848" lon="6.93172">
        <ele>2183.399</ele>
        <time>2016-03-13T09:55:43Z</time>
      </trkpt>
      <trkpt lat="44.45844" lon="6.93186">
        <ele>2186.422</ele>
        <time>2016-03-13T09:56:06Z</time>
      </trkpt>
      <trkpt lat="44.45837" lon="6.93183">
        <ele>2189.135</ele>
        <time>2016-03-13T09:56:29Z</time>
      </trkpt>
      <trkpt lat="44.45832" lon="6.93179">
        <ele>2190.969</ele>
        <time>2016-03-13T09:56:54Z</time>
      </trkpt>
      <trkpt lat="44.4583" lon="6.9318">
        <ele>2191.949</ele>
        <time>2016-03-13T09:57:09Z</time>
      </trkpt>
      <trkpt lat="44.45828" lon="6.93191">
        <ele>2195.041</ele>
        <time>2016-03-13T09:57:32Z</time>
      </trkpt>
      <trkpt lat="44.45826" lon="6.93201">
        <ele>2198.362</ele>
        <time>2016-03-13T09:57:55Z</time>
      </trkpt>
      <trkpt lat="44.45821" lon="6.93215">
        <ele>2200.315</ele>
        <time>2016-03-13T09:58:18Z</time>
      </trkpt>
      <trkpt lat="44.45816" lon="6.9323">
        <ele>2202.26</ele>
        <time>2016-03-13T09:58:44Z</time>
      </trkpt>
      <trkpt lat="44.45811" lon="6.93238">
        <ele>2204.001</ele>
        <time>2016-03-13T09:59:04Z</time>
      </trkpt>
      <trkpt lat="44.45809" lon="6.93244">
        <ele>2205.676</ele>
        <time>2016-03-13T09:59:18Z</time>
      </trkpt>
      <trkpt lat="44.45807" lon="6.9325">
        <ele>2207.542</ele>
        <time>2016-03-13T09:59:34Z</time>
      </trkpt>
      <trkpt lat="44.45806" lon="6.93254">
        <ele>2208.482</ele>
        <time>2016-03-13T10:00:02Z</time>
      </trkpt>
      <trkpt lat="44.45803" lon="6.93263">
        <ele>2210.837</ele>
        <time>2016-03-13T10:00:19Z</time>
      </trkpt>
      <trkpt lat="44.45793" lon="6.93268">
        <ele>2213.508</ele>
        <time>2016-03-13T10:00:40Z</time>
      </trkpt>
      <trkpt lat="44.45785" lon="6.93265">
        <ele>2215.395</ele>
        <time>2016-03-13T10:00:57Z</time>
      </trkpt>
      <trkpt lat="44.45779" lon="6.93264">
        <ele>2216.592</ele>
        <time>2016-03-13T10:01:13Z</time>
      </trkpt>
      <trkpt lat="44.45776" lon="6.93267">
        <ele>2218.663</ele>
        <time>2016-03-13T10:02:17Z</time>
      </trkpt>
      <trkpt lat="44.4577" lon="6.93281">
        <ele>2220.944</ele>
        <time>2016-03-13T10:02:40Z</time>
      </trkpt>
      <trkpt lat="44.45765" lon="6.93284">
        <ele>2223.95</ele>
        <time>2016-03-13T10:02:56Z</time>
      </trkpt>
      <trkpt lat="44.45761" lon="6.9329">
        <ele>2227.243</ele>
        <time>2016-03-13T10:03:14Z</time>
      </trkpt>
      <trkpt lat="44.45755" lon="6.93294">
        <ele>2229.584</ele>
        <time>2016-03-13T10:03:33Z</time>
      </trkpt>
      <trkpt lat="44.45742" lon="6.93301">
        <ele>2232.641</ele>
        <time>2016-03-13T10:03:49Z</time>
      </trkpt>
      <trkpt lat="44.45739" lon="6.933">
        <ele>2235.201</ele>
        <time>2016-03-13T10:04:08Z</time>
      </trkpt>
      <trkpt lat="44.4573" lon="6.93301">
        <ele>2237.685</ele>
        <time>2016-03-13T10:04:28Z</time>
      </trkpt>
      <trkpt lat="44.45723" lon="6.93303">
        <ele>2239.435</ele>
        <time>2016-03-13T10:04:44Z</time>
      </trkpt>
      <trkpt lat="44.45712" lon="6.93304">
        <ele>2242.206</ele>
        <time>2016-03-13T10:05:08Z</time>
      </trkpt>
      <trkpt lat="44.45703" lon="6.93306">
        <ele>2245.517</ele>
        <time>2016-03-13T10:05:42Z</time>
      </trkpt>
      <trkpt lat="44.45697" lon="6.93311">
        <ele>2247.834</ele>
        <time>2016-03-13T10:06:01Z</time>
      </trkpt>
      <trkpt lat="44.45693" lon="6.93314">
        <ele>2250.223</ele>
        <time>2016-03-13T10:06:21Z</time>
      </trkpt>
      <trkpt lat="44.45686" lon="6.93317">
        <ele>2251.494</ele>
        <time>2016-03-13T10:06:42Z</time>
      </trkpt>
      <trkpt lat="44.45682" lon="6.9332">
        <ele>2253.883</ele>
        <time>2016-03-13T10:06:58Z</time>
      </trkpt>
      <trkpt lat="44.45677" lon="6.93321">
        <ele>2256.171</ele>
        <time>2016-03-13T10:07:16Z</time>
      </trkpt>
      <trkpt lat="44.45674" lon="6.93323">
        <ele>2258.058</ele>
        <time>2016-03-13T10:07:41Z</time>
      </trkpt>
      <trkpt lat="44.4567" lon="6.93326">
        <ele>2260.51</ele>
        <time>2016-03-13T10:07:58Z</time>
      </trkpt>
      <trkpt lat="44.45663" lon="6.93325">
        <ele>2261.857</ele>
        <time>2016-03-13T10:08:13Z</time>
      </trkpt>
      <trkpt lat="44.45655" lon="6.93325">
        <ele>2264.719</ele>
        <time>2016-03-13T10:08:35Z</time>
      </trkpt>
      <trkpt lat="44.45651" lon="6.93328">
        <ele>2266.275</ele>
        <time>2016-03-13T10:08:48Z</time>
      </trkpt>
      <trkpt lat="44.45643" lon="6.93328">
        <ele>2267.493</ele>
        <time>2016-03-13T10:09:00Z</time>
      </trkpt>
      <trkpt lat="44.45635" lon="6.93328">
        <ele>2269.819</ele>
        <time>2016-03-13T10:09:19Z</time>
      </trkpt>
      <trkpt lat="44.4563" lon="6.93329">
        <ele>2271.668</ele>
        <time>2016-03-13T10:09:33Z</time>
      </trkpt>
      <trkpt lat="44.45626" lon="6.93332">
        <ele>2272.514</ele>
        <time>2016-03-13T10:09:47Z</time>
      </trkpt>
      <trkpt lat="44.45619" lon="6.93328">
        <ele>2275.04</ele>
        <time>2016-03-13T10:10:05Z</time>
      </trkpt>
      <trkpt lat="44.45616" lon="6.93325">
        <ele>2275.927</ele>
        <time>2016-03-13T10:10:27Z</time>
      </trkpt>
      <trkpt lat="44.45611" lon="6.93319">
        <ele>2278.9</ele>
        <time>2016-03-13T10:10:42Z</time>
      </trkpt>
      <trkpt lat="44.45603" lon="6.93311">
        <ele>2281.297</ele>
        <time>2016-03-13T10:11:03Z</time>
      </trkpt>
      <trkpt lat="44.45599" lon="6.93305">
        <ele>2282.798</ele>
        <time>2016-03-13T10:11:15Z</time>
      </trkpt>
      <trkpt lat="44.45595" lon="6.933">
        <ele>2284.954</ele>
        <time>2016-03-13T10:11:28Z</time>
      </trkpt>
      <trkpt lat="44.45587" lon="6.93297">
        <ele>2286.629</ele>
        <time>2016-03-13T10:11:42Z</time>
      </trkpt>
      <trkpt lat="44.45583" lon="6.9329">
        <ele>2287.57</ele>
        <time>2016-03-13T10:11:55Z</time>
      </trkpt>
      <trkpt lat="44.45577" lon="6.9328">
        <ele>2289.491</ele>
        <time>2016-03-13T10:12:19Z</time>
      </trkpt>
      <trkpt lat="44.45572" lon="6.93268">
        <ele>2291.655</ele>
        <time>2016-03-13T10:12:44Z</time>
      </trkpt>
      <trkpt lat="44.45565" lon="6.93256">
        <ele>2294.128</ele>
        <time>2016-03-13T10:13:12Z</time>
      </trkpt>
      <trkpt lat="44.4556" lon="6.93248">
        <ele>2297.13</ele>
        <time>2016-03-13T10:13:33Z</time>
      </trkpt>
      <trkpt lat="44.45554" lon="6.93236">
        <ele>2299.724</ele>
        <time>2016-03-13T10:14:02Z</time>
      </trkpt>
      <trkpt lat="44.45548" lon="6.93219">
        <ele>2302.417</ele>
        <time>2016-03-13T10:14:35Z</time>
      </trkpt>
      <trkpt lat="44.4554" lon="6.93204">
        <ele>2305.152</ele>
        <time>2016-03-13T10:15:01Z</time>
      </trkpt>
      <trkpt lat="44.45535" lon="6.93192">
        <ele>2308.249</ele>
        <time>2016-03-13T10:15:29Z</time>
      </trkpt>
      <trkpt lat="44.45533" lon="6.93176">
        <ele>2311.327</ele>
        <time>2016-03-13T10:15:57Z</time>
      </trkpt>
      <trkpt lat="44.45531" lon="6.93168">
        <ele>2312.801</ele>
        <time>2016-03-13T10:16:18Z</time>
      </trkpt>
      <trkpt lat="44.45524" lon="6.9317">
        <ele>2315.089</ele>
        <time>2016-03-13T10:16:41Z</time>
      </trkpt>
      <trkpt lat="44.4552" lon="6.93169">
        <ele>2316.675</ele>
        <time>2016-03-13T10:17:02Z</time>
      </trkpt>
      <trkpt lat="44.45514" lon="6.93156">
        <ele>2319.872</ele>
        <time>2016-03-13T10:17:29Z</time>
      </trkpt>
      <trkpt lat="44.45514" lon="6.93153">
        <ele>2320.11</ele>
        <time>2016-03-13T10:17:50Z</time>
      </trkpt>
      <trkpt lat="44.4551" lon="6.93148">
        <ele>2321.275</ele>
        <time>2016-03-13T10:19:07Z</time>
      </trkpt>
      <trkpt lat="44.45508" lon="6.93146">
        <ele>2321.344</ele>
        <time>2016-03-13T10:19:31Z</time>
      </trkpt>
      <trkpt lat="44.455" lon="6.93138">
        <ele>2322.528</ele>
        <time>2016-03-13T10:19:46Z</time>
      </trkpt>
      <trkpt lat="44.45493" lon="6.93128">
        <ele>2324.663</ele>
        <time>2016-03-13T10:20:00Z</time>
      </trkpt>
      <trkpt lat="44.45484" lon="6.93115">
        <ele>2326.121</ele>
        <time>2016-03-13T10:20:18Z</time>
      </trkpt>
      <trkpt lat="44.45477" lon="6.93101">
        <ele>2326.864</ele>
        <time>2016-03-13T10:20:36Z</time>
      </trkpt>
      <trkpt lat="44.45472" lon="6.9309">
        <ele>2328.132</ele>
        <time>2016-03-13T10:20:54Z</time>
      </trkpt>
      <trkpt lat="44.45469" lon="6.93074">
        <ele>2329.11</ele>
        <time>2016-03-13T10:21:17Z</time>
      </trkpt>
      <trkpt lat="44.45464" lon="6.93055">
        <ele>2332.214</ele>
        <time>2016-03-13T10:21:44Z</time>
      </trkpt>
      <trkpt lat="44.4546" lon="6.93031">
        <ele>2335.726</ele>
        <time>2016-03-13T10:22:16Z</time>
      </trkpt>
      <trkpt lat="44.4546" lon="6.93014">
        <ele>2336.632</ele>
        <time>2016-03-13T10:22:38Z</time>
      </trkpt>
      <trkpt lat="44.4546" lon="6.93002">
        <ele>2337.288</ele>
        <time>2016-03-13T10:23:02Z</time>
      </trkpt>
      <trkpt lat="44.45467" lon="6.92993">
        <ele>2337.446</ele>
        <time>2016-03-13T10:23:51Z</time>
      </trkpt>
      <trkpt lat="44.45474" lon="6.92975">
        <ele>2337.694</ele>
        <time>2016-03-13T10:24:09Z</time>
      </trkpt>
      <trkpt lat="44.45476" lon="6.9296">
        <ele>2338.875</ele>
        <time>2016-03-13T10:24:24Z</time>
      </trkpt>
      <trkpt lat="44.45477" lon="6.92949">
        <ele>2339.774</ele>
        <time>2016-03-13T10:24:35Z</time>
      </trkpt>
      <trkpt lat="44.45476" lon="6.92936">
        <ele>2340.53</ele>
        <time>2016-03-13T10:24:50Z</time>
      </trkpt>
      <trkpt lat="44.45472" lon="6.92917">
        <ele>2341.478</ele>
        <time>2016-03-13T10:25:09Z</time>
      </trkpt>
      <trkpt lat="44.45468" lon="6.92901">
        <ele>2342.892</ele>
        <time>2016-03-13T10:25:27Z</time>
      </trkpt>
      <trkpt lat="44.45464" lon="6.9289">
        <ele>2344.361</ele>
        <time>2016-03-13T10:25:41Z</time>
      </trkpt>
      <trkpt lat="44.45461" lon="6.9288">
        <ele>2346.105</ele>
        <time>2016-03-13T10:25:57Z</time>
      </trkpt>
      <trkpt lat="44.45459" lon="6.92874">
        <ele>2347.371</ele>
        <time>2016-03-13T10:26:09Z</time>
      </trkpt>
      <trkpt lat="44.45451" lon="6.92862">
        <ele>2348.324</ele>
        <time>2016-03-13T10:26:32Z</time>
      </trkpt>
      <trkpt lat="44.45448" lon="6.92842">
        <ele>2350.763</ele>
        <time>2016-03-13T10:27:01Z</time>
      </trkpt>
      <trkpt lat="44.45454" lon="6.92836">
        <ele>2351.49</ele>
        <time>2016-03-13T10:27:20Z</time>
      </trkpt>
      <trkpt lat="44.45467" lon="6.92831">
        <ele>2349.477</ele>
        <time>2016-03-13T10:27:39Z</time>
      </trkpt>
      <trkpt lat="44.4547" lon="6.92829">
        <ele>2349.527</ele>
        <time>2016-03-13T10:27:44Z</time>
      </trkpt>
      <trkpt lat="44.45483" lon="6.9281">
        <ele>2346.382</ele>
        <time>2016-03-13T10:28:01Z</time>
      </trkpt>
      <trkpt lat="44.45487" lon="6.92781">
        <ele>2344.039</ele>
        <time>2016-03-13T10:28:21Z</time>
      </trkpt>
      <trkpt lat="44.4549" lon="6.92755">
        <ele>2342.374</ele>
        <time>2016-03-13T10:28:39Z</time>
      </trkpt>
      <trkpt lat="44.4549" lon="6.92747">
        <ele>2340.937</ele>
        <time>2016-03-13T10:28:42Z</time>
      </trkpt>
      <trkpt lat="44.45489" lon="6.92742">
        <ele>2340.598</ele>
        <time>2016-03-13T10:28:46Z</time>
      </trkpt>
      <trkpt lat="44.45482" lon="6.92722">
        <ele>2338.683</ele>
        <time>2016-03-13T10:29:00Z</time>
      </trkpt>
      <trkpt lat="44.45476" lon="6.92711">
        <ele>2338.45</ele>
        <time>2016-03-13T10:29:18Z</time>
      </trkpt>
      <trkpt lat="44.45468" lon="6.92702">
        <ele>2339.198</ele>
        <time>2016-03-13T10:29:40Z</time>
      </trkpt>
      <trkpt lat="44.45457" lon="6.92687">
        <ele>2340.58</ele>
        <time>2016-03-13T10:30:04Z</time>
      </trkpt>
      <trkpt lat="44.45446" lon="6.92672">
        <ele>2341.106</ele>
        <time>2016-03-13T10:30:24Z</time>
      </trkpt>
      <trkpt lat="44.45435" lon="6.92653">
        <ele>2341.333</ele>
        <time>2016-03-13T10:30:50Z</time>
      </trkpt>
      <trkpt lat="44.45422" lon="6.92638">
        <ele>2342.509</ele>
        <time>2016-03-13T10:31:15Z</time>
      </trkpt>
      <trkpt lat="44.45415" lon="6.9263">
        <ele>2343.428</ele>
        <time>2016-03-13T10:31:37Z</time>
      </trkpt>
      <trkpt lat="44.45408" lon="6.92625">
        <ele>2342.554</ele>
        <time>2016-03-13T10:31:52Z</time>
      </trkpt>
      <trkpt lat="44.45405" lon="6.92625">
        <ele>2342.419</ele>
        <time>2016-03-13T10:31:59Z</time>
      </trkpt>
      <trkpt lat="44.45402" lon="6.92618">
        <ele>2343.021</ele>
        <time>2016-03-13T10:32:13Z</time>
      </trkpt>
      <trkpt lat="44.45399" lon="6.92615">
        <ele>2343.531</ele>
        <time>2016-03-13T10:34:38Z</time>
      </trkpt>
      <trkpt lat="44.45399" lon="6.92613">
        <ele>2342.208</ele>
        <time>2016-03-13T11:19:24Z</time>
      </trkpt>
      <trkpt lat="44.45401" lon="6.92592">
        <ele>2341.93</ele>
        <time>2016-03-13T11:20:21Z</time>
      </trkpt>
      <trkpt lat="44.45405" lon="6.92573">
        <ele>2341.835</ele>
        <time>2016-03-13T11:20:42Z</time>
      </trkpt>
      <trkpt lat="44.4541" lon="6.9256">
        <ele>2342.723</ele>
        <time>2016-03-13T11:20:58Z</time>
      </trkpt>
      <trkpt lat="44.45417" lon="6.9254">
        <ele>2341.88</ele>
        <time>2016-03-13T11:21:18Z</time>
      </trkpt>
      <trkpt lat="44.45412" lon="6.92528">
        <ele>2342.723</ele>
        <time>2016-03-13T11:21:32Z</time>
      </trkpt>
      <trkpt lat="44.454" lon="6.92516">
        <ele>2342.311</ele>
        <time>2016-03-13T11:21:50Z</time>
      </trkpt>
      <trkpt lat="44.4539" lon="6.92497">
        <ele>2339.977</ele>
        <time>2016-03-13T11:22:04Z</time>
      </trkpt>
      <trkpt lat="44.45383" lon="6.92489">
        <ele>2339.552</ele>
        <time>2016-03-13T11:22:19Z</time>
      </trkpt>
      <trkpt lat="44.45377" lon="6.92492">
        <ele>2340.453</ele>
        <time>2016-03-13T11:22:33Z</time>
      </trkpt>
      <trkpt lat="44.45372" lon="6.92499">
        <ele>2341.317</ele>
        <time>2016-03-13T11:22:46Z</time>
      </trkpt>
      <trkpt lat="44.45375" lon="6.92506">
        <ele>2338.508</ele>
        <time>2016-03-13T11:24:24Z</time>
      </trkpt>
      <trkpt lat="44.45378" lon="6.92512">
        <ele>2337.723</ele>
        <time>2016-03-13T11:24:32Z</time>
      </trkpt>
      <trkpt lat="44.45371" lon="6.92531">
        <ele>2335.166</ele>
        <time>2016-03-13T11:24:49Z</time>
      </trkpt>
      <trkpt lat="44.45363" lon="6.92551">
        <ele>2333.747</ele>
        <time>2016-03-13T11:25:08Z</time>
      </trkpt>
      <trkpt lat="44.4536" lon="6.92553">
        <ele>2332.616</ele>
        <time>2016-03-13T11:25:13Z</time>
      </trkpt>
      <trkpt lat="44.45355" lon="6.92555">
        <ele>2331.102</ele>
        <time>2016-03-13T11:25:36Z</time>
      </trkpt>
      <trkpt lat="44.45343" lon="6.92553">
        <ele>2329.173</ele>
        <time>2016-03-13T11:25:56Z</time>
      </trkpt>
      <trkpt lat="44.45329" lon="6.92552">
        <ele>2325.986</ele>
        <time>2016-03-13T11:26:06Z</time>
      </trkpt>
      <trkpt lat="44.45321" lon="6.92549">
        <ele>2322.612</ele>
        <time>2016-03-13T11:26:09Z</time>
      </trkpt>
      <trkpt lat="44.4531" lon="6.92549">
        <ele>2322.477</ele>
        <time>2016-03-13T11:26:21Z</time>
      </trkpt>
      <trkpt lat="44.45298" lon="6.92551">
        <ele>2320.229</ele>
        <time>2016-03-13T11:26:36Z</time>
      </trkpt>
      <trkpt lat="44.45293" lon="6.92549">
        <ele>2318.54</ele>
        <time>2016-03-13T11:26:40Z</time>
      </trkpt>
      <trkpt lat="44.45269" lon="6.92535">
        <ele>2315.317</ele>
        <time>2016-03-13T11:27:04Z</time>
      </trkpt>
      <trkpt lat="44.45248" lon="6.92534">
        <ele>2314.257</ele>
        <time>2016-03-13T11:27:25Z</time>
      </trkpt>
      <trkpt lat="44.45242" lon="6.92534">
        <ele>2314.104</ele>
        <time>2016-03-13T11:27:30Z</time>
      </trkpt>
      <trkpt lat="44.45231" lon="6.92532">
        <ele>2313.663</ele>
        <time>2016-03-13T11:27:44Z</time>
      </trkpt>
      <trkpt lat="44.45202" lon="6.92538">
        <ele>2311.475</ele>
        <time>2016-03-13T11:28:14Z</time>
      </trkpt>
      <trkpt lat="44.45181" lon="6.92546">
        <ele>2309.773</ele>
        <time>2016-03-13T11:28:36Z</time>
      </trkpt>
      <trkpt lat="44.45162" lon="6.92558">
        <ele>2308.428</ele>
        <time>2016-03-13T11:28:58Z</time>
      </trkpt>
      <trkpt lat="44.4514" lon="6.92572">
        <ele>2306.875</ele>
        <time>2016-03-13T11:29:22Z</time>
      </trkpt>
      <trkpt lat="44.45132" lon="6.92586">
        <ele>2307.704</ele>
        <time>2016-03-13T11:29:41Z</time>
      </trkpt>
      <trkpt lat="44.45117" lon="6.92596">
        <ele>2307.976</ele>
        <time>2016-03-13T11:30:00Z</time>
      </trkpt>
      <trkpt lat="44.45102" lon="6.9261">
        <ele>2310.169</ele>
        <time>2016-03-13T11:30:25Z</time>
      </trkpt>
      <trkpt lat="44.45077" lon="6.92622">
        <ele>2310.058</ele>
        <time>2016-03-13T11:30:53Z</time>
      </trkpt>
      <trkpt lat="44.45065" lon="6.9263">
        <ele>2310.185</ele>
        <time>2016-03-13T11:31:09Z</time>
      </trkpt>
      <trkpt lat="44.45052" lon="6.92642">
        <ele>2311.094</ele>
        <time>2016-03-13T11:31:25Z</time>
      </trkpt>
      <trkpt lat="44.4504" lon="6.92653">
        <ele>2311.657</ele>
        <time>2016-03-13T11:31:42Z</time>
      </trkpt>
      <trkpt lat="44.45034" lon="6.92663">
        <ele>2312.835</ele>
        <time>2016-03-13T11:31:57Z</time>
      </trkpt>
      <trkpt lat="44.4503" lon="6.9267">
        <ele>2314.466</ele>
        <time>2016-03-13T11:32:40Z</time>
      </trkpt>
      <trkpt lat="44.45024" lon="6.92678">
        <ele>2316.035</ele>
        <time>2016-03-13T11:33:08Z</time>
      </trkpt>
      <trkpt lat="44.45018" lon="6.92685">
        <ele>2317.951</ele>
        <time>2016-03-13T11:33:36Z</time>
      </trkpt>
      <trkpt lat="44.45008" lon="6.92692">
        <ele>2318.99</ele>
        <time>2016-03-13T11:33:56Z</time>
      </trkpt>
      <trkpt lat="44.44993" lon="6.92697">
        <ele>2320.596</ele>
        <time>2016-03-13T11:34:18Z</time>
      </trkpt>
      <trkpt lat="44.44984" lon="6.92706">
        <ele>2322.427</ele>
        <time>2016-03-13T11:34:38Z</time>
      </trkpt>
      <trkpt lat="44.44971" lon="6.92716">
        <ele>2324.544</ele>
        <time>2016-03-13T11:35:04Z</time>
      </trkpt>
      <trkpt lat="44.44969" lon="6.92716">
        <ele>2325.579</ele>
        <time>2016-03-13T11:35:23Z</time>
      </trkpt>
      <trkpt lat="44.44963" lon="6.92726">
        <ele>2328.267</ele>
        <time>2016-03-13T11:35:49Z</time>
      </trkpt>
      <trkpt lat="44.44953" lon="6.92736">
        <ele>2330.383</ele>
        <time>2016-03-13T11:36:11Z</time>
      </trkpt>
      <trkpt lat="44.44938" lon="6.92744">
        <ele>2332.045</ele>
        <time>2016-03-13T11:36:35Z</time>
      </trkpt>
      <trkpt lat="44.44927" lon="6.92753">
        <ele>2335.1</ele>
        <time>2016-03-13T11:36:59Z</time>
      </trkpt>
      <trkpt lat="44.44919" lon="6.92762">
        <ele>2338.101</ele>
        <time>2016-03-13T11:37:20Z</time>
      </trkpt>
      <trkpt lat="44.44909" lon="6.92766">
        <ele>2341.119</ele>
        <time>2016-03-13T11:37:45Z</time>
      </trkpt>
      <trkpt lat="44.44902" lon="6.92766">
        <ele>2343.812</ele>
        <time>2016-03-13T11:38:08Z</time>
      </trkpt>
      <trkpt lat="44.44901" lon="6.92771">
        <ele>2344.921</ele>
        <time>2016-03-13T11:38:26Z</time>
      </trkpt>
      <trkpt lat="44.44896" lon="6.92777">
        <ele>2347.072</ele>
        <time>2016-03-13T11:38:45Z</time>
      </trkpt>
      <trkpt lat="44.44887" lon="6.92773">
        <ele>2349.949</ele>
        <time>2016-03-13T11:39:04Z</time>
      </trkpt>
      <trkpt lat="44.44883" lon="6.92782">
        <ele>2352.325</ele>
        <time>2016-03-13T11:39:26Z</time>
      </trkpt>
      <trkpt lat="44.44883" lon="6.9279">
        <ele>2353.532</ele>
        <time>2016-03-13T11:39:39Z</time>
      </trkpt>
      <trkpt lat="44.44885" lon="6.92801">
        <ele>2355.424</ele>
        <time>2016-03-13T11:39:58Z</time>
      </trkpt>
      <trkpt lat="44.44887" lon="6.92804">
        <ele>2356.476</ele>
        <time>2016-03-13T11:40:14Z</time>
      </trkpt>
      <trkpt lat="44.44881" lon="6.92806">
        <ele>2358.36</ele>
        <time>2016-03-13T11:40:28Z</time>
      </trkpt>
      <trkpt lat="44.44874" lon="6.92808">
        <ele>2360.051</ele>
        <time>2016-03-13T11:40:45Z</time>
      </trkpt>
      <trkpt lat="44.44869" lon="6.92809">
        <ele>2361.457</ele>
        <time>2016-03-13T11:41:01Z</time>
      </trkpt>
      <trkpt lat="44.44866" lon="6.92817">
        <ele>2364.075</ele>
        <time>2016-03-13T11:42:09Z</time>
      </trkpt>
      <trkpt lat="44.44866" lon="6.9282">
        <ele>2365.587</ele>
        <time>2016-03-13T11:42:33Z</time>
      </trkpt>
      <trkpt lat="44.44871" lon="6.92824">
        <ele>2366.393</ele>
        <time>2016-03-13T11:43:08Z</time>
      </trkpt>
      <trkpt lat="44.4487" lon="6.92828">
        <ele>2367.672</ele>
        <time>2016-03-13T11:43:20Z</time>
      </trkpt>
      <trkpt lat="44.44861" lon="6.92834">
        <ele>2370.544</ele>
        <time>2016-03-13T11:43:40Z</time>
      </trkpt>
      <trkpt lat="44.44863" lon="6.92837">
        <ele>2371.778</ele>
        <time>2016-03-13T11:43:58Z</time>
      </trkpt>
      <trkpt lat="44.44869" lon="6.92842">
        <ele>2374.404</ele>
        <time>2016-03-13T11:44:15Z</time>
      </trkpt>
      <trkpt lat="44.44872" lon="6.92847">
        <ele>2375.969</ele>
        <time>2016-03-13T11:44:32Z</time>
      </trkpt>
      <trkpt lat="44.44867" lon="6.92852">
        <ele>2377.715</ele>
        <time>2016-03-13T11:44:48Z</time>
      </trkpt>
      <trkpt lat="44.44864" lon="6.92857">
        <ele>2380.318</ele>
        <time>2016-03-13T11:45:03Z</time>
      </trkpt>
      <trkpt lat="44.44861" lon="6.92859">
        <ele>2380.257</ele>
        <time>2016-03-13T11:45:18Z</time>
      </trkpt>
      <trkpt lat="44.44863" lon="6.92861">
        <ele>2382.186</ele>
        <time>2016-03-13T11:45:31Z</time>
      </trkpt>
      <trkpt lat="44.44868" lon="6.92868">
        <ele>2383.985</ele>
        <time>2016-03-13T11:45:47Z</time>
      </trkpt>
      <trkpt lat="44.44872" lon="6.92873">
        <ele>2385.74</ele>
        <time>2016-03-13T11:46:00Z</time>
      </trkpt>
      <trkpt lat="44.44879" lon="6.92879">
        <ele>2387.666</ele>
        <time>2016-03-13T11:46:21Z</time>
      </trkpt>
      <trkpt lat="44.44876" lon="6.92883">
        <ele>2389.352</ele>
        <time>2016-03-13T11:46:34Z</time>
      </trkpt>
      <trkpt lat="44.4487" lon="6.92886">
        <ele>2391.077</ele>
        <time>2016-03-13T11:46:49Z</time>
      </trkpt>
      <trkpt lat="44.44865" lon="6.92888">
        <ele>2393.041</ele>
        <time>2016-03-13T11:47:03Z</time>
      </trkpt>
      <trkpt lat="44.44862" lon="6.9289">
        <ele>2394.008</ele>
        <time>2016-03-13T11:47:17Z</time>
      </trkpt>
      <trkpt lat="44.44864" lon="6.92898">
        <ele>2395.524</ele>
        <time>2016-03-13T11:47:33Z</time>
      </trkpt>
      <trkpt lat="44.4487" lon="6.92905">
        <ele>2397.202</ele>
        <time>2016-03-13T11:47:51Z</time>
      </trkpt>
      <trkpt lat="44.44877" lon="6.92911">
        <ele>2400.492</ele>
        <time>2016-03-13T11:48:11Z</time>
      </trkpt>
      <trkpt lat="44.44885" lon="6.92918">
        <ele>2402.41</ele>
        <time>2016-03-13T11:48:33Z</time>
      </trkpt>
      <trkpt lat="44.44891" lon="6.92926">
        <ele>2405.547</ele>
        <time>2016-03-13T11:48:52Z</time>
      </trkpt>
      <trkpt lat="44.44889" lon="6.92932">
        <ele>2407.801</ele>
        <time>2016-03-13T11:49:14Z</time>
      </trkpt>
      <trkpt lat="44.44884" lon="6.92935">
        <ele>2411.109</ele>
        <time>2016-03-13T11:49:27Z</time>
      </trkpt>
      <trkpt lat="44.44877" lon="6.92945">
        <ele>2412.723</ele>
        <time>2016-03-13T11:49:49Z</time>
      </trkpt>
      <trkpt lat="44.44868" lon="6.92956">
        <ele>2415.68</ele>
        <time>2016-03-13T11:50:13Z</time>
      </trkpt>
      <trkpt lat="44.44857" lon="6.92964">
        <ele>2416.784</ele>
        <time>2016-03-13T11:50:35Z</time>
      </trkpt>
      <trkpt lat="44.44855" lon="6.92966">
        <ele>2417.892</ele>
        <time>2016-03-13T11:51:45Z</time>
      </trkpt>
      <trkpt lat="44.44846" lon="6.92976">
        <ele>2419.517</ele>
        <time>2016-03-13T11:52:07Z</time>
      </trkpt>
      <trkpt lat="44.44835" lon="6.92982">
        <ele>2422.28</ele>
        <time>2016-03-13T11:52:29Z</time>
      </trkpt>
      <trkpt lat="44.44828" lon="6.92983">
        <ele>2424.035</ele>
        <time>2016-03-13T11:53:00Z</time>
      </trkpt>
      <trkpt lat="44.44819" lon="6.92983">
        <ele>2427.221</ele>
        <time>2016-03-13T11:53:18Z</time>
      </trkpt>
      <trkpt lat="44.44808" lon="6.92986">
        <ele>2429.951</ele>
        <time>2016-03-13T11:53:39Z</time>
      </trkpt>
      <trkpt lat="44.44798" lon="6.92991">
        <ele>2432.398</ele>
        <time>2016-03-13T11:53:57Z</time>
      </trkpt>
      <trkpt lat="44.44791" lon="6.92999">
        <ele>2433.597</ele>
        <time>2016-03-13T11:54:18Z</time>
      </trkpt>
      <trkpt lat="44.44785" lon="6.93006">
        <ele>2435.325</ele>
        <time>2016-03-13T11:54:35Z</time>
      </trkpt>
      <trkpt lat="44.44778" lon="6.93016">
        <ele>2437.711</ele>
        <time>2016-03-13T11:54:56Z</time>
      </trkpt>
      <trkpt lat="44.4478" lon="6.93018">
        <ele>2438.557</ele>
        <time>2016-03-13T11:55:13Z</time>
      </trkpt>
      <trkpt lat="44.44785" lon="6.93026">
        <ele>2441.857</ele>
        <time>2016-03-13T11:55:31Z</time>
      </trkpt>
      <trkpt lat="44.44777" lon="6.93037">
        <ele>2444.877</ele>
        <time>2016-03-13T11:55:54Z</time>
      </trkpt>
      <trkpt lat="44.44768" lon="6.93049">
        <ele>2447.44</ele>
        <time>2016-03-13T11:56:16Z</time>
      </trkpt>
      <trkpt lat="44.44761" lon="6.93061">
        <ele>2450.672</ele>
        <time>2016-03-13T11:56:38Z</time>
      </trkpt>
      <trkpt lat="44.44752" lon="6.93073">
        <ele>2453.074</ele>
        <time>2016-03-13T11:57:05Z</time>
      </trkpt>
      <trkpt lat="44.44743" lon="6.93083">
        <ele>2456.205</ele>
        <time>2016-03-13T11:57:30Z</time>
      </trkpt>
      <trkpt lat="44.44736" lon="6.9309">
        <ele>2458.53</ele>
        <time>2016-03-13T11:57:48Z</time>
      </trkpt>
      <trkpt lat="44.44722" lon="6.93096">
        <ele>2461.339</ele>
        <time>2016-03-13T11:58:18Z</time>
      </trkpt>
      <trkpt lat="44.44715" lon="6.93102">
        <ele>2462.938</ele>
        <time>2016-03-13T11:58:39Z</time>
      </trkpt>
      <trkpt lat="44.44713" lon="6.93115">
        <ele>2464.103</ele>
        <time>2016-03-13T11:58:56Z</time>
      </trkpt>
      <trkpt lat="44.44712" lon="6.93121">
        <ele>2467.036</ele>
        <time>2016-03-13T11:59:19Z</time>
      </trkpt>
      <trkpt lat="44.447" lon="6.93125">
        <ele>2468.463</ele>
        <time>2016-03-13T11:59:58Z</time>
      </trkpt>
      <trkpt lat="44.44694" lon="6.93134">
        <ele>2470.606</ele>
        <time>2016-03-13T12:00:14Z</time>
      </trkpt>
      <trkpt lat="44.44686" lon="6.93136">
        <ele>2473.634</ele>
        <time>2016-03-13T12:00:32Z</time>
      </trkpt>
      <trkpt lat="44.44685" lon="6.93134">
        <ele>2473.679</ele>
        <time>2016-03-13T12:00:46Z</time>
      </trkpt>
      <trkpt lat="44.44672" lon="6.93129">
        <ele>2476.773</ele>
        <time>2016-03-13T12:01:10Z</time>
      </trkpt>
      <trkpt lat="44.44667" lon="6.93139">
        <ele>2480.623</ele>
        <time>2016-03-13T12:02:28Z</time>
      </trkpt>
      <trkpt lat="44.44666" lon="6.93144">
        <ele>2482.179</ele>
        <time>2016-03-13T12:02:35Z</time>
      </trkpt>
      <trkpt lat="44.44662" lon="6.93153">
        <ele>2484.087</ele>
        <time>2016-03-13T12:02:50Z</time>
      </trkpt>
      <trkpt lat="44.44652" lon="6.93153">
        <ele>2486.386</ele>
        <time>2016-03-13T12:03:06Z</time>
      </trkpt>
      <trkpt lat="44.44647" lon="6.93149">
        <ele>2487.443</ele>
        <time>2016-03-13T12:03:18Z</time>
      </trkpt>
      <trkpt lat="44.44645" lon="6.9315">
        <ele>2489.372</ele>
        <time>2016-03-13T12:03:29Z</time>
      </trkpt>
      <trkpt lat="44.44644" lon="6.93154">
        <ele>2490.93</ele>
        <time>2016-03-13T12:03:42Z</time>
      </trkpt>
      <trkpt lat="44.44644" lon="6.9316">
        <ele>2492.836</ele>
        <time>2016-03-13T12:03:56Z</time>
      </trkpt>
      <trkpt lat="44.44642" lon="6.93164">
        <ele>2493.613</ele>
        <time>2016-03-13T12:04:10Z</time>
      </trkpt>
      <trkpt lat="44.44636" lon="6.93162">
        <ele>2494.669</ele>
        <time>2016-03-13T12:04:24Z</time>
      </trkpt>
      <trkpt lat="44.4463" lon="6.93158">
        <ele>2496.627</ele>
        <time>2016-03-13T12:04:39Z</time>
      </trkpt>
      <trkpt lat="44.44622" lon="6.9315">
        <ele>2499.848</ele>
        <time>2016-03-13T12:04:59Z</time>
      </trkpt>
      <trkpt lat="44.44621" lon="6.93158">
        <ele>2503.326</ele>
        <time>2016-03-13T12:05:32Z</time>
      </trkpt>
      <trkpt lat="44.44621" lon="6.93163">
        <ele>2503.846</ele>
        <time>2016-03-13T12:05:46Z</time>
      </trkpt>
      <trkpt lat="44.44616" lon="6.93161">
        <ele>2505.421</ele>
        <time>2016-03-13T12:06:32Z</time>
      </trkpt>
      <trkpt lat="44.44609" lon="6.93155">
        <ele>2510.7</ele>
        <time>2016-03-13T12:07:05Z</time>
      </trkpt>
      <trkpt lat="44.44607" lon="6.93166">
        <ele>2513.903</ele>
        <time>2016-03-13T12:07:26Z</time>
      </trkpt>
      <trkpt lat="44.44606" lon="6.93175">
        <ele>2515.454</ele>
        <time>2016-03-13T12:07:48Z</time>
      </trkpt>
      <trkpt lat="44.44599" lon="6.93171">
        <ele>2517.153</ele>
        <time>2016-03-13T12:08:07Z</time>
      </trkpt>
      <trkpt lat="44.44596" lon="6.93168">
        <ele>2519.771</ele>
        <time>2016-03-13T12:08:32Z</time>
      </trkpt>
      <trkpt lat="44.44595" lon="6.93173">
        <ele>2521.106</ele>
        <time>2016-03-13T12:08:45Z</time>
      </trkpt>
      <trkpt lat="44.44593" lon="6.93178">
        <ele>2522.152</ele>
        <time>2016-03-13T12:08:59Z</time>
      </trkpt>
      <trkpt lat="44.44587" lon="6.93172">
        <ele>2524.337</ele>
        <time>2016-03-13T12:09:15Z</time>
      </trkpt>
      <trkpt lat="44.44583" lon="6.93168">
        <ele>2525.489</ele>
        <time>2016-03-13T12:09:27Z</time>
      </trkpt>
      <trkpt lat="44.44584" lon="6.93178">
        <ele>2527.63</ele>
        <time>2016-03-13T12:10:16Z</time>
      </trkpt>
      <trkpt lat="44.44586" lon="6.93194">
        <ele>2530.539</ele>
        <time>2016-03-13T12:10:39Z</time>
      </trkpt>
      <trkpt lat="44.44591" lon="6.93205">
        <ele>2533.636</ele>
        <time>2016-03-13T12:10:57Z</time>
      </trkpt>
      <trkpt lat="44.44588" lon="6.93205">
        <ele>2533.358</ele>
        <time>2016-03-13T12:11:15Z</time>
      </trkpt>
      <trkpt lat="44.44577" lon="6.93205">
        <ele>2536.577</ele>
        <time>2016-03-13T12:11:38Z</time>
      </trkpt>
      <trkpt lat="44.44572" lon="6.93204">
        <ele>2538.001</ele>
        <time>2016-03-13T12:11:54Z</time>
      </trkpt>
      <trkpt lat="44.44575" lon="6.9321">
        <ele>2538.719</ele>
        <time>2016-03-13T12:12:10Z</time>
      </trkpt>
      <trkpt lat="44.44581" lon="6.93221">
        <ele>2542.157</ele>
        <time>2016-03-13T12:12:31Z</time>
      </trkpt>
      <trkpt lat="44.44591" lon="6.9324">
        <ele>2545.523</ele>
        <time>2016-03-13T12:13:01Z</time>
      </trkpt>
      <trkpt lat="44.44596" lon="6.93257">
        <ele>2548.818</ele>
        <time>2016-03-13T12:13:27Z</time>
      </trkpt>
      <trkpt lat="44.446" lon="6.93276">
        <ele>2552.002</ele>
        <time>2016-03-13T12:13:53Z</time>
      </trkpt>
      <trkpt lat="44.44604" lon="6.93299">
        <ele>2555.044</ele>
        <time>2016-03-13T12:14:22Z</time>
      </trkpt>
      <trkpt lat="44.44607" lon="6.93314">
        <ele>2558.825</ele>
        <time>2016-03-13T12:14:44Z</time>
      </trkpt>
      <trkpt lat="44.4461" lon="6.93322">
        <ele>2541.053</ele>
        <time>2016-03-13T12:21:28Z</time>
      </trkpt>
      <trkpt lat="44.44612" lon="6.93335">
        <ele>2543.547</ele>
        <time>2016-03-13T12:26:46Z</time>
      </trkpt>
      <trkpt lat="44.44613" lon="6.93353">
        <ele>2546.573</ele>
        <time>2016-03-13T12:27:13Z</time>
      </trkpt>
      <trkpt lat="44.44613" lon="6.93369">
        <ele>2549.659</ele>
        <time>2016-03-13T12:27:41Z</time>
      </trkpt>
      <trkpt lat="44.44616" lon="6.93389">
        <ele>2552.874</ele>
        <time>2016-03-13T12:28:11Z</time>
      </trkpt>
      <trkpt lat="44.4462" lon="6.93404">
        <ele>2556.143</ele>
        <time>2016-03-13T12:28:35Z</time>
      </trkpt>
      <trkpt lat="44.44615" lon="6.93422">
        <ele>2559.097</ele>
        <time>2016-03-13T12:29:03Z</time>
      </trkpt>
      <trkpt lat="44.44606" lon="6.93429">
        <ele>2561.317</ele>
        <time>2016-03-13T12:29:24Z</time>
      </trkpt>
      <trkpt lat="44.44599" lon="6.93426">
        <ele>2564.205</ele>
        <time>2016-03-13T12:29:46Z</time>
      </trkpt>
      <trkpt lat="44.44596" lon="6.9343">
        <ele>2566.511</ele>
        <time>2016-03-13T12:30:04Z</time>
      </trkpt>
      <trkpt lat="44.44594" lon="6.93441">
        <ele>2569.138</ele>
        <time>2016-03-13T12:30:28Z</time>
      </trkpt>
      <trkpt lat="44.44591" lon="6.93452">
        <ele>2571.339</ele>
        <time>2016-03-13T12:30:48Z</time>
      </trkpt>
      <trkpt lat="44.44584" lon="6.93468">
        <ele>2574.327</ele>
        <time>2016-03-13T12:31:14Z</time>
      </trkpt>
      <trkpt lat="44.44581" lon="6.93482">
        <ele>2577.115</ele>
        <time>2016-03-13T12:31:39Z</time>
      </trkpt>
      <trkpt lat="44.44578" lon="6.93495">
        <ele>2580.162</ele>
        <time>2016-03-13T12:32:01Z</time>
      </trkpt>
      <trkpt lat="44.44571" lon="6.93508">
        <ele>2583.298</ele>
        <time>2016-03-13T12:32:28Z</time>
      </trkpt>
      <trkpt lat="44.44568" lon="6.93521">
        <ele>2586.287</ele>
        <time>2016-03-13T12:32:50Z</time>
      </trkpt>
      <trkpt lat="44.44566" lon="6.9354">
        <ele>2589.323</ele>
        <time>2016-03-13T12:33:19Z</time>
      </trkpt>
      <trkpt lat="44.44559" lon="6.9354">
        <ele>2590.913</ele>
        <time>2016-03-13T12:33:35Z</time>
      </trkpt>
      <trkpt lat="44.44552" lon="6.9354">
        <ele>2592.81</ele>
        <time>2016-03-13T12:33:53Z</time>
      </trkpt>
      <trkpt lat="44.44552" lon="6.93545">
        <ele>2594.808</ele>
        <time>2016-03-13T12:34:08Z</time>
      </trkpt>
      <trkpt lat="44.44552" lon="6.93561">
        <ele>2597.892</ele>
        <time>2016-03-13T12:34:36Z</time>
      </trkpt>
      <trkpt lat="44.44546" lon="6.93568">
        <ele>2600.021</ele>
        <time>2016-03-13T12:34:56Z</time>
      </trkpt>
      <trkpt lat="44.44537" lon="6.93573">
        <ele>2602.627</ele>
        <time>2016-03-13T12:35:19Z</time>
      </trkpt>
      <trkpt lat="44.44533" lon="6.93574">
        <ele>2604.416</ele>
        <time>2016-03-13T12:35:34Z</time>
      </trkpt>
      <trkpt lat="44.44528" lon="6.93577">
        <ele>2606.397</ele>
        <time>2016-03-13T12:35:51Z</time>
      </trkpt>
      <trkpt lat="44.44519" lon="6.93579">
        <ele>2609</ele>
        <time>2016-03-13T12:36:11Z</time>
      </trkpt>
      <trkpt lat="44.44519" lon="6.9359">
        <ele>2611.439</ele>
        <time>2016-03-13T12:36:32Z</time>
      </trkpt>
      <trkpt lat="44.44523" lon="6.93609">
        <ele>2614.409</ele>
        <time>2016-03-13T12:37:01Z</time>
      </trkpt>
      <trkpt lat="44.44519" lon="6.93618">
        <ele>2616.604</ele>
        <time>2016-03-13T12:37:19Z</time>
      </trkpt>
      <trkpt lat="44.44511" lon="6.93622">
        <ele>2618.42</ele>
        <time>2016-03-13T12:37:37Z</time>
      </trkpt>
      <trkpt lat="44.4451" lon="6.9363">
        <ele>2620.56</ele>
        <time>2016-03-13T12:37:53Z</time>
      </trkpt>
      <trkpt lat="44.44516" lon="6.93642">
        <ele>2623.374</ele>
        <time>2016-03-13T12:38:18Z</time>
      </trkpt>
      <trkpt lat="44.44512" lon="6.93659">
        <ele>2625.617</ele>
        <time>2016-03-13T12:38:43Z</time>
      </trkpt>
      <trkpt lat="44.44511" lon="6.93672">
        <ele>2627.2</ele>
        <time>2016-03-13T12:39:05Z</time>
      </trkpt>
      <trkpt lat="44.44509" lon="6.93683">
        <ele>2628.368</ele>
        <time>2016-03-13T12:39:23Z</time>
      </trkpt>
      <trkpt lat="44.44506" lon="6.93703">
        <ele>2630.382</ele>
        <time>2016-03-13T12:39:48Z</time>
      </trkpt>
      <trkpt lat="44.44504" lon="6.93713">
        <ele>2632.189</ele>
        <time>2016-03-13T12:40:05Z</time>
      </trkpt>
      <trkpt lat="44.44502" lon="6.93719">
        <ele>2633.312</ele>
        <time>2016-03-13T12:40:16Z</time>
      </trkpt>
      <trkpt lat="44.44498" lon="6.93732">
        <ele>2635.891</ele>
        <time>2016-03-13T12:40:38Z</time>
      </trkpt>
      <trkpt lat="44.44494" lon="6.93755">
        <ele>2638.48</ele>
        <time>2016-03-13T12:41:04Z</time>
      </trkpt>
      <trkpt lat="44.44491" lon="6.93765">
        <ele>2639.926</ele>
        <time>2016-03-13T12:41:22Z</time>
      </trkpt>
      <trkpt lat="44.44489" lon="6.93772">
        <ele>2641.096</ele>
        <time>2016-03-13T12:41:45Z</time>
      </trkpt>
      <trkpt lat="44.44486" lon="6.93784">
        <ele>2642.515</ele>
        <time>2016-03-13T12:42:02Z</time>
      </trkpt>
      <trkpt lat="44.44483" lon="6.93795">
        <ele>2643.501</ele>
        <time>2016-03-13T12:42:15Z</time>
      </trkpt>
      <trkpt lat="44.4448" lon="6.93806">
        <ele>2645.234</ele>
        <time>2016-03-13T12:42:31Z</time>
      </trkpt>
      <trkpt lat="44.44476" lon="6.93819">
        <ele>2646.867</ele>
        <time>2016-03-13T12:42:48Z</time>
      </trkpt>
      <trkpt lat="44.44472" lon="6.93837">
        <ele>2648.878</ele>
        <time>2016-03-13T12:43:10Z</time>
      </trkpt>
      <trkpt lat="44.44467" lon="6.93852">
        <ele>2651.901</ele>
        <time>2016-03-13T12:43:33Z</time>
      </trkpt>
      <trkpt lat="44.44461" lon="6.93867">
        <ele>2655.005</ele>
        <time>2016-03-13T12:43:59Z</time>
      </trkpt>
      <trkpt lat="44.44457" lon="6.93882">
        <ele>2657.738</ele>
        <time>2016-03-13T12:44:24Z</time>
      </trkpt>
      <trkpt lat="44.44457" lon="6.93888">
        <ele>2658.94</ele>
        <time>2016-03-13T12:44:32Z</time>
      </trkpt>
      <trkpt lat="44.44458" lon="6.93894">
        <ele>2660.06</ele>
        <time>2016-03-13T12:44:49Z</time>
      </trkpt>
      <trkpt lat="44.4446" lon="6.93893">
        <ele>2659.141</ele>
        <time>2016-03-13T12:45:06Z</time>
      </trkpt>
      <trkpt lat="44.44466" lon="6.93891">
        <ele>2661.904</ele>
        <time>2016-03-13T12:46:54Z</time>
      </trkpt>
      <trkpt lat="44.44476" lon="6.93892">
        <ele>2664.325</ele>
        <time>2016-03-13T12:47:16Z</time>
      </trkpt>
      <trkpt lat="44.44477" lon="6.93896">
        <ele>2665.651</ele>
        <time>2016-03-13T12:47:36Z</time>
      </trkpt>
      <trkpt lat="44.44475" lon="6.93901">
        <ele>2668.605</ele>
        <time>2016-03-13T12:48:28Z</time>
      </trkpt>
      <trkpt lat="44.44482" lon="6.939">
        <ele>2670.442</ele>
        <time>2016-03-13T12:48:43Z</time>
      </trkpt>
      <trkpt lat="44.4449" lon="6.939">
        <ele>2672.49</ele>
        <time>2016-03-13T12:48:57Z</time>
      </trkpt>
      <trkpt lat="44.44495" lon="6.93901">
        <ele>2673.198</ele>
        <time>2016-03-13T12:49:13Z</time>
      </trkpt>
      <trkpt lat="44.44496" lon="6.93904">
        <ele>2673.861</ele>
        <time>2016-03-13T12:49:36Z</time>
      </trkpt>
      <trkpt lat="44.44495" lon="6.9391">
        <ele>2685.144</ele>
        <time>2016-03-13T12:56:26Z</time>
      </trkpt>
      <trkpt lat="44.44502" lon="6.9391">
        <ele>2684.288</ele>
        <time>2016-03-13T12:57:53Z</time>
      </trkpt>
      <trkpt lat="44.44504" lon="6.93912">
        <ele>2685.556</ele>
        <time>2016-03-13T12:57:55Z</time>
      </trkpt>
      <trkpt lat="44.44507" lon="6.93924">
        <ele>2683.701</ele>
        <time>2016-03-13T13:01:56Z</time>
      </trkpt>
      <trkpt lat="44.44501" lon="6.93928">
        <ele>2689.469</ele>
        <time>2016-03-13T13:03:13Z</time>
      </trkpt>
      <trkpt lat="44.44498" lon="6.93934">
        <ele>2690.632</ele>
        <time>2016-03-13T13:03:31Z</time>
      </trkpt>
      <trkpt lat="44.44491" lon="6.93942">
        <ele>2692.909</ele>
        <time>2016-03-13T13:03:51Z</time>
      </trkpt>
      <trkpt lat="44.44489" lon="6.93946">
        <ele>2693.673</ele>
        <time>2016-03-13T13:04:02Z</time>
      </trkpt>
      <trkpt lat="44.44493" lon="6.93947">
        <ele>2695.861</ele>
        <time>2016-03-13T13:04:45Z</time>
      </trkpt>
      <trkpt lat="44.44498" lon="6.93948">
        <ele>2697.052</ele>
        <time>2016-03-13T13:04:59Z</time>
      </trkpt>
      <trkpt lat="44.44505" lon="6.93948">
        <ele>2699.615</ele>
        <time>2016-03-13T13:05:18Z</time>
      </trkpt>
      <trkpt lat="44.44509" lon="6.93947">
        <ele>2701.066</ele>
        <time>2016-03-13T13:05:30Z</time>
      </trkpt>
      <trkpt lat="44.44505" lon="6.93953">
        <ele>2702.609</ele>
        <time>2016-03-13T13:06:05Z</time>
      </trkpt>
      <trkpt lat="44.44501" lon="6.93959">
        <ele>2704.126</ele>
        <time>2016-03-13T13:06:20Z</time>
      </trkpt>
      <trkpt lat="44.44499" lon="6.93961">
        <ele>2704.787</ele>
        <time>2016-03-13T13:06:37Z</time>
      </trkpt>
      <trkpt lat="44.44496" lon="6.93965">
        <ele>2706.058</ele>
        <time>2016-03-13T13:06:55Z</time>
      </trkpt>
      <trkpt lat="44.44498" lon="6.93966">
        <ele>2707.21</ele>
        <time>2016-03-13T13:07:37Z</time>
      </trkpt>
      <trkpt lat="44.44502" lon="6.93966">
        <ele>2708.724</ele>
        <time>2016-03-13T13:07:51Z</time>
      </trkpt>
      <trkpt lat="44.44504" lon="6.93966">
        <ele>2709.456</ele>
        <time>2016-03-13T13:08:03Z</time>
      </trkpt>
      <trkpt lat="44.44505" lon="6.93971">
        <ele>2711.76</ele>
        <time>2016-03-13T13:09:01Z</time>
      </trkpt>
      <trkpt lat="44.44503" lon="6.93978">
        <ele>2713.538</ele>
        <time>2016-03-13T13:09:17Z</time>
      </trkpt>
      <trkpt lat="44.44496" lon="6.93983">
        <ele>2715.966</ele>
        <time>2016-03-13T13:09:35Z</time>
      </trkpt>
      <trkpt lat="44.44493" lon="6.93984">
        <ele>2716.788</ele>
        <time>2016-03-13T13:09:54Z</time>
      </trkpt>
      <trkpt lat="44.44498" lon="6.93985">
        <ele>2719.145</ele>
        <time>2016-03-13T13:10:25Z</time>
      </trkpt>
      <trkpt lat="44.445" lon="6.93985">
        <ele>2720.07</ele>
        <time>2016-03-13T13:10:44Z</time>
      </trkpt>
      <trkpt lat="44.44502" lon="6.9399">
        <ele>2720.442</ele>
        <time>2016-03-13T13:11:36Z</time>
      </trkpt>
      <trkpt lat="44.44498" lon="6.93994">
        <ele>2721.478</ele>
        <time>2016-03-13T13:11:50Z</time>
      </trkpt>
      <trkpt lat="44.44494" lon="6.94">
        <ele>2723.759</ele>
        <time>2016-03-13T13:12:09Z</time>
      </trkpt>
      <trkpt lat="44.44489" lon="6.94003">
        <ele>2725.552</ele>
        <time>2016-03-13T13:12:29Z</time>
      </trkpt>
      <trkpt lat="44.44492" lon="6.94005">
        <ele>2727.106</ele>
        <time>2016-03-13T13:13:05Z</time>
      </trkpt>
      <trkpt lat="44.44494" lon="6.94005">
        <ele>2727.648</ele>
        <time>2016-03-13T13:13:18Z</time>
      </trkpt>
      <trkpt lat="44.44497" lon="6.94007">
        <ele>2727.74</ele>
        <time>2016-03-13T13:13:31Z</time>
      </trkpt>
      <trkpt lat="44.44495" lon="6.94008">
        <ele>2729.003</ele>
        <time>2016-03-13T13:13:51Z</time>
      </trkpt>
      <trkpt lat="44.44493" lon="6.9401">
        <ele>2729.262</ele>
        <time>2016-03-13T13:14:25Z</time>
      </trkpt>
      <trkpt lat="44.4449" lon="6.94013">
        <ele>2730.364</ele>
        <time>2016-03-13T13:15:11Z</time>
      </trkpt>
      <trkpt lat="44.44483" lon="6.9402">
        <ele>2732.188</ele>
        <time>2016-03-13T13:15:28Z</time>
      </trkpt>
      <trkpt lat="44.44488" lon="6.94024">
        <ele>2733.937</ele>
        <time>2016-03-13T13:16:05Z</time>
      </trkpt>
      <trkpt lat="44.4449" lon="6.94028">
        <ele>2735.453</ele>
        <time>2016-03-13T13:16:24Z</time>
      </trkpt>
      <trkpt lat="44.44483" lon="6.94031">
        <ele>2736.257</ele>
        <time>2016-03-13T13:16:40Z</time>
      </trkpt>
      <trkpt lat="44.44476" lon="6.94033">
        <ele>2737.707</ele>
        <time>2016-03-13T13:16:52Z</time>
      </trkpt>
      <trkpt lat="44.44473" lon="6.94034">
        <ele>2738.381</ele>
        <time>2016-03-13T13:17:40Z</time>
      </trkpt>
      <trkpt lat="44.44476" lon="6.94036">
        <ele>2738.841</ele>
        <time>2016-03-13T13:41:03Z</time>
      </trkpt>
      <trkpt lat="44.44477" lon="6.94042">
        <ele>2738.624</ele>
        <time>2016-03-13T13:42:00Z</time>
      </trkpt>
      <trkpt lat="44.44479" lon="6.94055">
        <ele>2735.905</ele>
        <time>2016-03-13T13:42:10Z</time>
      </trkpt>
      <trkpt lat="44.44475" lon="6.94055">
        <ele>2733.849</ele>
        <time>2016-03-13T13:42:14Z</time>
      </trkpt>
      <trkpt lat="44.44471" lon="6.94054">
        <ele>2732.203</ele>
        <time>2016-03-13T13:42:23Z</time>
      </trkpt>
      <trkpt lat="44.44471" lon="6.94062">
        <ele>2730.406</ele>
        <time>2016-03-13T13:42:28Z</time>
      </trkpt>
      <trkpt lat="44.44473" lon="6.94067">
        <ele>2728.781</ele>
        <time>2016-03-13T13:42:43Z</time>
      </trkpt>
      <trkpt lat="44.44468" lon="6.94066">
        <ele>2726.998</ele>
        <time>2016-03-13T13:42:56Z</time>
      </trkpt>
      <trkpt lat="44.4446" lon="6.94062">
        <ele>2724.834</ele>
        <time>2016-03-13T13:43:58Z</time>
      </trkpt>
      <trkpt lat="44.44439" lon="6.9406">
        <ele>2721.983</ele>
        <time>2016-03-13T13:44:10Z</time>
      </trkpt>
      <trkpt lat="44.44436" lon="6.94061">
        <ele>2720.165</ele>
        <time>2016-03-13T13:44:12Z</time>
      </trkpt>
      <trkpt lat="44.4442" lon="6.94067">
        <ele>2716.643</ele>
        <time>2016-03-13T13:44:20Z</time>
      </trkpt>
      <trkpt lat="44.44415" lon="6.9407">
        <ele>2716.643</ele>
        <time>2016-03-13T13:44:21Z</time>
      </trkpt>
      <trkpt lat="44.44406" lon="6.94076">
        <ele>2712.629</ele>
        <time>2016-03-13T13:44:23Z</time>
      </trkpt>
      <trkpt lat="44.44402" lon="6.94078">
        <ele>2712.629</ele>
        <time>2016-03-13T13:44:24Z</time>
      </trkpt>
      <trkpt lat="44.44399" lon="6.94079">
        <ele>2711.252</ele>
        <time>2016-03-13T13:44:26Z</time>
      </trkpt>
      <trkpt lat="44.44407" lon="6.94084">
        <ele>2708.925</ele>
        <time>2016-03-13T13:44:37Z</time>
      </trkpt>
      <trkpt lat="44.44412" lon="6.94086">
        <ele>2706.945</ele>
        <time>2016-03-13T13:44:38Z</time>
      </trkpt>
      <trkpt lat="44.44421" lon="6.94088">
        <ele>2703.719</ele>
        <time>2016-03-13T13:44:40Z</time>
      </trkpt>
      <trkpt lat="44.44425" lon="6.94091">
        <ele>2699.507</ele>
        <time>2016-03-13T13:45:02Z</time>
      </trkpt>
      <trkpt lat="44.4443" lon="6.94095">
        <ele>2697.99</ele>
        <time>2016-03-13T13:45:14Z</time>
      </trkpt>
      <trkpt lat="44.44436" lon="6.94102">
        <ele>2696.994</ele>
        <time>2016-03-13T13:45:24Z</time>
      </trkpt>
      <trkpt lat="44.44442" lon="6.94117">
        <ele>2694.735</ele>
        <time>2016-03-13T13:45:31Z</time>
      </trkpt>
      <trkpt lat="44.44448" lon="6.94131">
        <ele>2691.802</ele>
        <time>2016-03-13T13:45:42Z</time>
      </trkpt>
      <trkpt lat="44.4445" lon="6.94138">
        <ele>2690.302</ele>
        <time>2016-03-13T13:45:50Z</time>
      </trkpt>
      <trkpt lat="44.44444" lon="6.94139">
        <ele>2688.055</ele>
        <time>2016-03-13T13:45:54Z</time>
      </trkpt>
      <trkpt lat="44.44437" lon="6.94136">
        <ele>2684.779</ele>
        <time>2016-03-13T13:46:00Z</time>
      </trkpt>
      <trkpt lat="44.44433" lon="6.94137">
        <ele>2683.135</ele>
        <time>2016-03-13T13:46:03Z</time>
      </trkpt>
      <trkpt lat="44.44425" lon="6.94134">
        <ele>2679.658</ele>
        <time>2016-03-13T13:46:07Z</time>
      </trkpt>
      <trkpt lat="44.44417" lon="6.94137">
        <ele>2677.106</ele>
        <time>2016-03-13T13:46:12Z</time>
      </trkpt>
      <trkpt lat="44.44414" lon="6.94138">
        <ele>2676.028</ele>
        <time>2016-03-13T13:46:13Z</time>
      </trkpt>
      <trkpt lat="44.44412" lon="6.94139">
        <ele>2674.13</ele>
        <time>2016-03-13T13:46:15Z</time>
      </trkpt>
      <trkpt lat="44.44408" lon="6.94141">
        <ele>2672.278</ele>
        <time>2016-03-13T13:47:19Z</time>
      </trkpt>
      <trkpt lat="44.44409" lon="6.94143">
        <ele>2669.667</ele>
        <time>2016-03-13T13:52:40Z</time>
      </trkpt>
      <trkpt lat="44.44408" lon="6.94141">
        <ele>2670.714</ele>
        <time>2016-03-13T13:55:05Z</time>
      </trkpt>
      <trkpt lat="44.44416" lon="6.94149">
        <ele>2668.917</ele>
        <time>2016-03-13T13:57:06Z</time>
      </trkpt>
      <trkpt lat="44.44417" lon="6.94153">
        <ele>2667.633</ele>
        <time>2016-03-13T13:57:08Z</time>
      </trkpt>
      <trkpt lat="44.44414" lon="6.94155">
        <ele>2666.986</ele>
        <time>2016-03-13T13:57:10Z</time>
      </trkpt>
      <trkpt lat="44.44415" lon="6.94164">
        <ele>2662.758</ele>
        <time>2016-03-13T13:57:15Z</time>
      </trkpt>
      <trkpt lat="44.44416" lon="6.94172">
        <ele>2661.828</ele>
        <time>2016-03-13T13:57:19Z</time>
      </trkpt>
      <trkpt lat="44.44411" lon="6.94176">
        <ele>2658.792</ele>
        <time>2016-03-13T13:57:22Z</time>
      </trkpt>
      <trkpt lat="44.44408" lon="6.94182">
        <ele>2656.284</ele>
        <time>2016-03-13T13:57:27Z</time>
      </trkpt>
      <trkpt lat="44.4441" lon="6.94185">
        <ele>2654.799</ele>
        <time>2016-03-13T13:57:29Z</time>
      </trkpt>
      <trkpt lat="44.44406" lon="6.9419">
        <ele>2652.574</ele>
        <time>2016-03-13T13:57:33Z</time>
      </trkpt>
      <trkpt lat="44.44404" lon="6.94192">
        <ele>2652.21</ele>
        <time>2016-03-13T13:57:35Z</time>
      </trkpt>
      <trkpt lat="44.44398" lon="6.94193">
        <ele>2650.746</ele>
        <time>2016-03-13T13:57:38Z</time>
      </trkpt>
      <trkpt lat="44.444" lon="6.942">
        <ele>2648.225</ele>
        <time>2016-03-13T13:57:45Z</time>
      </trkpt>
      <trkpt lat="44.44403" lon="6.94203">
        <ele>2647.15</ele>
        <time>2016-03-13T13:58:01Z</time>
      </trkpt>
      <trkpt lat="44.44413" lon="6.94211">
        <ele>2645.593</ele>
        <time>2016-03-13T13:58:13Z</time>
      </trkpt>
      <trkpt lat="44.44409" lon="6.94216">
        <ele>2644.587</ele>
        <time>2016-03-13T13:58:15Z</time>
      </trkpt>
      <trkpt lat="44.44405" lon="6.94218">
        <ele>2643.213</ele>
        <time>2016-03-13T13:58:17Z</time>
      </trkpt>
      <trkpt lat="44.44397" lon="6.9422">
        <ele>2640.879</ele>
        <time>2016-03-13T13:58:22Z</time>
      </trkpt>
      <trkpt lat="44.44398" lon="6.94223">
        <ele>2639.244</ele>
        <time>2016-03-13T13:58:26Z</time>
      </trkpt>
      <trkpt lat="44.44404" lon="6.94231">
        <ele>2636.845</ele>
        <time>2016-03-13T13:58:33Z</time>
      </trkpt>
      <trkpt lat="44.44403" lon="6.94239">
        <ele>2634.715</ele>
        <time>2016-03-13T13:58:36Z</time>
      </trkpt>
      <trkpt lat="44.44397" lon="6.9424">
        <ele>2632.62</ele>
        <time>2016-03-13T13:58:38Z</time>
      </trkpt>
      <trkpt lat="44.44394" lon="6.94244">
        <ele>2627.969</ele>
        <time>2016-03-13T14:02:33Z</time>
      </trkpt>
      <trkpt lat="44.44395" lon="6.9426">
        <ele>2623.527</ele>
        <time>2016-03-13T14:02:38Z</time>
      </trkpt>
      <trkpt lat="44.44389" lon="6.94271">
        <ele>2620.457</ele>
        <time>2016-03-13T14:02:42Z</time>
      </trkpt>
      <trkpt lat="44.44389" lon="6.94276">
        <ele>2620.457</ele>
        <time>2016-03-13T14:02:43Z</time>
      </trkpt>
      <trkpt lat="44.44388" lon="6.94287">
        <ele>2618.129</ele>
        <time>2016-03-13T14:02:46Z</time>
      </trkpt>
      <trkpt lat="44.44386" lon="6.94288">
        <ele>2616.388</ele>
        <time>2016-03-13T14:02:47Z</time>
      </trkpt>
      <trkpt lat="44.44382" lon="6.94287">
        <ele>2614.763</ele>
        <time>2016-03-13T14:02:50Z</time>
      </trkpt>
      <trkpt lat="44.44384" lon="6.94292">
        <ele>2614.266</ele>
        <time>2016-03-13T14:03:18Z</time>
      </trkpt>
      <trkpt lat="44.44383" lon="6.94305">
        <ele>2613.31</ele>
        <time>2016-03-13T14:03:23Z</time>
      </trkpt>
      <trkpt lat="44.44379" lon="6.9432">
        <ele>2610.651</ele>
        <time>2016-03-13T14:03:27Z</time>
      </trkpt>
      <trkpt lat="44.44377" lon="6.94325">
        <ele>2608.942</ele>
        <time>2016-03-13T14:03:28Z</time>
      </trkpt>
      <trkpt lat="44.44374" lon="6.94342">
        <ele>2602.841</ele>
        <time>2016-03-13T14:03:33Z</time>
      </trkpt>
      <trkpt lat="44.44376" lon="6.94346">
        <ele>2602.841</ele>
        <time>2016-03-13T14:03:34Z</time>
      </trkpt>
      <trkpt lat="44.44373" lon="6.9435">
        <ele>2599.535</ele>
        <time>2016-03-13T14:03:36Z</time>
      </trkpt>
      <trkpt lat="44.44372" lon="6.94353">
        <ele>2598.676</ele>
        <time>2016-03-13T14:03:39Z</time>
      </trkpt>
      <trkpt lat="44.4437" lon="6.94356">
        <ele>2598.779</ele>
        <time>2016-03-13T14:03:41Z</time>
      </trkpt>
      <trkpt lat="44.4437" lon="6.94366">
        <ele>2597.25</ele>
        <time>2016-03-13T14:03:44Z</time>
      </trkpt>
      <trkpt lat="44.44368" lon="6.94373">
        <ele>2595.812</ele>
        <time>2016-03-13T14:03:46Z</time>
      </trkpt>
      <trkpt lat="44.44362" lon="6.94382">
        <ele>2592.969</ele>
        <time>2016-03-13T14:03:51Z</time>
      </trkpt>
      <trkpt lat="44.44358" lon="6.94393">
        <ele>2588.474</ele>
        <time>2016-03-13T14:03:57Z</time>
      </trkpt>
      <trkpt lat="44.4436" lon="6.94405">
        <ele>2586.577</ele>
        <time>2016-03-13T14:04:00Z</time>
      </trkpt>
      <trkpt lat="44.44364" lon="6.94413">
        <ele>2585.832</ele>
        <time>2016-03-13T14:04:02Z</time>
      </trkpt>
      <trkpt lat="44.44364" lon="6.94425">
        <ele>2583.031</ele>
        <time>2016-03-13T14:04:07Z</time>
      </trkpt>
      <trkpt lat="44.44356" lon="6.94427">
        <ele>2581.155</ele>
        <time>2016-03-13T14:04:11Z</time>
      </trkpt>
      <trkpt lat="44.44355" lon="6.94425">
        <ele>2577.345</ele>
        <time>2016-03-13T14:04:14Z</time>
      </trkpt>
      <trkpt lat="44.44353" lon="6.94425">
        <ele>2577.345</ele>
        <time>2016-03-13T14:04:22Z</time>
      </trkpt>
      <trkpt lat="44.44349" lon="6.94434">
        <ele>2575.77</ele>
        <time>2016-03-13T14:04:26Z</time>
      </trkpt>
      <trkpt lat="44.44349" lon="6.94445">
        <ele>2574.716</ele>
        <time>2016-03-13T14:04:28Z</time>
      </trkpt>
      <trkpt lat="44.44348" lon="6.94449">
        <ele>2573.548</ele>
        <time>2016-03-13T14:04:29Z</time>
      </trkpt>
      <trkpt lat="44.44335" lon="6.94452">
        <ele>2569.886</ele>
        <time>2016-03-13T14:04:33Z</time>
      </trkpt>
      <trkpt lat="44.44334" lon="6.94457">
        <ele>2565.896</ele>
        <time>2016-03-13T14:05:07Z</time>
      </trkpt>
      <trkpt lat="44.44337" lon="6.94461">
        <ele>2564.812</ele>
        <time>2016-03-13T14:06:04Z</time>
      </trkpt>
      <trkpt lat="44.44332" lon="6.94464">
        <ele>2563.208</ele>
        <time>2016-03-13T14:07:31Z</time>
      </trkpt>
      <trkpt lat="44.44332" lon="6.94473">
        <ele>2561.01</ele>
        <time>2016-03-13T14:07:37Z</time>
      </trkpt>
      <trkpt lat="44.44334" lon="6.94476">
        <ele>2560.915</ele>
        <time>2016-03-13T14:07:42Z</time>
      </trkpt>
      <trkpt lat="44.44326" lon="6.94481">
        <ele>2557.8</ele>
        <time>2016-03-13T14:07:47Z</time>
      </trkpt>
      <trkpt lat="44.44327" lon="6.94486">
        <ele>2557.609</ele>
        <time>2016-03-13T14:07:49Z</time>
      </trkpt>
      <trkpt lat="44.44329" lon="6.94491">
        <ele>2556.246</ele>
        <time>2016-03-13T14:07:51Z</time>
      </trkpt>
      <trkpt lat="44.4433" lon="6.945">
        <ele>2555.237</ele>
        <time>2016-03-13T14:07:54Z</time>
      </trkpt>
      <trkpt lat="44.44322" lon="6.94503">
        <ele>2552.05</ele>
        <time>2016-03-13T14:08:02Z</time>
      </trkpt>
      <trkpt lat="44.44323" lon="6.94508">
        <ele>2551.268</ele>
        <time>2016-03-13T14:08:28Z</time>
      </trkpt>
      <trkpt lat="44.44323" lon="6.94515">
        <ele>2550.581</ele>
        <time>2016-03-13T14:08:36Z</time>
      </trkpt>
      <trkpt lat="44.44319" lon="6.94516">
        <ele>2549.606</ele>
        <time>2016-03-13T14:08:47Z</time>
      </trkpt>
      <trkpt lat="44.44315" lon="6.94516">
        <ele>2549.384</ele>
        <time>2016-03-13T14:09:36Z</time>
      </trkpt>
      <trkpt lat="44.44315" lon="6.94521">
        <ele>2549.307</ele>
        <time>2016-03-13T14:10:13Z</time>
      </trkpt>
      <trkpt lat="44.44314" lon="6.94534">
        <ele>2548.396</ele>
        <time>2016-03-13T14:10:18Z</time>
      </trkpt>
      <trkpt lat="44.44311" lon="6.94556">
        <ele>2546.131</ele>
        <time>2016-03-13T14:10:30Z</time>
      </trkpt>
      <trkpt lat="44.44309" lon="6.94569">
        <ele>2546.543</ele>
        <time>2016-03-13T14:10:47Z</time>
      </trkpt>
      <trkpt lat="44.44304" lon="6.94583">
        <ele>2547.407</ele>
        <time>2016-03-13T14:11:10Z</time>
      </trkpt>
      <trkpt lat="44.44297" lon="6.94601">
        <ele>2547.68</ele>
        <time>2016-03-13T14:11:34Z</time>
      </trkpt>
      <trkpt lat="44.44296" lon="6.94613">
        <ele>2548.935</ele>
        <time>2016-03-13T14:11:53Z</time>
      </trkpt>
      <trkpt lat="44.44296" lon="6.94635">
        <ele>2547.386</ele>
        <time>2016-03-13T14:12:14Z</time>
      </trkpt>
      <trkpt lat="44.44292" lon="6.94649">
        <ele>2545.106</ele>
        <time>2016-03-13T14:12:23Z</time>
      </trkpt>
      <trkpt lat="44.44286" lon="6.9465">
        <ele>2543.344</ele>
        <time>2016-03-13T14:12:27Z</time>
      </trkpt>
      <trkpt lat="44.4428" lon="6.94652">
        <ele>2541.383</ele>
        <time>2016-03-13T14:12:44Z</time>
      </trkpt>
      <trkpt lat="44.44284" lon="6.94665">
        <ele>2539.443</ele>
        <time>2016-03-13T14:12:52Z</time>
      </trkpt>
      <trkpt lat="44.44286" lon="6.94674">
        <ele>2537.52</ele>
        <time>2016-03-13T14:12:55Z</time>
      </trkpt>
      <trkpt lat="44.44287" lon="6.94679">
        <ele>2535.998</ele>
        <time>2016-03-13T14:13:11Z</time>
      </trkpt>
      <trkpt lat="44.44282" lon="6.94677">
        <ele>2534.729</ele>
        <time>2016-03-13T14:13:25Z</time>
      </trkpt>
      <trkpt lat="44.4428" lon="6.94675">
        <ele>2532.663</ele>
        <time>2016-03-13T14:13:47Z</time>
      </trkpt>
      <trkpt lat="44.44259" lon="6.94668">
        <ele>2528.507</ele>
        <time>2016-03-13T14:16:24Z</time>
      </trkpt>
      <trkpt lat="44.44247" lon="6.94668">
        <ele>2525.936</ele>
        <time>2016-03-13T14:16:28Z</time>
      </trkpt>
      <trkpt lat="44.44243" lon="6.9467">
        <ele>2524.147</ele>
        <time>2016-03-13T14:16:30Z</time>
      </trkpt>
      <trkpt lat="44.4424" lon="6.9467">
        <ele>2521.404</ele>
        <time>2016-03-13T14:16:32Z</time>
      </trkpt>
      <trkpt lat="44.44236" lon="6.94671">
        <ele>2519.896</ele>
        <time>2016-03-13T14:16:35Z</time>
      </trkpt>
      <trkpt lat="44.44231" lon="6.94674">
        <ele>2517.224</ele>
        <time>2016-03-13T14:16:42Z</time>
      </trkpt>
      <trkpt lat="44.44229" lon="6.94675">
        <ele>2515.589</ele>
        <time>2016-03-13T14:16:51Z</time>
      </trkpt>
      <trkpt lat="44.44234" lon="6.94683">
        <ele>2512.642</ele>
        <time>2016-03-13T14:16:56Z</time>
      </trkpt>
      <trkpt lat="44.44242" lon="6.94691">
        <ele>2509.419</ele>
        <time>2016-03-13T14:17:02Z</time>
      </trkpt>
      <trkpt lat="44.44247" lon="6.94705">
        <ele>2507.427</ele>
        <time>2016-03-13T14:17:23Z</time>
      </trkpt>
      <trkpt lat="44.44251" lon="6.94721">
        <ele>2504.33</ele>
        <time>2016-03-13T14:17:32Z</time>
      </trkpt>
      <trkpt lat="44.44258" lon="6.94734">
        <ele>2501.851</ele>
        <time>2016-03-13T14:18:13Z</time>
      </trkpt>
      <trkpt lat="44.4425" lon="6.94732">
        <ele>2498.762</ele>
        <time>2016-03-13T14:18:21Z</time>
      </trkpt>
      <trkpt lat="44.44246" lon="6.9473">
        <ele>2497.19</ele>
        <time>2016-03-13T14:18:24Z</time>
      </trkpt>
      <trkpt lat="44.44242" lon="6.94727">
        <ele>2495.827</ele>
        <time>2016-03-13T14:18:26Z</time>
      </trkpt>
      <trkpt lat="44.44235" lon="6.94725">
        <ele>2494.638</ele>
        <time>2016-03-13T14:18:30Z</time>
      </trkpt>
      <trkpt lat="44.44232" lon="6.94724">
        <ele>2493.163</ele>
        <time>2016-03-13T14:18:33Z</time>
      </trkpt>
      <trkpt lat="44.44232" lon="6.9473">
        <ele>2491.258</ele>
        <time>2016-03-13T14:18:36Z</time>
      </trkpt>
      <trkpt lat="44.44234" lon="6.94739">
        <ele>2488.793</ele>
        <time>2016-03-13T14:18:40Z</time>
      </trkpt>
      <trkpt lat="44.44236" lon="6.94753">
        <ele>2484.89</ele>
        <time>2016-03-13T14:18:52Z</time>
      </trkpt>
      <trkpt lat="44.44229" lon="6.94751">
        <ele>2482.499</ele>
        <time>2016-03-13T14:19:09Z</time>
      </trkpt>
      <trkpt lat="44.4422" lon="6.94742">
        <ele>2479.688</ele>
        <time>2016-03-13T14:19:14Z</time>
      </trkpt>
      <trkpt lat="44.44213" lon="6.94735">
        <ele>2476.651</ele>
        <time>2016-03-13T14:19:25Z</time>
      </trkpt>
      <trkpt lat="44.44221" lon="6.94755">
        <ele>2472.257</ele>
        <time>2016-03-13T14:21:28Z</time>
      </trkpt>
      <trkpt lat="44.44222" lon="6.94759">
        <ele>2472.257</ele>
        <time>2016-03-13T14:21:29Z</time>
      </trkpt>
      <trkpt lat="44.44228" lon="6.9478">
        <ele>2468.54</ele>
        <time>2016-03-13T14:21:35Z</time>
      </trkpt>
      <trkpt lat="44.44229" lon="6.94784">
        <ele>2468.54</ele>
        <time>2016-03-13T14:21:36Z</time>
      </trkpt>
      <trkpt lat="44.44231" lon="6.94791">
        <ele>2466.597</ele>
        <time>2016-03-13T14:21:41Z</time>
      </trkpt>
      <trkpt lat="44.44222" lon="6.94789">
        <ele>2464.116</ele>
        <time>2016-03-13T14:21:45Z</time>
      </trkpt>
      <trkpt lat="44.44219" lon="6.94786">
        <ele>2462.216</ele>
        <time>2016-03-13T14:21:47Z</time>
      </trkpt>
      <trkpt lat="44.44213" lon="6.94781">
        <ele>2459.677</ele>
        <time>2016-03-13T14:21:56Z</time>
      </trkpt>
      <trkpt lat="44.44214" lon="6.94795">
        <ele>2456.144</ele>
        <time>2016-03-13T14:22:00Z</time>
      </trkpt>
      <trkpt lat="44.44219" lon="6.94812">
        <ele>2453.053</ele>
        <time>2016-03-13T14:22:03Z</time>
      </trkpt>
      <trkpt lat="44.44221" lon="6.94816">
        <ele>2453.053</ele>
        <time>2016-03-13T14:22:04Z</time>
      </trkpt>
      <trkpt lat="44.44222" lon="6.94833">
        <ele>2449.856</ele>
        <time>2016-03-13T14:22:11Z</time>
      </trkpt>
      <trkpt lat="44.44223" lon="6.94842">
        <ele>2449.126</ele>
        <time>2016-03-13T14:22:13Z</time>
      </trkpt>
      <trkpt lat="44.44224" lon="6.94846">
        <ele>2447.876</ele>
        <time>2016-03-13T14:22:14Z</time>
      </trkpt>
      <trkpt lat="44.44218" lon="6.94849">
        <ele>2446.51</ele>
        <time>2016-03-13T14:22:17Z</time>
      </trkpt>
      <trkpt lat="44.44215" lon="6.94845">
        <ele>2444.69</ele>
        <time>2016-03-13T14:22:18Z</time>
      </trkpt>
      <trkpt lat="44.44208" lon="6.94835">
        <ele>2442.338</ele>
        <time>2016-03-13T14:22:20Z</time>
      </trkpt>
      <trkpt lat="44.44199" lon="6.94827">
        <ele>2440.695</ele>
        <time>2016-03-13T14:22:22Z</time>
      </trkpt>
      <trkpt lat="44.44191" lon="6.94821">
        <ele>2439.297</ele>
        <time>2016-03-13T14:22:24Z</time>
      </trkpt>
      <trkpt lat="44.44183" lon="6.94814">
        <ele>2436.61</ele>
        <time>2016-03-13T14:22:27Z</time>
      </trkpt>
      <trkpt lat="44.44182" lon="6.94813">
        <ele>2436.187</ele>
        <time>2016-03-13T14:22:28Z</time>
      </trkpt>
      <trkpt lat="44.44177" lon="6.9482">
        <ele>2433.722</ele>
        <time>2016-03-13T14:22:32Z</time>
      </trkpt>
      <trkpt lat="44.44177" lon="6.94832">
        <ele>2432.094</ele>
        <time>2016-03-13T14:22:34Z</time>
      </trkpt>
      <trkpt lat="44.44178" lon="6.94838">
        <ele>2430.868</ele>
        <time>2016-03-13T14:22:35Z</time>
      </trkpt>
      <trkpt lat="44.44181" lon="6.94854">
        <ele>2428.757</ele>
        <time>2016-03-13T14:22:38Z</time>
      </trkpt>
      <trkpt lat="44.44179" lon="6.94859">
        <ele>2427.211</ele>
        <time>2016-03-13T14:22:40Z</time>
      </trkpt>
      <trkpt lat="44.44174" lon="6.94854">
        <ele>2426.622</ele>
        <time>2016-03-13T14:22:58Z</time>
      </trkpt>
      <trkpt lat="44.44169" lon="6.94843">
        <ele>2426.944</ele>
        <time>2016-03-13T14:23:19Z</time>
      </trkpt>
      <trkpt lat="44.44166" lon="6.94835">
        <ele>2426.027</ele>
        <time>2016-03-13T14:23:34Z</time>
      </trkpt>
      <trkpt lat="44.44164" lon="6.94827">
        <ele>2425.293</ele>
        <time>2016-03-13T14:24:12Z</time>
      </trkpt>
      <trkpt lat="44.44154" lon="6.94806">
        <ele>2424.13</ele>
        <time>2016-03-13T14:24:20Z</time>
      </trkpt>
      <trkpt lat="44.44149" lon="6.94795">
        <ele>2422.664</ele>
        <time>2016-03-13T14:24:22Z</time>
      </trkpt>
      <trkpt lat="44.44143" lon="6.94787">
        <ele>2419.886</ele>
        <time>2016-03-13T14:24:25Z</time>
      </trkpt>
      <trkpt lat="44.44123" lon="6.94777">
        <ele>2417.604</ele>
        <time>2016-03-13T14:24:29Z</time>
      </trkpt>
      <trkpt lat="44.44117" lon="6.94775">
        <ele>2414.771</ele>
        <time>2016-03-13T14:24:31Z</time>
      </trkpt>
      <trkpt lat="44.4412" lon="6.94786">
        <ele>2413.5</ele>
        <time>2016-03-13T14:24:36Z</time>
      </trkpt>
      <trkpt lat="44.44125" lon="6.94798">
        <ele>2409.515</ele>
        <time>2016-03-13T14:24:38Z</time>
      </trkpt>
      <trkpt lat="44.44126" lon="6.94819">
        <ele>2408.279</ele>
        <time>2016-03-13T14:24:41Z</time>
      </trkpt>
      <trkpt lat="44.44119" lon="6.94837">
        <ele>2405.673</ele>
        <time>2016-03-13T14:24:45Z</time>
      </trkpt>
      <trkpt lat="44.44112" lon="6.94847">
        <ele>2404.503</ele>
        <time>2016-03-13T14:24:50Z</time>
      </trkpt>
      <trkpt lat="44.44111" lon="6.94837">
        <ele>2402.651</ele>
        <time>2016-03-13T14:24:53Z</time>
      </trkpt>
      <trkpt lat="44.44108" lon="6.94819">
        <ele>2401.369</ele>
        <time>2016-03-13T14:24:57Z</time>
      </trkpt>
      <trkpt lat="44.44098" lon="6.94815">
        <ele>2399.506</ele>
        <time>2016-03-13T14:25:02Z</time>
      </trkpt>
      <trkpt lat="44.44088" lon="6.94814">
        <ele>2397.075</ele>
        <time>2016-03-13T14:25:09Z</time>
      </trkpt>
      <trkpt lat="44.44082" lon="6.94817">
        <ele>2395.794</ele>
        <time>2016-03-13T14:26:02Z</time>
      </trkpt>
      <trkpt lat="44.44084" lon="6.94836">
        <ele>2394.034</ele>
        <time>2016-03-13T14:26:07Z</time>
      </trkpt>
      <trkpt lat="44.44085" lon="6.94843">
        <ele>2392.129</ele>
        <time>2016-03-13T14:26:09Z</time>
      </trkpt>
      <trkpt lat="44.44075" lon="6.94841">
        <ele>2385.79</ele>
        <time>2016-03-13T14:26:15Z</time>
      </trkpt>
      <trkpt lat="44.44075" lon="6.94844">
        <ele>2387.692</ele>
        <time>2016-03-13T14:26:41Z</time>
      </trkpt>
      <trkpt lat="44.44059" lon="6.94848">
        <ele>2385.206</ele>
        <time>2016-03-13T14:30:39Z</time>
      </trkpt>
      <trkpt lat="44.44066" lon="6.94868">
        <ele>2380.468</ele>
        <time>2016-03-13T14:30:44Z</time>
      </trkpt>
      <trkpt lat="44.44074" lon="6.94883">
        <ele>2379.126</ele>
        <time>2016-03-13T14:30:47Z</time>
      </trkpt>
      <trkpt lat="44.44075" lon="6.94885">
        <ele>2378.117</ele>
        <time>2016-03-13T14:30:48Z</time>
      </trkpt>
      <trkpt lat="44.44064" lon="6.94892">
        <ele>2377.068</ele>
        <time>2016-03-13T14:30:52Z</time>
      </trkpt>
      <trkpt lat="44.44054" lon="6.94888">
        <ele>2374.468</ele>
        <time>2016-03-13T14:30:54Z</time>
      </trkpt>
      <trkpt lat="44.44048" lon="6.94887">
        <ele>2372.599</ele>
        <time>2016-03-13T14:30:56Z</time>
      </trkpt>
      <trkpt lat="44.4403" lon="6.94898">
        <ele>2369.151</ele>
        <time>2016-03-13T14:31:06Z</time>
      </trkpt>
      <trkpt lat="44.44009" lon="6.94906">
        <ele>2365.761</ele>
        <time>2016-03-13T14:31:14Z</time>
      </trkpt>
      <trkpt lat="44.44004" lon="6.94908">
        <ele>2365.257</ele>
        <time>2016-03-13T14:31:27Z</time>
      </trkpt>
      <trkpt lat="44.43989" lon="6.94917">
        <ele>2364.924</ele>
        <time>2016-03-13T14:31:51Z</time>
      </trkpt>
      <trkpt lat="44.43982" lon="6.9492">
        <ele>2363.127</ele>
        <time>2016-03-13T14:31:53Z</time>
      </trkpt>
      <trkpt lat="44.43964" lon="6.94925">
        <ele>2360.5</ele>
        <time>2016-03-13T14:31:59Z</time>
      </trkpt>
      <trkpt lat="44.43973" lon="6.94943">
        <ele>2357.802</ele>
        <time>2016-03-13T14:32:22Z</time>
      </trkpt>
      <trkpt lat="44.43973" lon="6.94948">
        <ele>2357.404</ele>
        <time>2016-03-13T14:32:32Z</time>
      </trkpt>
      <trkpt lat="44.43978" lon="6.94962">
        <ele>2354.595</ele>
        <time>2016-03-13T14:32:45Z</time>
      </trkpt>
      <trkpt lat="44.43961" lon="6.94959">
        <ele>2351.197</ele>
        <time>2016-03-13T14:33:40Z</time>
      </trkpt>
      <trkpt lat="44.43947" lon="6.94963">
        <ele>2348.137</ele>
        <time>2016-03-13T14:33:46Z</time>
      </trkpt>
      <trkpt lat="44.43938" lon="6.94966">
        <ele>2344.887</ele>
        <time>2016-03-13T14:33:49Z</time>
      </trkpt>
      <trkpt lat="44.43935" lon="6.94967">
        <ele>2344.887</ele>
        <time>2016-03-13T14:33:50Z</time>
      </trkpt>
      <trkpt lat="44.43919" lon="6.94974">
        <ele>2341.727</ele>
        <time>2016-03-13T14:33:53Z</time>
      </trkpt>
      <trkpt lat="44.43907" lon="6.94975">
        <ele>2330.975</ele>
        <time>2016-03-13T14:34:32Z</time>
      </trkpt>
      <trkpt lat="44.43906" lon="6.94982">
        <ele>2331.596</ele>
        <time>2016-03-13T14:36:37Z</time>
      </trkpt>
      <trkpt lat="44.43903" lon="6.9499">
        <ele>2332.328</ele>
        <time>2016-03-13T14:37:00Z</time>
      </trkpt>
      <trkpt lat="44.43903" lon="6.94995">
        <ele>2331.91</ele>
        <time>2016-03-13T14:38:51Z</time>
      </trkpt>
      <trkpt lat="44.43902" lon="6.95004">
        <ele>2333.276</ele>
        <time>2016-03-13T14:39:00Z</time>
      </trkpt>
      <trkpt lat="44.43899" lon="6.95025">
        <ele>2331.591</ele>
        <time>2016-03-13T14:39:09Z</time>
      </trkpt>
      <trkpt lat="44.43899" lon="6.95033">
        <ele>2330.349</ele>
        <time>2016-03-13T14:39:12Z</time>
      </trkpt>
      <trkpt lat="44.439" lon="6.95041">
        <ele>2329.479</ele>
        <time>2016-03-13T14:39:26Z</time>
      </trkpt>
      <trkpt lat="44.43899" lon="6.95053">
        <ele>2330.637</ele>
        <time>2016-03-13T14:39:40Z</time>
      </trkpt>
      <trkpt lat="44.439" lon="6.95068">
        <ele>2330.935</ele>
        <time>2016-03-13T14:39:57Z</time>
      </trkpt>
      <trkpt lat="44.43902" lon="6.95079">
        <ele>2332.177</ele>
        <time>2016-03-13T14:40:19Z</time>
      </trkpt>
      <trkpt lat="44.43898" lon="6.95088">
        <ele>2332.249</ele>
        <time>2016-03-13T14:40:39Z</time>
      </trkpt>
      <trkpt lat="44.43899" lon="6.95096">
        <ele>2334.386</ele>
        <time>2016-03-13T14:41:28Z</time>
      </trkpt>
      <trkpt lat="44.439" lon="6.95099">
        <ele>2332.7</ele>
        <time>2016-03-13T14:41:54Z</time>
      </trkpt>
      <trkpt lat="44.43904" lon="6.95098">
        <ele>2333.052</ele>
        <time>2016-03-13T14:44:32Z</time>
      </trkpt>
      <trkpt lat="44.43913" lon="6.95094">
        <ele>2330.869</ele>
        <time>2016-03-13T14:44:44Z</time>
      </trkpt>
      <trkpt lat="44.43916" lon="6.95097">
        <ele>2329.45</ele>
        <time>2016-03-13T14:44:49Z</time>
      </trkpt>
      <trkpt lat="44.4392" lon="6.95098">
        <ele>2327.408</ele>
        <time>2016-03-13T14:45:00Z</time>
      </trkpt>
      <trkpt lat="44.43922" lon="6.951">
        <ele>2326.573</ele>
        <time>2016-03-13T14:45:02Z</time>
      </trkpt>
      <trkpt lat="44.43922" lon="6.95103">
        <ele>2325.521</ele>
        <time>2016-03-13T14:45:04Z</time>
      </trkpt>
      <trkpt lat="44.4392" lon="6.9511">
        <ele>2317.457</ele>
        <time>2016-03-13T14:45:27Z</time>
      </trkpt>
      <trkpt lat="44.43924" lon="6.95116">
        <ele>2314.186</ele>
        <time>2016-03-13T14:45:30Z</time>
      </trkpt>
      <trkpt lat="44.43927" lon="6.95117">
        <ele>2314.186</ele>
        <time>2016-03-13T14:45:31Z</time>
      </trkpt>
      <trkpt lat="44.43934" lon="6.95116">
        <ele>2310.883</ele>
        <time>2016-03-13T14:45:33Z</time>
      </trkpt>
      <trkpt lat="44.43938" lon="6.95114">
        <ele>2310.883</ele>
        <time>2016-03-13T14:45:34Z</time>
      </trkpt>
      <trkpt lat="44.4394" lon="6.95112">
        <ele>2308.137</ele>
        <time>2016-03-13T14:45:36Z</time>
      </trkpt>
      <trkpt lat="44.43942" lon="6.95115">
        <ele>2307.511</ele>
        <time>2016-03-13T14:46:07Z</time>
      </trkpt>
      <trkpt lat="44.43945" lon="6.95119">
        <ele>2307.017</ele>
        <time>2016-03-13T14:46:21Z</time>
      </trkpt>
      <trkpt lat="44.43948" lon="6.95125">
        <ele>2305.722</ele>
        <time>2016-03-13T14:46:25Z</time>
      </trkpt>
      <trkpt lat="44.43952" lon="6.95134">
        <ele>2304.813</ele>
        <time>2016-03-13T14:46:30Z</time>
      </trkpt>
      <trkpt lat="44.43956" lon="6.95138">
        <ele>2303.659</ele>
        <time>2016-03-13T14:46:40Z</time>
      </trkpt>
      <trkpt lat="44.43962" lon="6.95157">
        <ele>2301.632</ele>
        <time>2016-03-13T14:46:48Z</time>
      </trkpt>
      <trkpt lat="44.43966" lon="6.95191">
        <ele>2298.572</ele>
        <time>2016-03-13T14:46:58Z</time>
      </trkpt>
      <trkpt lat="44.43963" lon="6.95232">
        <ele>2294.63</ele>
        <time>2016-03-13T14:47:10Z</time>
      </trkpt>
      <trkpt lat="44.43958" lon="6.95251">
        <ele>2291.893</ele>
        <time>2016-03-13T14:47:16Z</time>
      </trkpt>
      <trkpt lat="44.43958" lon="6.95242">
        <ele>2289.377</ele>
        <time>2016-03-13T14:48:00Z</time>
      </trkpt>
      <trkpt lat="44.43947" lon="6.95214">
        <ele>2286.106</ele>
        <time>2016-03-13T14:48:15Z</time>
      </trkpt>
      <trkpt lat="44.43936" lon="6.9521">
        <ele>2286.027</ele>
        <time>2016-03-13T14:48:21Z</time>
      </trkpt>
      <trkpt lat="44.43931" lon="6.95203">
        <ele>2284.235</ele>
        <time>2016-03-13T14:48:23Z</time>
      </trkpt>
      <trkpt lat="44.43926" lon="6.95199">
        <ele>2283.099</ele>
        <time>2016-03-13T14:48:25Z</time>
      </trkpt>
      <trkpt lat="44.43914" lon="6.952">
        <ele>2281.101</ele>
        <time>2016-03-13T14:48:29Z</time>
      </trkpt>
      <trkpt lat="44.43899" lon="6.95201">
        <ele>2279.08</ele>
        <time>2016-03-13T14:48:32Z</time>
      </trkpt>
      <trkpt lat="44.43895" lon="6.952">
        <ele>2276.879</ele>
        <time>2016-03-13T14:48:34Z</time>
      </trkpt>
      <trkpt lat="44.43874" lon="6.95205">
        <ele>2272.22</ele>
        <time>2016-03-13T14:49:12Z</time>
      </trkpt>
      <trkpt lat="44.43854" lon="6.95209">
        <ele>2267.665</ele>
        <time>2016-03-13T14:49:20Z</time>
      </trkpt>
      <trkpt lat="44.43851" lon="6.9521">
        <ele>2267.665</ele>
        <time>2016-03-13T14:49:21Z</time>
      </trkpt>
      <trkpt lat="44.43846" lon="6.95209">
        <ele>2265.863</ele>
        <time>2016-03-13T14:49:23Z</time>
      </trkpt>
      <trkpt lat="44.43837" lon="6.95212">
        <ele>2262.56</ele>
        <time>2016-03-13T14:49:31Z</time>
      </trkpt>
      <trkpt lat="44.43833" lon="6.95212">
        <ele>2259.477</ele>
        <time>2016-03-13T14:49:34Z</time>
      </trkpt>
      <trkpt lat="44.43829" lon="6.95215">
        <ele>2259.659</ele>
        <time>2016-03-13T14:49:39Z</time>
      </trkpt>
      <trkpt lat="44.43824" lon="6.9522">
        <ele>2258.145</ele>
        <time>2016-03-13T14:49:43Z</time>
      </trkpt>
      <trkpt lat="44.43818" lon="6.95242">
        <ele>2255.566</ele>
        <time>2016-03-13T14:49:51Z</time>
      </trkpt>
      <trkpt lat="44.43816" lon="6.95245">
        <ele>2254.202</ele>
        <time>2016-03-13T14:49:53Z</time>
      </trkpt>
      <trkpt lat="44.43816" lon="6.95257">
        <ele>2252.139</ele>
        <time>2016-03-13T14:49:58Z</time>
      </trkpt>
      <trkpt lat="44.43815" lon="6.95268">
        <ele>2250.712</ele>
        <time>2016-03-13T14:50:40Z</time>
      </trkpt>
      <trkpt lat="44.43817" lon="6.95282">
        <ele>2249.647</ele>
        <time>2016-03-13T14:50:56Z</time>
      </trkpt>
      <trkpt lat="44.43818" lon="6.95291">
        <ele>2249.94</ele>
        <time>2016-03-13T14:51:09Z</time>
      </trkpt>
      <trkpt lat="44.43818" lon="6.95294">
        <ele>2246.569</ele>
        <time>2016-03-13T14:51:20Z</time>
      </trkpt>
      <trkpt lat="44.4382" lon="6.95305">
        <ele>2249.327</ele>
        <time>2016-03-13T14:52:00Z</time>
      </trkpt>
      <trkpt lat="44.43822" lon="6.95308">
        <ele>2250.067</ele>
        <time>2016-03-13T14:52:20Z</time>
      </trkpt>
      <trkpt lat="44.43823" lon="6.95313">
        <ele>2250.574</ele>
        <time>2016-03-13T14:52:56Z</time>
      </trkpt>
      <trkpt lat="44.43825" lon="6.95318">
        <ele>2251.275</ele>
        <time>2016-03-13T14:53:12Z</time>
      </trkpt>
      <trkpt lat="44.43825" lon="6.95321">
        <ele>2251.624</ele>
        <time>2016-03-13T14:53:49Z</time>
      </trkpt>
      <trkpt lat="44.43825" lon="6.95324">
        <ele>2252.163</ele>
        <time>2016-03-13T14:54:01Z</time>
      </trkpt>
      <trkpt lat="44.43826" lon="6.95326">
        <ele>2252.651</ele>
        <time>2016-03-13T14:54:21Z</time>
      </trkpt>
      <trkpt lat="44.43826" lon="6.9533">
        <ele>2252.982</ele>
        <time>2016-03-13T14:54:33Z</time>
      </trkpt>
      <trkpt lat="44.43824" lon="6.95333">
        <ele>2254.85</ele>
        <time>2016-03-13T14:55:45Z</time>
      </trkpt>
      <trkpt lat="44.43823" lon="6.95335">
        <ele>2256.187</ele>
        <time>2016-03-13T14:56:01Z</time>
      </trkpt>
      <trkpt lat="44.43822" lon="6.95338">
        <ele>2256.483</ele>
        <time>2016-03-13T14:56:13Z</time>
      </trkpt>
      <trkpt lat="44.43826" lon="6.95342">
        <ele>2257.194</ele>
        <time>2016-03-13T14:56:53Z</time>
      </trkpt>
      <trkpt lat="44.43832" lon="6.95347">
        <ele>2257.711</ele>
        <time>2016-03-13T14:57:10Z</time>
      </trkpt>
      <trkpt lat="44.43831" lon="6.95352">
        <ele>2258.702</ele>
        <time>2016-03-13T14:57:44Z</time>
      </trkpt>
      <trkpt lat="44.4383" lon="6.95357">
        <ele>2259.527</ele>
        <time>2016-03-13T14:57:58Z</time>
      </trkpt>
      <trkpt lat="44.43833" lon="6.95357">
        <ele>2260.161</ele>
        <time>2016-03-13T14:58:22Z</time>
      </trkpt>
      <trkpt lat="44.43833" lon="6.95361">
        <ele>2261.109</ele>
        <time>2016-03-13T14:58:37Z</time>
      </trkpt>
      <trkpt lat="44.43833" lon="6.95366">
        <ele>2261.387</ele>
        <time>2016-03-13T14:58:49Z</time>
      </trkpt>
      <trkpt lat="44.43834" lon="6.95385">
        <ele>2260.835</ele>
        <time>2016-03-13T14:59:06Z</time>
      </trkpt>
      <trkpt lat="44.4383" lon="6.95412">
        <ele>2258.198</ele>
        <time>2016-03-13T14:59:15Z</time>
      </trkpt>
      <trkpt lat="44.43828" lon="6.95426">
        <ele>2258.613</ele>
        <time>2016-03-13T14:59:35Z</time>
      </trkpt>
      <trkpt lat="44.43824" lon="6.95444">
        <ele>2258.945</ele>
        <time>2016-03-13T15:00:03Z</time>
      </trkpt>
      <trkpt lat="44.43823" lon="6.95448">
        <ele>2260.346</ele>
        <time>2016-03-13T15:00:18Z</time>
      </trkpt>
      <trkpt lat="44.43821" lon="6.95458">
        <ele>2261.672</ele>
        <time>2016-03-13T15:01:00Z</time>
      </trkpt>
      <trkpt lat="44.43817" lon="6.95471">
        <ele>2261.955</ele>
        <time>2016-03-13T15:01:24Z</time>
      </trkpt>
      <trkpt lat="44.43817" lon="6.95475">
        <ele>2262.832</ele>
        <time>2016-03-13T15:01:47Z</time>
      </trkpt>
      <trkpt lat="44.43815" lon="6.95479">
        <ele>2264.032</ele>
        <time>2016-03-13T15:02:17Z</time>
      </trkpt>
      <trkpt lat="44.43813" lon="6.95481">
        <ele>2264.798</ele>
        <time>2016-03-13T15:02:28Z</time>
      </trkpt>
      <trkpt lat="44.43807" lon="6.95486">
        <ele>2266.259</ele>
        <time>2016-03-13T15:02:58Z</time>
      </trkpt>
      <trkpt lat="44.43802" lon="6.95489">
        <ele>2267.25</ele>
        <time>2016-03-13T15:03:35Z</time>
      </trkpt>
      <trkpt lat="44.43801" lon="6.95492">
        <ele>2267.142</ele>
        <time>2016-03-13T15:03:48Z</time>
      </trkpt>
      <trkpt lat="44.43798" lon="6.95494">
        <ele>2267.562</ele>
        <time>2016-03-13T15:03:58Z</time>
      </trkpt>
      <trkpt lat="44.43797" lon="6.95497">
        <ele>2269.108</ele>
        <time>2016-03-13T15:04:18Z</time>
      </trkpt>
      <trkpt lat="44.43793" lon="6.95501">
        <ele>2269.76</ele>
        <time>2016-03-13T15:04:32Z</time>
      </trkpt>
      <trkpt lat="44.43789" lon="6.95507">
        <ele>2269.528</ele>
        <time>2016-03-13T15:04:45Z</time>
      </trkpt>
      <trkpt lat="44.43784" lon="6.95514">
        <ele>2270.12</ele>
        <time>2016-03-13T15:05:02Z</time>
      </trkpt>
      <trkpt lat="44.43779" lon="6.95519">
        <ele>2270.302</ele>
        <time>2016-03-13T15:05:16Z</time>
      </trkpt>
      <trkpt lat="44.43773" lon="6.95526">
        <ele>2270.506</ele>
        <time>2016-03-13T15:05:31Z</time>
      </trkpt>
      <trkpt lat="44.43768" lon="6.9553">
        <ele>2271.119</ele>
        <time>2016-03-13T15:05:43Z</time>
      </trkpt>
      <trkpt lat="44.43764" lon="6.95536">
        <ele>2272.181</ele>
        <time>2016-03-13T15:05:55Z</time>
      </trkpt>
      <trkpt lat="44.43759" lon="6.95544">
        <ele>2275.037</ele>
        <time>2016-03-13T15:06:09Z</time>
      </trkpt>
      <trkpt lat="44.43745" lon="6.95575">
        <ele>2270.91</ele>
        <time>2016-03-13T15:06:25Z</time>
      </trkpt>
      <trkpt lat="44.43745" lon="6.95579">
        <ele>2270.91</ele>
        <time>2016-03-13T15:06:26Z</time>
      </trkpt>
      <trkpt lat="44.43744" lon="6.9561">
        <ele>2267.739</ele>
        <time>2016-03-13T15:06:34Z</time>
      </trkpt>
      <trkpt lat="44.43744" lon="6.95616">
        <ele>2266.756</ele>
        <time>2016-03-13T15:06:36Z</time>
      </trkpt>
      <trkpt lat="44.43731" lon="6.95622">
        <ele>2263.538</ele>
        <time>2016-03-13T15:07:38Z</time>
      </trkpt>
      <trkpt lat="44.43727" lon="6.95627">
        <ele>2262.452</ele>
        <time>2016-03-13T15:07:40Z</time>
      </trkpt>
      <trkpt lat="44.43714" lon="6.95644">
        <ele>2259.101</ele>
        <time>2016-03-13T15:07:48Z</time>
      </trkpt>
      <trkpt lat="44.43708" lon="6.95652">
        <ele>2256.364</ele>
        <time>2016-03-13T15:08:02Z</time>
      </trkpt>
      <trkpt lat="44.43696" lon="6.95663">
        <ele>2254.683</ele>
        <time>2016-03-13T15:08:15Z</time>
      </trkpt>
      <trkpt lat="44.43676" lon="6.95678">
        <ele>2250.26</ele>
        <time>2016-03-13T15:08:23Z</time>
      </trkpt>
      <trkpt lat="44.43673" lon="6.9568">
        <ele>2250.26</ele>
        <time>2016-03-13T15:08:24Z</time>
      </trkpt>
      <trkpt lat="44.43651" lon="6.95697">
        <ele>2247.092</ele>
        <time>2016-03-13T15:08:30Z</time>
      </trkpt>
      <trkpt lat="44.43647" lon="6.957">
        <ele>2247.092</ele>
        <time>2016-03-13T15:08:31Z</time>
      </trkpt>
      <trkpt lat="44.43637" lon="6.95713">
        <ele>2244.085</ele>
        <time>2016-03-13T15:08:36Z</time>
      </trkpt>
      <trkpt lat="44.43632" lon="6.9572">
        <ele>2242.888</ele>
        <time>2016-03-13T15:08:38Z</time>
      </trkpt>
      <trkpt lat="44.4362" lon="6.95727">
        <ele>2240.465</ele>
        <time>2016-03-13T15:08:42Z</time>
      </trkpt>
      <trkpt lat="44.43612" lon="6.95731">
        <ele>2238.584</ele>
        <time>2016-03-13T15:08:45Z</time>
      </trkpt>
      <trkpt lat="44.43608" lon="6.95738">
        <ele>2236.782</ele>
        <time>2016-03-13T15:08:48Z</time>
      </trkpt>
      <trkpt lat="44.4361" lon="6.95745">
        <ele>2232.979</ele>
        <time>2016-03-13T15:08:51Z</time>
      </trkpt>
      <trkpt lat="44.43613" lon="6.95747">
        <ele>2232.712</ele>
        <time>2016-03-13T15:09:43Z</time>
      </trkpt>
      <trkpt lat="44.43614" lon="6.95758">
        <ele>2231.262</ele>
        <time>2016-03-13T15:09:45Z</time>
      </trkpt>
      <trkpt lat="44.4361" lon="6.95768">
        <ele>2229.898</ele>
        <time>2016-03-13T15:09:47Z</time>
      </trkpt>
      <trkpt lat="44.43601" lon="6.95783">
        <ele>2226.868</ele>
        <time>2016-03-13T15:09:51Z</time>
      </trkpt>
      <trkpt lat="44.436" lon="6.95785">
        <ele>2226.868</ele>
        <time>2016-03-13T15:09:52Z</time>
      </trkpt>
      <trkpt lat="44.43589" lon="6.95799">
        <ele>2223.766</ele>
        <time>2016-03-13T15:10:00Z</time>
      </trkpt>
      <trkpt lat="44.43592" lon="6.95805">
        <ele>2222.045</ele>
        <time>2016-03-13T15:10:03Z</time>
      </trkpt>
      <trkpt lat="44.43595" lon="6.95805">
        <ele>2219.525</ele>
        <time>2016-03-13T15:10:04Z</time>
      </trkpt>
      <trkpt lat="44.43598" lon="6.95809">
        <ele>2218.251</ele>
        <time>2016-03-13T15:10:06Z</time>
      </trkpt>
      <trkpt lat="44.43596" lon="6.95819">
        <ele>2216.523</ele>
        <time>2016-03-13T15:10:08Z</time>
      </trkpt>
      <trkpt lat="44.43593" lon="6.95828">
        <ele>2214.322</ele>
        <time>2016-03-13T15:10:10Z</time>
      </trkpt>
      <trkpt lat="44.43591" lon="6.95836">
        <ele>2211.696</ele>
        <time>2016-03-13T15:10:13Z</time>
      </trkpt>
      <trkpt lat="44.4359" lon="6.95841">
        <ele>2211.473</ele>
        <time>2016-03-13T15:10:16Z</time>
      </trkpt>
      <trkpt lat="44.43585" lon="6.95852">
        <ele>2209.761</ele>
        <time>2016-03-13T15:10:20Z</time>
      </trkpt>
      <trkpt lat="44.43581" lon="6.95859">
        <ele>2207.69</ele>
        <time>2016-03-13T15:10:29Z</time>
      </trkpt>
      <trkpt lat="44.43579" lon="6.95863">
        <ele>2207.108</ele>
        <time>2016-03-13T15:10:33Z</time>
      </trkpt>
      <trkpt lat="44.43586" lon="6.95866">
        <ele>2202.762</ele>
        <time>2016-03-13T15:10:37Z</time>
      </trkpt>
      <trkpt lat="44.43592" lon="6.95863">
        <ele>2200.976</ele>
        <time>2016-03-13T15:10:41Z</time>
      </trkpt>
      <trkpt lat="44.43592" lon="6.95875">
        <ele>2198.753</ele>
        <time>2016-03-13T15:10:45Z</time>
      </trkpt>
      <trkpt lat="44.43591" lon="6.95877">
        <ele>2196.653</ele>
        <time>2016-03-13T15:10:47Z</time>
      </trkpt>
      <trkpt lat="44.43597" lon="6.95877">
        <ele>2193.685</ele>
        <time>2016-03-13T15:10:52Z</time>
      </trkpt>
      <trkpt lat="44.43601" lon="6.95874">
        <ele>2191.283</ele>
        <time>2016-03-13T15:10:54Z</time>
      </trkpt>
      <trkpt lat="44.43604" lon="6.95873">
        <ele>2189.561</ele>
        <time>2016-03-13T15:10:56Z</time>
      </trkpt>
      <trkpt lat="44.43607" lon="6.95881">
        <ele>2188.255</ele>
        <time>2016-03-13T15:10:59Z</time>
      </trkpt>
      <trkpt lat="44.43606" lon="6.95885">
        <ele>2186.113</ele>
        <time>2016-03-13T15:11:01Z</time>
      </trkpt>
      <trkpt lat="44.43602" lon="6.95903">
        <ele>2182.297</ele>
        <time>2016-03-13T15:11:20Z</time>
      </trkpt>
      <trkpt lat="44.43599" lon="6.95927">
        <ele>2179.39</ele>
        <time>2016-03-13T15:11:29Z</time>
      </trkpt>
      <trkpt lat="44.43597" lon="6.95933">
        <ele>2179.105</ele>
        <time>2016-03-13T15:11:32Z</time>
      </trkpt>
      <trkpt lat="44.436" lon="6.95938">
        <ele>2178.127</ele>
        <time>2016-03-13T15:11:34Z</time>
      </trkpt>
      <trkpt lat="44.43603" lon="6.95937">
        <ele>2174.584</ele>
        <time>2016-03-13T15:11:35Z</time>
      </trkpt>
      <trkpt lat="44.43605" lon="6.95936">
        <ele>2174.584</ele>
        <time>2016-03-13T15:11:36Z</time>
      </trkpt>
      <trkpt lat="44.43616" lon="6.95933">
        <ele>2170.94</ele>
        <time>2016-03-13T15:13:24Z</time>
      </trkpt>
      <trkpt lat="44.43619" lon="6.95935">
        <ele>2170.568</ele>
        <time>2016-03-13T15:13:29Z</time>
      </trkpt>
      <trkpt lat="44.43642" lon="6.95947">
        <ele>2167.053</ele>
        <time>2016-03-13T15:13:42Z</time>
      </trkpt>
      <trkpt lat="44.43654" lon="6.95952">
        <ele>2166.591</ele>
        <time>2016-03-13T15:13:48Z</time>
      </trkpt>
      <trkpt lat="44.4366" lon="6.95957">
        <ele>2165.523</ele>
        <time>2016-03-13T15:13:50Z</time>
      </trkpt>
      <trkpt lat="44.43668" lon="6.95988">
        <ele>2161.454</ele>
        <time>2016-03-13T15:13:59Z</time>
      </trkpt>
      <trkpt lat="44.43669" lon="6.9599">
        <ele>2161.454</ele>
        <time>2016-03-13T15:14:00Z</time>
      </trkpt>
      <trkpt lat="44.4368" lon="6.96001">
        <ele>2162.345</ele>
        <time>2016-03-13T15:14:27Z</time>
      </trkpt>
      <trkpt lat="44.43693" lon="6.96015">
        <ele>2159.1</ele>
        <time>2016-03-13T15:14:36Z</time>
      </trkpt>
      <trkpt lat="44.43701" lon="6.9602">
        <ele>2157.113</ele>
        <time>2016-03-13T15:14:41Z</time>
      </trkpt>
      <trkpt lat="44.43708" lon="6.96026">
        <ele>2154.378</ele>
        <time>2016-03-13T15:14:44Z</time>
      </trkpt>
      <trkpt lat="44.43713" lon="6.96035">
        <ele>2152.658</ele>
        <time>2016-03-13T15:14:48Z</time>
      </trkpt>
      <trkpt lat="44.43716" lon="6.96039">
        <ele>2151.199</ele>
        <time>2016-03-13T15:14:50Z</time>
      </trkpt>
      <trkpt lat="44.43726" lon="6.96051">
        <ele>2148.795</ele>
        <time>2016-03-13T15:15:02Z</time>
      </trkpt>
      <trkpt lat="44.4373" lon="6.96062">
        <ele>2147.786</ele>
        <time>2016-03-13T15:15:12Z</time>
      </trkpt>
      <trkpt lat="44.4373" lon="6.96065">
        <ele>2148.312</ele>
        <time>2016-03-13T15:15:27Z</time>
      </trkpt>
      <trkpt lat="44.4373" lon="6.96069">
        <ele>2149.44</ele>
        <time>2016-03-13T15:15:39Z</time>
      </trkpt>
      <trkpt lat="44.43731" lon="6.96074">
        <ele>2149.638</ele>
        <time>2016-03-13T15:15:51Z</time>
      </trkpt>
      <trkpt lat="44.4373" lon="6.96077">
        <ele>2150.462</ele>
        <time>2016-03-13T15:16:08Z</time>
      </trkpt>
      <trkpt lat="44.4373" lon="6.96079">
        <ele>2150.399</ele>
        <time>2016-03-13T15:16:22Z</time>
      </trkpt>
      <trkpt lat="44.43731" lon="6.96084">
        <ele>2152.098</ele>
        <time>2016-03-13T15:16:54Z</time>
      </trkpt>
      <trkpt lat="44.43732" lon="6.96087">
        <ele>2152.41</ele>
        <time>2016-03-13T15:17:43Z</time>
      </trkpt>
      <trkpt lat="44.43733" lon="6.96091">
        <ele>2152.806</ele>
        <time>2016-03-13T15:18:05Z</time>
      </trkpt>
      <trkpt lat="44.43734" lon="6.96095">
        <ele>2153.142</ele>
        <time>2016-03-13T15:18:33Z</time>
      </trkpt>
      <trkpt lat="44.43735" lon="6.961">
        <ele>2154.016</ele>
        <time>2016-03-13T15:19:00Z</time>
      </trkpt>
      <trkpt lat="44.43735" lon="6.96106">
        <ele>2155.089</ele>
        <time>2016-03-13T15:19:24Z</time>
      </trkpt>
      <trkpt lat="44.43735" lon="6.96111">
        <ele>2155.042</ele>
        <time>2016-03-13T15:19:35Z</time>
      </trkpt>
      <trkpt lat="44.43734" lon="6.9612">
        <ele>2156.003</ele>
        <time>2016-03-13T15:19:50Z</time>
      </trkpt>
      <trkpt lat="44.43734" lon="6.96128">
        <ele>2156.4</ele>
        <time>2016-03-13T15:20:04Z</time>
      </trkpt>
      <trkpt lat="44.43732" lon="6.96137">
        <ele>2156.537</ele>
        <time>2016-03-13T15:20:17Z</time>
      </trkpt>
      <trkpt lat="44.43731" lon="6.96141">
        <ele>2156.981</ele>
        <time>2016-03-13T15:20:28Z</time>
      </trkpt>
      <trkpt lat="44.43728" lon="6.96156">
        <ele>2156.955</ele>
        <time>2016-03-13T15:20:46Z</time>
      </trkpt>
      <trkpt lat="44.43727" lon="6.96169">
        <ele>2155.226</ele>
        <time>2016-03-13T15:20:59Z</time>
      </trkpt>
      <trkpt lat="44.43726" lon="6.96172">
        <ele>2154.325</ele>
        <time>2016-03-13T15:21:18Z</time>
      </trkpt>
      <trkpt lat="44.43732" lon="6.96185">
        <ele>2153.152</ele>
        <time>2016-03-13T15:21:26Z</time>
      </trkpt>
      <trkpt lat="44.43734" lon="6.9619">
        <ele>2152.219</ele>
        <time>2016-03-13T15:21:29Z</time>
      </trkpt>
      <trkpt lat="44.43735" lon="6.96203">
        <ele>2151.781</ele>
        <time>2016-03-13T15:21:33Z</time>
      </trkpt>
      <trkpt lat="44.43738" lon="6.96211">
        <ele>2149.931</ele>
        <time>2016-03-13T15:21:35Z</time>
      </trkpt>
      <trkpt lat="44.43733" lon="6.96221">
        <ele>2149.091</ele>
        <time>2016-03-13T15:21:39Z</time>
      </trkpt>
      <trkpt lat="44.43721" lon="6.96221">
        <ele>2146.893</ele>
        <time>2016-03-13T15:21:43Z</time>
      </trkpt>
      <trkpt lat="44.43719" lon="6.96224">
        <ele>2145.043</ele>
        <time>2016-03-13T15:21:49Z</time>
      </trkpt>
      <trkpt lat="44.4372" lon="6.96235">
        <ele>2144.292</ele>
        <time>2016-03-13T15:21:53Z</time>
      </trkpt>
      <trkpt lat="44.43714" lon="6.96244">
        <ele>2140.733</ele>
        <time>2016-03-13T15:21:56Z</time>
      </trkpt>
      <trkpt lat="44.43714" lon="6.9625">
        <ele>2140.295</ele>
        <time>2016-03-13T15:22:01Z</time>
      </trkpt>
      <trkpt lat="44.43723" lon="6.96262">
        <ele>2137.008</ele>
        <time>2016-03-13T15:22:04Z</time>
      </trkpt>
      <trkpt lat="44.43733" lon="6.96279">
        <ele>2135.187</ele>
        <time>2016-03-13T15:22:08Z</time>
      </trkpt>
      <trkpt lat="44.43746" lon="6.96297">
        <ele>2132.693</ele>
        <time>2016-03-13T15:22:13Z</time>
      </trkpt>
      <trkpt lat="44.43748" lon="6.96303">
        <ele>2133.005</ele>
        <time>2016-03-13T15:22:17Z</time>
      </trkpt>
      <trkpt lat="44.43742" lon="6.96307">
        <ele>2131.646</ele>
        <time>2016-03-13T15:22:20Z</time>
      </trkpt>
      <trkpt lat="44.43738" lon="6.96303">
        <ele>2129.453</ele>
        <time>2016-03-13T15:22:22Z</time>
      </trkpt>
      <trkpt lat="44.4373" lon="6.96324">
        <ele>2125.281</ele>
        <time>2016-03-13T15:22:57Z</time>
      </trkpt>
      <trkpt lat="44.43727" lon="6.96335">
        <ele>2123.516</ele>
        <time>2016-03-13T15:22:59Z</time>
      </trkpt>
      <trkpt lat="44.43736" lon="6.96342">
        <ele>2120.39</ele>
        <time>2016-03-13T15:23:03Z</time>
      </trkpt>
      <trkpt lat="44.4375" lon="6.96358">
        <ele>2119.024</ele>
        <time>2016-03-13T15:23:07Z</time>
      </trkpt>
      <trkpt lat="44.43757" lon="6.96373">
        <ele>2115.692</ele>
        <time>2016-03-13T15:23:12Z</time>
      </trkpt>
      <trkpt lat="44.43758" lon="6.96383">
        <ele>2114.987</ele>
        <time>2016-03-13T15:23:15Z</time>
      </trkpt>
      <trkpt lat="44.43756" lon="6.96394">
        <ele>2114.53</ele>
        <time>2016-03-13T15:23:18Z</time>
      </trkpt>
      <trkpt lat="44.43749" lon="6.96401">
        <ele>2112.92</ele>
        <time>2016-03-13T15:23:21Z</time>
      </trkpt>
      <trkpt lat="44.43746" lon="6.96413">
        <ele>2107.644</ele>
        <time>2016-03-13T15:23:24Z</time>
      </trkpt>
      <trkpt lat="44.43746" lon="6.96418">
        <ele>2107.644</ele>
        <time>2016-03-13T15:23:25Z</time>
      </trkpt>
      <trkpt lat="44.43748" lon="6.96423">
        <ele>2106.346</ele>
        <time>2016-03-13T15:23:26Z</time>
      </trkpt>
      <trkpt lat="44.43742" lon="6.96432">
        <ele>2101.527</ele>
        <time>2016-03-13T15:23:33Z</time>
      </trkpt>
      <trkpt lat="44.4374" lon="6.96441">
        <ele>2100.863</ele>
        <time>2016-03-13T15:24:02Z</time>
      </trkpt>
      <trkpt lat="44.4374" lon="6.96445">
        <ele>2099.814</ele>
        <time>2016-03-13T15:24:03Z</time>
      </trkpt>
      <trkpt lat="44.43744" lon="6.96466">
        <ele>2097.576</ele>
        <time>2016-03-13T15:24:09Z</time>
      </trkpt>
      <trkpt lat="44.43744" lon="6.96473">
        <ele>2097.045</ele>
        <time>2016-03-13T15:24:11Z</time>
      </trkpt>
      <trkpt lat="44.43731" lon="6.96484">
        <ele>2095.235</ele>
        <time>2016-03-13T15:24:15Z</time>
      </trkpt>
      <trkpt lat="44.43727" lon="6.96488">
        <ele>2092.004</ele>
        <time>2016-03-13T15:24:16Z</time>
      </trkpt>
      <trkpt lat="44.43721" lon="6.96498">
        <ele>2089.042</ele>
        <time>2016-03-13T15:24:18Z</time>
      </trkpt>
      <trkpt lat="44.43716" lon="6.96512">
        <ele>2086.262</ele>
        <time>2016-03-13T15:24:20Z</time>
      </trkpt>
      <trkpt lat="44.43714" lon="6.9652">
        <ele>2083.125</ele>
        <time>2016-03-13T15:24:21Z</time>
      </trkpt>
      <trkpt lat="44.43709" lon="6.96524">
        <ele>2083.125</ele>
        <time>2016-03-13T15:24:22Z</time>
      </trkpt>
      <trkpt lat="44.43702" lon="6.96537">
        <ele>2076.319</ele>
        <time>2016-03-13T15:24:24Z</time>
      </trkpt>
      <trkpt lat="44.43701" lon="6.96544">
        <ele>2076.319</ele>
        <time>2016-03-13T15:24:25Z</time>
      </trkpt>
      <trkpt lat="44.43702" lon="6.96552">
        <ele>2074.361</ele>
        <time>2016-03-13T15:24:27Z</time>
      </trkpt>
      <trkpt lat="44.43698" lon="6.96567">
        <ele>2072.802</ele>
        <time>2016-03-13T15:25:10Z</time>
      </trkpt>
      <trkpt lat="44.43694" lon="6.96591">
        <ele>2071.259</ele>
        <time>2016-03-13T15:25:14Z</time>
      </trkpt>
      <trkpt lat="44.43689" lon="6.96602">
        <ele>2070.3</ele>
        <time>2016-03-13T15:25:16Z</time>
      </trkpt>
      <trkpt lat="44.43681" lon="6.96601">
        <ele>2068.524</ele>
        <time>2016-03-13T15:25:18Z</time>
      </trkpt>
      <trkpt lat="44.43675" lon="6.9661">
        <ele>2065.662</ele>
        <time>2016-03-13T15:25:20Z</time>
      </trkpt>
      <trkpt lat="44.43667" lon="6.96625">
        <ele>2061.871</ele>
        <time>2016-03-13T15:25:23Z</time>
      </trkpt>
      <trkpt lat="44.43662" lon="6.96628">
        <ele>2058.724</ele>
        <time>2016-03-13T15:25:24Z</time>
      </trkpt>
      <trkpt lat="44.43659" lon="6.96634">
        <ele>2058.724</ele>
        <time>2016-03-13T15:25:25Z</time>
      </trkpt>
      <trkpt lat="44.43655" lon="6.9664">
        <ele>2055.717</ele>
        <time>2016-03-13T15:25:26Z</time>
      </trkpt>
      <trkpt lat="44.4365" lon="6.96642">
        <ele>2055.717</ele>
        <time>2016-03-13T15:25:27Z</time>
      </trkpt>
      <trkpt lat="44.43643" lon="6.96655">
        <ele>2048.001</ele>
        <time>2016-03-13T15:25:29Z</time>
      </trkpt>
      <trkpt lat="44.43643" lon="6.96664">
        <ele>2048.001</ele>
        <time>2016-03-13T15:25:30Z</time>
      </trkpt>
      <trkpt lat="44.43645" lon="6.96682">
        <ele>2046.041</ele>
        <time>2016-03-13T15:25:32Z</time>
      </trkpt>
      <trkpt lat="44.43639" lon="6.96696">
        <ele>2044.659</ele>
        <time>2016-03-13T15:25:34Z</time>
      </trkpt>
      <trkpt lat="44.4363" lon="6.96697">
        <ele>2038.827</ele>
        <time>2016-03-13T15:25:36Z</time>
      </trkpt>
      <trkpt lat="44.43622" lon="6.96705">
        <ele>2035.717</ele>
        <time>2016-03-13T15:25:38Z</time>
      </trkpt>
      <trkpt lat="44.43619" lon="6.96709">
        <ele>2035.717</ele>
        <time>2016-03-13T15:25:39Z</time>
      </trkpt>
      <trkpt lat="44.43613" lon="6.9672">
        <ele>2033.117</ele>
        <time>2016-03-13T15:25:41Z</time>
      </trkpt>
      <trkpt lat="44.43612" lon="6.96728">
        <ele>2031.067</ele>
        <time>2016-03-13T15:25:42Z</time>
      </trkpt>
      <trkpt lat="44.43613" lon="6.96745">
        <ele>2028.95</ele>
        <time>2016-03-13T15:25:44Z</time>
      </trkpt>
      <trkpt lat="44.43609" lon="6.96758">
        <ele>2026.416</ele>
        <time>2016-03-13T15:25:46Z</time>
      </trkpt>
      <trkpt lat="44.43604" lon="6.96768">
        <ele>2023.853</ele>
        <time>2016-03-13T15:25:48Z</time>
      </trkpt>
      <trkpt lat="44.43596" lon="6.96776">
        <ele>2021.776</ele>
        <time>2016-03-13T15:25:50Z</time>
      </trkpt>
      <trkpt lat="44.43592" lon="6.96781">
        <ele>2018.587</ele>
        <time>2016-03-13T15:25:51Z</time>
      </trkpt>
      <trkpt lat="44.43579" lon="6.9679">
        <ele>2012.348</ele>
        <time>2016-03-13T15:25:54Z</time>
      </trkpt>
      <trkpt lat="44.43565" lon="6.96793">
        <ele>2009.101</ele>
        <time>2016-03-13T15:26:45Z</time>
      </trkpt>
      <trkpt lat="44.43558" lon="6.96802">
        <ele>2006.961</ele>
        <time>2016-03-13T15:26:47Z</time>
      </trkpt>
      <trkpt lat="44.43549" lon="6.96819">
        <ele>2002.268</ele>
        <time>2016-03-13T15:26:50Z</time>
      </trkpt>
      <trkpt lat="44.43547" lon="6.96824">
        <ele>2002.268</ele>
        <time>2016-03-13T15:26:51Z</time>
      </trkpt>
      <trkpt lat="44.43545" lon="6.96839">
        <ele>1999.879</ele>
        <time>2016-03-13T15:26:53Z</time>
      </trkpt>
      <trkpt lat="44.43545" lon="6.96858">
        <ele>1997.95</ele>
        <time>2016-03-13T15:26:55Z</time>
      </trkpt>
      <trkpt lat="44.43544" lon="6.96874">
        <ele>1994.122</ele>
        <time>2016-03-13T15:26:57Z</time>
      </trkpt>
      <trkpt lat="44.43544" lon="6.96881">
        <ele>1994.122</ele>
        <time>2016-03-13T15:26:58Z</time>
      </trkpt>
      <trkpt lat="44.43545" lon="6.96886">
        <ele>1993.511</ele>
        <time>2016-03-13T15:26:59Z</time>
      </trkpt>
      <trkpt lat="44.43533" lon="6.969">
        <ele>1988.528</ele>
        <time>2016-03-13T15:27:04Z</time>
      </trkpt>
      <trkpt lat="44.43523" lon="6.96915">
        <ele>1986.306</ele>
        <time>2016-03-13T15:27:07Z</time>
      </trkpt>
      <trkpt lat="44.43522" lon="6.96935">
        <ele>1983.922</ele>
        <time>2016-03-13T15:27:09Z</time>
      </trkpt>
      <trkpt lat="44.43522" lon="6.96951">
        <ele>1981.084</ele>
        <time>2016-03-13T15:27:11Z</time>
      </trkpt>
      <trkpt lat="44.43514" lon="6.96959">
        <ele>1976.019</ele>
        <time>2016-03-13T15:27:13Z</time>
      </trkpt>
      <trkpt lat="44.4351" lon="6.96964">
        <ele>1976.019</ele>
        <time>2016-03-13T15:27:14Z</time>
      </trkpt>
      <trkpt lat="44.43496" lon="6.96988">
        <ele>1970.021</ele>
        <time>2016-03-13T15:27:18Z</time>
      </trkpt>
      <trkpt lat="44.43487" lon="6.97012">
        <ele>1966.462</ele>
        <time>2016-03-13T15:27:21Z</time>
      </trkpt>
      <trkpt lat="44.43484" lon="6.97019">
        <ele>1963.349</ele>
        <time>2016-03-13T15:27:22Z</time>
      </trkpt>
      <trkpt lat="44.43475" lon="6.97041">
        <ele>1961.486</ele>
        <time>2016-03-13T15:27:25Z</time>
      </trkpt>
      <trkpt lat="44.43469" lon="6.97055">
        <ele>1956.667</ele>
        <time>2016-03-13T15:27:27Z</time>
      </trkpt>
      <trkpt lat="44.43462" lon="6.97074">
        <ele>1955.274</ele>
        <time>2016-03-13T15:27:30Z</time>
      </trkpt>
      <trkpt lat="44.43457" lon="6.97087">
        <ele>1952.986</ele>
        <time>2016-03-13T15:27:32Z</time>
      </trkpt>
      <trkpt lat="44.43458" lon="6.97091">
        <ele>1949.733</ele>
        <time>2016-03-13T15:27:33Z</time>
      </trkpt>
      <trkpt lat="44.43461" lon="6.97093">
        <ele>1947.831</ele>
        <time>2016-03-13T15:27:35Z</time>
      </trkpt>
      <trkpt lat="44.43464" lon="6.97092">
        <ele>1947.746</ele>
        <time>2016-03-13T15:28:01Z</time>
      </trkpt>
      <trkpt lat="44.4346" lon="6.97104">
        <ele>1946.803</ele>
        <time>2016-03-13T15:28:52Z</time>
      </trkpt>
      <trkpt lat="44.43451" lon="6.97116">
        <ele>1942.802</ele>
        <time>2016-03-13T15:28:55Z</time>
      </trkpt>
      <trkpt lat="44.43448" lon="6.97121">
        <ele>1942.802</ele>
        <time>2016-03-13T15:28:56Z</time>
      </trkpt>
      <trkpt lat="44.43439" lon="6.97129">
        <ele>1941.236</ele>
        <time>2016-03-13T15:28:58Z</time>
      </trkpt>
      <trkpt lat="44.43434" lon="6.97141">
        <ele>1939.119</ele>
        <time>2016-03-13T15:29:00Z</time>
      </trkpt>
      <trkpt lat="44.43431" lon="6.97158">
        <ele>1935.412</ele>
        <time>2016-03-13T15:29:02Z</time>
      </trkpt>
      <trkpt lat="44.43429" lon="6.97166">
        <ele>1935.412</ele>
        <time>2016-03-13T15:29:03Z</time>
      </trkpt>
      <trkpt lat="44.43424" lon="6.9718">
        <ele>1933.134</ele>
        <time>2016-03-13T15:29:05Z</time>
      </trkpt>
      <trkpt lat="44.43419" lon="6.97194">
        <ele>1930.629</ele>
        <time>2016-03-13T15:29:07Z</time>
      </trkpt>
      <trkpt lat="44.43414" lon="6.97208">
        <ele>1926.795</ele>
        <time>2016-03-13T15:29:09Z</time>
      </trkpt>
      <trkpt lat="44.43412" lon="6.97214">
        <ele>1926.795</ele>
        <time>2016-03-13T15:29:10Z</time>
      </trkpt>
      <trkpt lat="44.43407" lon="6.97227">
        <ele>1925.313</ele>
        <time>2016-03-13T15:29:12Z</time>
      </trkpt>
      <trkpt lat="44.43405" lon="6.97234">
        <ele>1924.359</ele>
        <time>2016-03-13T15:29:13Z</time>
      </trkpt>
      <trkpt lat="44.43398" lon="6.97258">
        <ele>1920.604</ele>
        <time>2016-03-13T15:29:16Z</time>
      </trkpt>
      <trkpt lat="44.43395" lon="6.97266">
        <ele>1920.604</ele>
        <time>2016-03-13T15:29:17Z</time>
      </trkpt>
      <trkpt lat="44.4339" lon="6.97282">
        <ele>1919.365</ele>
        <time>2016-03-13T15:29:19Z</time>
      </trkpt>
      <trkpt lat="44.43386" lon="6.97298">
        <ele>1917.389</ele>
        <time>2016-03-13T15:29:21Z</time>
      </trkpt>
      <trkpt lat="44.43384" lon="6.97311">
        <ele>1915.724</ele>
        <time>2016-03-13T15:29:23Z</time>
      </trkpt>
      <trkpt lat="44.43384" lon="6.9732">
        <ele>1914.371</ele>
        <time>2016-03-13T15:29:31Z</time>
      </trkpt>
      <trkpt lat="44.43385" lon="6.97344">
        <ele>1912.706</ele>
        <time>2016-03-13T15:30:02Z</time>
      </trkpt>
      <trkpt lat="44.43388" lon="6.97372">
        <ele>1911.158</ele>
        <time>2016-03-13T15:30:14Z</time>
      </trkpt>
      <trkpt lat="44.43379" lon="6.9738">
        <ele>1909.073</ele>
        <time>2016-03-13T15:30:17Z</time>
      </trkpt>
      <trkpt lat="44.43368" lon="6.97385">
        <ele>1907.002</ele>
        <time>2016-03-13T15:30:19Z</time>
      </trkpt>
      <trkpt lat="44.43363" lon="6.97402">
        <ele>1904.211</ele>
        <time>2016-03-13T15:30:21Z</time>
      </trkpt>
      <trkpt lat="44.43358" lon="6.97429">
        <ele>1900.38</ele>
        <time>2016-03-13T15:30:24Z</time>
      </trkpt>
      <trkpt lat="44.43356" lon="6.97438">
        <ele>1898.871</ele>
        <time>2016-03-13T15:30:25Z</time>
      </trkpt>
      <trkpt lat="44.43356" lon="6.9746">
        <ele>1896.208</ele>
        <time>2016-03-13T15:30:28Z</time>
      </trkpt>
      <trkpt lat="44.43358" lon="6.97469">
        <ele>1895.65</ele>
        <time>2016-03-13T15:30:30Z</time>
      </trkpt>
      <trkpt lat="44.43356" lon="6.97484">
        <ele>1893.716</ele>
        <time>2016-03-13T15:30:34Z</time>
      </trkpt>
      <trkpt lat="44.43338" lon="6.97504">
        <ele>1890.873</ele>
        <time>2016-03-13T15:30:40Z</time>
      </trkpt>
      <trkpt lat="44.43323" lon="6.97516">
        <ele>1888.328</ele>
        <time>2016-03-13T15:30:49Z</time>
      </trkpt>
      <trkpt lat="44.43321" lon="6.97531">
        <ele>1888.157</ele>
        <time>2016-03-13T15:31:02Z</time>
      </trkpt>
      <trkpt lat="44.4332" lon="6.97546">
        <ele>1888.067</ele>
        <time>2016-03-13T15:31:22Z</time>
      </trkpt>
      <trkpt lat="44.43321" lon="6.97549">
        <ele>1887.853</ele>
        <time>2016-03-13T15:31:34Z</time>
      </trkpt>
      <trkpt lat="44.43321" lon="6.97558">
        <ele>1888.511</ele>
        <time>2016-03-13T15:31:48Z</time>
      </trkpt>
      <trkpt lat="44.43319" lon="6.97574">
        <ele>1888.294</ele>
        <time>2016-03-13T15:32:01Z</time>
      </trkpt>
      <trkpt lat="44.43314" lon="6.97587">
        <ele>1889.393</ele>
        <time>2016-03-13T15:32:21Z</time>
      </trkpt>
      <trkpt lat="44.43309" lon="6.97601">
        <ele>1890.881</ele>
        <time>2016-03-13T15:32:42Z</time>
      </trkpt>
      <trkpt lat="44.43306" lon="6.97608">
        <ele>1891</ele>
        <time>2016-03-13T15:32:56Z</time>
      </trkpt>
      <trkpt lat="44.433" lon="6.97623">
        <ele>1891.422</ele>
        <time>2016-03-13T15:33:11Z</time>
      </trkpt>
      <trkpt lat="44.43297" lon="6.97632">
        <ele>1891.89</ele>
        <time>2016-03-13T15:33:23Z</time>
      </trkpt>
      <trkpt lat="44.43293" lon="6.97644">
        <ele>1891.766</ele>
        <time>2016-03-13T15:33:33Z</time>
      </trkpt>
      <trkpt lat="44.4329" lon="6.97653">
        <ele>1892.503</ele>
        <time>2016-03-13T15:33:46Z</time>
      </trkpt>
      <trkpt lat="44.43288" lon="6.97663">
        <ele>1892.308</ele>
        <time>2016-03-13T15:34:01Z</time>
      </trkpt>
      <trkpt lat="44.43284" lon="6.97679">
        <ele>1892.308</ele>
        <time>2016-03-13T15:34:17Z</time>
      </trkpt>
      <trkpt lat="44.43279" lon="6.97688">
        <ele>1892.915</ele>
        <time>2016-03-13T15:34:33Z</time>
      </trkpt>
      <trkpt lat="44.43275" lon="6.97694">
        <ele>1893.724</ele>
        <time>2016-03-13T15:34:47Z</time>
      </trkpt>
      <trkpt lat="44.43275" lon="6.97708">
        <ele>1893.486</ele>
        <time>2016-03-13T15:35:00Z</time>
      </trkpt>
      <trkpt lat="44.43273" lon="6.97714">
        <ele>1894.234</ele>
        <time>2016-03-13T15:35:11Z</time>
      </trkpt>
      <trkpt lat="44.43272" lon="6.97721">
        <ele>1895.169</ele>
        <time>2016-03-13T15:35:23Z</time>
      </trkpt>
      <trkpt lat="44.4327" lon="6.97725">
        <ele>1895.217</ele>
        <time>2016-03-13T15:35:37Z</time>
      </trkpt>
      <trkpt lat="44.43279" lon="6.97746">
        <ele>1893.563</ele>
        <time>2016-03-13T15:35:46Z</time>
      </trkpt>
      <trkpt lat="44.4328" lon="6.97774">
        <ele>1890.971</ele>
        <time>2016-03-13T15:35:52Z</time>
      </trkpt>
      <trkpt lat="44.43273" lon="6.97785">
        <ele>1887.882</ele>
        <time>2016-03-13T15:35:56Z</time>
      </trkpt>
      <trkpt lat="44.43267" lon="6.97792">
        <ele>1887.007</ele>
        <time>2016-03-13T15:35:58Z</time>
      </trkpt>
      <trkpt lat="44.43267" lon="6.978">
        <ele>1885.406</ele>
        <time>2016-03-13T15:36:00Z</time>
      </trkpt>
      <trkpt lat="44.43263" lon="6.97807">
        <ele>1884.22</ele>
        <time>2016-03-13T15:36:02Z</time>
      </trkpt>
      <trkpt lat="44.43258" lon="6.97808">
        <ele>1883.667</ele>
        <time>2016-03-13T15:36:04Z</time>
      </trkpt>
      <trkpt lat="44.43246" lon="6.97808">
        <ele>1881.474</ele>
        <time>2016-03-13T15:36:07Z</time>
      </trkpt>
      <trkpt lat="44.43241" lon="6.97812">
        <ele>1880.811</ele>
        <time>2016-03-13T15:36:09Z</time>
      </trkpt>
      <trkpt lat="44.43236" lon="6.97822">
        <ele>1879.878</ele>
        <time>2016-03-13T15:36:11Z</time>
      </trkpt>
      <trkpt lat="44.43221" lon="6.97834">
        <ele>1876.842</ele>
        <time>2016-03-13T15:36:16Z</time>
      </trkpt>
      <trkpt lat="44.43219" lon="6.97839">
        <ele>1875.088</ele>
        <time>2016-03-13T15:36:18Z</time>
      </trkpt>
      <trkpt lat="44.43221" lon="6.97847">
        <ele>1875.386</ele>
        <time>2016-03-13T15:36:44Z</time>
      </trkpt>
      <trkpt lat="44.43225" lon="6.97863">
        <ele>1874.142</ele>
        <time>2016-03-13T15:39:16Z</time>
      </trkpt>
      <trkpt lat="44.43226" lon="6.97873">
        <ele>1869.256</ele>
        <time>2016-03-13T15:39:18Z</time>
      </trkpt>
      <trkpt lat="44.43226" lon="6.97877">
        <ele>1869.473</ele>
        <time>2016-03-13T15:39:42Z</time>
      </trkpt>
      <trkpt lat="44.43229" lon="6.97885">
        <ele>1868.215</ele>
        <time>2016-03-13T15:39:48Z</time>
      </trkpt>
      <trkpt lat="44.43231" lon="6.97905">
        <ele>1865.559</ele>
        <time>2016-03-13T15:39:58Z</time>
      </trkpt>
      <trkpt lat="44.43233" lon="6.97921">
        <ele>1863.403</ele>
        <time>2016-03-13T15:42:00Z</time>
      </trkpt>
      <trkpt lat="44.43235" lon="6.97932">
        <ele>1862.79</ele>
        <time>2016-03-13T15:42:08Z</time>
      </trkpt>
      <trkpt lat="44.43238" lon="6.9795">
        <ele>1860.317</ele>
        <time>2016-03-13T15:42:17Z</time>
      </trkpt>
      <trkpt lat="44.4324" lon="6.97975">
        <ele>1856.578</ele>
        <time>2016-03-13T15:42:25Z</time>
      </trkpt>
      <trkpt lat="44.43242" lon="6.97978">
        <ele>1856.578</ele>
        <time>2016-03-13T15:42:26Z</time>
      </trkpt>
      <trkpt lat="44.43243" lon="6.97981">
        <ele>1855.294</ele>
        <time>2016-03-13T15:42:27Z</time>
      </trkpt>
      <trkpt lat="44.43243" lon="6.97992">
        <ele>1854.644</ele>
        <time>2016-03-13T15:42:31Z</time>
      </trkpt>
      <trkpt lat="44.43238" lon="6.98001">
        <ele>1851.428</ele>
        <time>2016-03-13T15:42:37Z</time>
      </trkpt>
      <trkpt lat="44.43241" lon="6.98017">
        <ele>1851.164</ele>
        <time>2016-03-13T15:42:42Z</time>
      </trkpt>
      <trkpt lat="44.43245" lon="6.98029">
        <ele>1849.251</ele>
        <time>2016-03-13T15:42:44Z</time>
      </trkpt>
      <trkpt lat="44.43249" lon="6.98041">
        <ele>1845.967</ele>
        <time>2016-03-13T15:42:46Z</time>
      </trkpt>
      <trkpt lat="44.43252" lon="6.98047">
        <ele>1845.967</ele>
        <time>2016-03-13T15:42:47Z</time>
      </trkpt>
      <trkpt lat="44.43253" lon="6.98055">
        <ele>1844.735</ele>
        <time>2016-03-13T15:42:49Z</time>
      </trkpt>
      <trkpt lat="44.4325" lon="6.98061">
        <ele>1843.435</ele>
        <time>2016-03-13T15:42:52Z</time>
      </trkpt>
      <trkpt lat="44.43244" lon="6.98065">
        <ele>1842.08</ele>
        <time>2016-03-13T15:42:59Z</time>
      </trkpt>
      <trkpt lat="44.43242" lon="6.98092">
        <ele>1839.157</ele>
        <time>2016-03-13T15:43:07Z</time>
      </trkpt>
      <trkpt lat="44.43241" lon="6.98096">
        <ele>1838.983</ele>
        <time>2016-03-13T15:43:11Z</time>
      </trkpt>
      <trkpt lat="44.43236" lon="6.98105">
        <ele>1838.637</ele>
        <time>2016-03-13T15:43:16Z</time>
      </trkpt>
      <trkpt lat="44.4324" lon="6.9811">
        <ele>1836.396</ele>
        <time>2016-03-13T15:43:20Z</time>
      </trkpt>
      <trkpt lat="44.43241" lon="6.98117">
        <ele>1835.437</ele>
        <time>2016-03-13T15:43:23Z</time>
      </trkpt>
      <trkpt lat="44.43237" lon="6.9812">
        <ele>1835.064</ele>
        <time>2016-03-13T15:43:26Z</time>
      </trkpt>
      <trkpt lat="44.4323" lon="6.98135">
        <ele>1833.574</ele>
        <time>2016-03-13T15:43:33Z</time>
      </trkpt>
      <trkpt lat="44.43221" lon="6.98138">
        <ele>1830.052</ele>
        <time>2016-03-13T15:43:36Z</time>
      </trkpt>
      <trkpt lat="44.43214" lon="6.98141">
        <ele>1829.273</ele>
        <time>2016-03-13T15:43:46Z</time>
      </trkpt>
      <trkpt lat="44.43235" lon="6.98161">
        <ele>1825.985</ele>
        <time>2016-03-13T15:44:26Z</time>
      </trkpt>
      <trkpt lat="44.43239" lon="6.98162">
        <ele>1825.985</ele>
        <time>2016-03-13T15:44:27Z</time>
      </trkpt>
      <trkpt lat="44.43252" lon="6.98167">
        <ele>1825.026</ele>
        <time>2016-03-13T15:44:31Z</time>
      </trkpt>
      <trkpt lat="44.43261" lon="6.98167">
        <ele>1824.257</ele>
        <time>2016-03-13T15:44:33Z</time>
      </trkpt>
      <trkpt lat="44.43273" lon="6.98158">
        <ele>1822.091</ele>
        <time>2016-03-13T15:44:36Z</time>
      </trkpt>
      <trkpt lat="44.43276" lon="6.98154">
        <ele>1821.018</ele>
        <time>2016-03-13T15:44:37Z</time>
      </trkpt>
      <trkpt lat="44.43287" lon="6.98143">
        <ele>1820.17</ele>
        <time>2016-03-13T15:44:40Z</time>
      </trkpt>
      <trkpt lat="44.43295" lon="6.98137">
        <ele>1818.148</ele>
        <time>2016-03-13T15:44:42Z</time>
      </trkpt>
      <trkpt lat="44.43323" lon="6.98135">
        <ele>1813.974</ele>
        <time>2016-03-13T15:44:49Z</time>
      </trkpt>
      <trkpt lat="44.43326" lon="6.98135">
        <ele>1813.974</ele>
        <time>2016-03-13T15:44:50Z</time>
      </trkpt>
      <trkpt lat="44.43344" lon="6.98132">
        <ele>1810.745</ele>
        <time>2016-03-13T15:44:56Z</time>
      </trkpt>
      <trkpt lat="44.43368" lon="6.98123">
        <ele>1807.904</ele>
        <time>2016-03-13T15:45:04Z</time>
      </trkpt>
      <trkpt lat="44.43382" lon="6.98107">
        <ele>1805.579</ele>
        <time>2016-03-13T15:45:09Z</time>
      </trkpt>
      <trkpt lat="44.43397" lon="6.98114">
        <ele>1803.156</ele>
        <time>2016-03-13T15:45:15Z</time>
      </trkpt>
      <trkpt lat="44.43394" lon="6.98116">
        <ele>1802.109</ele>
        <time>2016-03-13T15:45:17Z</time>
      </trkpt>
      <trkpt lat="44.43374" lon="6.98143">
        <ele>1799.618</ele>
        <time>2016-03-13T15:45:29Z</time>
      </trkpt>
      <trkpt lat="44.43354" lon="6.98165">
        <ele>1795.765</ele>
        <time>2016-03-13T15:45:35Z</time>
      </trkpt>
      <trkpt lat="44.43336" lon="6.98187">
        <ele>1792.684</ele>
        <time>2016-03-13T15:45:40Z</time>
      </trkpt>
      <trkpt lat="44.43332" lon="6.98191">
        <ele>1792.684</ele>
        <time>2016-03-13T15:45:41Z</time>
      </trkpt>
      <trkpt lat="44.43324" lon="6.98199">
        <ele>1791.141</ele>
        <time>2016-03-13T15:45:43Z</time>
      </trkpt>
      <trkpt lat="44.43316" lon="6.98229">
        <ele>1787.59</ele>
        <time>2016-03-13T15:45:48Z</time>
      </trkpt>
      <trkpt lat="44.43325" lon="6.98247">
        <ele>1785.191</ele>
        <time>2016-03-13T15:45:51Z</time>
      </trkpt>
      <trkpt lat="44.43338" lon="6.98264">
        <ele>1783.943</ele>
        <time>2016-03-13T15:46:01Z</time>
      </trkpt>
      <trkpt lat="44.43341" lon="6.98262">
        <ele>1783.825</ele>
        <time>2016-03-13T15:47:28Z</time>
      </trkpt>
      <trkpt lat="44.4335" lon="6.98244">
        <ele>1781.425</ele>
        <time>2016-03-13T15:47:32Z</time>
      </trkpt>
      <trkpt lat="44.43354" lon="6.98242">
        <ele>1780.065</ele>
        <time>2016-03-13T15:47:33Z</time>
      </trkpt>
      <trkpt lat="44.43374" lon="6.98233">
        <ele>1777.37</ele>
        <time>2016-03-13T15:47:37Z</time>
      </trkpt>
      <trkpt lat="44.43385" lon="6.98226">
        <ele>1776.32</ele>
        <time>2016-03-13T15:47:39Z</time>
      </trkpt>
      <trkpt lat="44.4339" lon="6.98225">
        <ele>1774.695</ele>
        <time>2016-03-13T15:47:40Z</time>
      </trkpt>
      <trkpt lat="44.43407" lon="6.98226">
        <ele>1773.131</ele>
        <time>2016-03-13T15:47:43Z</time>
      </trkpt>
      <trkpt lat="44.43414" lon="6.98226">
        <ele>1771.918</ele>
        <time>2016-03-13T15:47:44Z</time>
      </trkpt>
      <trkpt lat="44.43424" lon="6.98222">
        <ele>1770.307</ele>
        <time>2016-03-13T15:47:46Z</time>
      </trkpt>
      <trkpt lat="44.43432" lon="6.98214">
        <ele>1768.452</ele>
        <time>2016-03-13T15:47:48Z</time>
      </trkpt>
      <trkpt lat="44.43435" lon="6.9821">
        <ele>1767.611</ele>
        <time>2016-03-13T15:47:49Z</time>
      </trkpt>
      <trkpt lat="44.43455" lon="6.98202">
        <ele>1764.824</ele>
        <time>2016-03-13T15:47:53Z</time>
      </trkpt>
      <trkpt lat="44.43461" lon="6.98204">
        <ele>1764.021</ele>
        <time>2016-03-13T15:47:54Z</time>
      </trkpt>
      <trkpt lat="44.43478" lon="6.98211">
        <ele>1762.517</ele>
        <time>2016-03-13T15:47:57Z</time>
      </trkpt>
      <trkpt lat="44.43492" lon="6.98223">
        <ele>1759.647</ele>
        <time>2016-03-13T15:48:00Z</time>
      </trkpt>
      <trkpt lat="44.435" lon="6.98229">
        <ele>1757.785</ele>
        <time>2016-03-13T15:48:02Z</time>
      </trkpt>
      <trkpt lat="44.43507" lon="6.98237">
        <ele>1756.255</ele>
        <time>2016-03-13T15:48:04Z</time>
      </trkpt>
      <trkpt lat="44.43515" lon="6.98247">
        <ele>1753.036</ele>
        <time>2016-03-13T15:48:08Z</time>
      </trkpt>
      <trkpt lat="44.43517" lon="6.9825">
        <ele>1753.036</ele>
        <time>2016-03-13T15:48:09Z</time>
      </trkpt>
      <trkpt lat="44.43532" lon="6.98263">
        <ele>1749.876</ele>
        <time>2016-03-13T15:48:15Z</time>
      </trkpt>
      <trkpt lat="44.43535" lon="6.98266">
        <ele>1749.876</ele>
        <time>2016-03-13T15:48:16Z</time>
      </trkpt>
      <trkpt lat="44.43554" lon="6.98283">
        <ele>1747.004</ele>
        <time>2016-03-13T15:48:22Z</time>
      </trkpt>
      <trkpt lat="44.43567" lon="6.98296">
        <ele>1745.112</ele>
        <time>2016-03-13T15:48:26Z</time>
      </trkpt>
      <trkpt lat="44.43578" lon="6.98307">
        <ele>1742.478</ele>
        <time>2016-03-13T15:48:30Z</time>
      </trkpt>
      <trkpt lat="44.43594" lon="6.98318">
        <ele>1739.378</ele>
        <time>2016-03-13T15:48:38Z</time>
      </trkpt>
      <trkpt lat="44.43608" lon="6.9833">
        <ele>1737.248</ele>
        <time>2016-03-13T15:48:44Z</time>
      </trkpt>
      <trkpt lat="44.43613" lon="6.98335">
        <ele>1736.242</ele>
        <time>2016-03-13T15:49:27Z</time>
      </trkpt>
      <trkpt lat="44.43602" lon="6.98337">
        <ele>1732.812</ele>
        <time>2016-03-13T15:50:20Z</time>
      </trkpt>
      <trkpt lat="44.43597" lon="6.98339">
        <ele>1731.486</ele>
        <time>2016-03-13T15:50:27Z</time>
      </trkpt>
      <trkpt lat="44.43597" lon="6.98347">
        <ele>1729.401</ele>
        <time>2016-03-13T15:50:32Z</time>
      </trkpt>
      <trkpt lat="44.43593" lon="6.9836">
        <ele>1727.924</ele>
        <time>2016-03-13T15:50:35Z</time>
      </trkpt>
      <trkpt lat="44.43589" lon="6.98362">
        <ele>1726.024</ele>
        <time>2016-03-13T15:50:36Z</time>
      </trkpt>
      <trkpt lat="44.43571" lon="6.98365">
        <ele>1723.265</ele>
        <time>2016-03-13T15:50:42Z</time>
      </trkpt>
      <trkpt lat="44.43553" lon="6.98371">
        <ele>1719.777</ele>
        <time>2016-03-13T15:50:50Z</time>
      </trkpt>
      <trkpt lat="44.4355" lon="6.9837">
        <ele>1719.862</ele>
        <time>2016-03-13T15:50:52Z</time>
      </trkpt>
      <trkpt lat="44.43542" lon="6.98375">
        <ele>1718.311</ele>
        <time>2016-03-13T15:50:59Z</time>
      </trkpt>
      <trkpt lat="44.43539" lon="6.9839">
        <ele>1717.368</ele>
        <time>2016-03-13T15:51:08Z</time>
      </trkpt>
      <trkpt lat="44.43538" lon="6.98402">
        <ele>1716.292</ele>
        <time>2016-03-13T15:51:10Z</time>
      </trkpt>
      <trkpt lat="44.43539" lon="6.98413">
        <ele>1715.674</ele>
        <time>2016-03-13T15:51:12Z</time>
      </trkpt>
      <trkpt lat="44.43542" lon="6.98428">
        <ele>1714.704</ele>
        <time>2016-03-13T15:51:52Z</time>
      </trkpt>
      <trkpt lat="44.43548" lon="6.98412">
        <ele>1713.827</ele>
        <time>2016-03-13T15:52:00Z</time>
      </trkpt>
      <trkpt lat="44.43555" lon="6.98415">
        <ele>1711.478</ele>
        <time>2016-03-13T15:52:03Z</time>
      </trkpt>
      <trkpt lat="44.43554" lon="6.98418">
        <ele>1710.292</ele>
        <time>2016-03-13T15:52:04Z</time>
      </trkpt>
      <trkpt lat="44.43553" lon="6.98426">
        <ele>1709.974</ele>
        <time>2016-03-13T15:52:07Z</time>
      </trkpt>
      <trkpt lat="44.43561" lon="6.98434">
        <ele>1708.476</ele>
        <time>2016-03-13T15:52:10Z</time>
      </trkpt>
      <trkpt lat="44.43566" lon="6.98436">
        <ele>1707.266</ele>
        <time>2016-03-13T15:52:11Z</time>
      </trkpt>
      <trkpt lat="44.43569" lon="6.98451">
        <ele>1705.715</ele>
        <time>2016-03-13T15:52:14Z</time>
      </trkpt>
      <trkpt lat="44.43564" lon="6.9846">
        <ele>1703.221</ele>
        <time>2016-03-13T15:52:16Z</time>
      </trkpt>
      <trkpt lat="44.43566" lon="6.98478">
        <ele>1701.889</ele>
        <time>2016-03-13T15:52:19Z</time>
      </trkpt>
      <trkpt lat="44.43568" lon="6.98485">
        <ele>1700.57</ele>
        <time>2016-03-13T15:52:20Z</time>
      </trkpt>
      <trkpt lat="44.4357" lon="6.98508">
        <ele>1697.072</ele>
        <time>2016-03-13T15:52:23Z</time>
      </trkpt>
      <trkpt lat="44.43571" lon="6.98516">
        <ele>1697.072</ele>
        <time>2016-03-13T15:52:24Z</time>
      </trkpt>
      <trkpt lat="44.43567" lon="6.9853">
        <ele>1695.505</ele>
        <time>2016-03-13T15:52:26Z</time>
      </trkpt>
      <trkpt lat="44.4356" lon="6.98539">
        <ele>1693.864</ele>
        <time>2016-03-13T15:52:28Z</time>
      </trkpt>
      <trkpt lat="44.43552" lon="6.98542">
        <ele>1693.333</ele>
        <time>2016-03-13T15:52:30Z</time>
      </trkpt>
      <trkpt lat="44.43548" lon="6.98548">
        <ele>1691.061</ele>
        <time>2016-03-13T15:52:45Z</time>
      </trkpt>
      <trkpt lat="44.43553" lon="6.98556">
        <ele>1689.623</ele>
        <time>2016-03-13T15:53:29Z</time>
      </trkpt>
      <trkpt lat="44.4355" lon="6.98556">
        <ele>1689.079</ele>
        <time>2016-03-13T15:55:02Z</time>
      </trkpt>
      <trkpt lat="44.43546" lon="6.98557">
        <ele>1687.766</ele>
        <time>2016-03-13T15:55:05Z</time>
      </trkpt>
      <trkpt lat="44.4354" lon="6.98564">
        <ele>1687.248</ele>
        <time>2016-03-13T15:55:09Z</time>
      </trkpt>
      <trkpt lat="44.43548" lon="6.98566">
        <ele>1685.322</ele>
        <time>2016-03-13T15:55:13Z</time>
      </trkpt>
      <trkpt lat="44.43551" lon="6.98567">
        <ele>1684.579</ele>
        <time>2016-03-13T15:55:14Z</time>
      </trkpt>
      <trkpt lat="44.43545" lon="6.98578">
        <ele>1683.282</ele>
        <time>2016-03-13T15:55:19Z</time>
      </trkpt>
      <trkpt lat="44.43541" lon="6.98589">
        <ele>1680.602</ele>
        <time>2016-03-13T15:55:22Z</time>
      </trkpt>
      <trkpt lat="44.43538" lon="6.98593">
        <ele>1679.62</ele>
        <time>2016-03-13T15:55:23Z</time>
      </trkpt>
      <trkpt lat="44.43534" lon="6.98608">
        <ele>1678.388</ele>
        <time>2016-03-13T15:55:26Z</time>
      </trkpt>
      <trkpt lat="44.4354" lon="6.9862">
        <ele>1674.554</ele>
        <time>2016-03-13T15:55:28Z</time>
      </trkpt>
      <trkpt lat="44.4354" lon="6.98642">
        <ele>1672.813</ele>
        <time>2016-03-13T15:55:31Z</time>
      </trkpt>
      <trkpt lat="44.43543" lon="6.98658">
        <ele>1670.871</ele>
        <time>2016-03-13T15:55:33Z</time>
      </trkpt>
      <trkpt lat="44.4355" lon="6.98683">
        <ele>1668.144</ele>
        <time>2016-03-13T15:55:36Z</time>
      </trkpt>
      <trkpt lat="44.43556" lon="6.98699">
        <ele>1665.903</ele>
        <time>2016-03-13T15:55:38Z</time>
      </trkpt>
      <trkpt lat="44.43563" lon="6.98723">
        <ele>1663.454</ele>
        <time>2016-03-13T15:55:41Z</time>
      </trkpt>
      <trkpt lat="44.43566" lon="6.98736">
        <ele>1662.167</ele>
        <time>2016-03-13T15:55:43Z</time>
      </trkpt>
      <trkpt lat="44.43572" lon="6.98743">
        <ele>1660.904</ele>
        <time>2016-03-13T15:55:45Z</time>
      </trkpt>
      <trkpt lat="44.43591" lon="6.98761">
        <ele>1657.355</ele>
        <time>2016-03-13T15:55:51Z</time>
      </trkpt>
      <trkpt lat="44.43606" lon="6.98775">
        <ele>1656.264</ele>
        <time>2016-03-13T15:55:57Z</time>
      </trkpt>
      <trkpt lat="44.43617" lon="6.98785">
        <ele>1654.837</ele>
        <time>2016-03-13T15:56:00Z</time>
      </trkpt>
      <trkpt lat="44.43626" lon="6.98829">
        <ele>1652.467</ele>
        <time>2016-03-13T15:56:12Z</time>
      </trkpt>
      <trkpt lat="44.4363" lon="6.9885">
        <ele>1650.617</ele>
        <time>2016-03-13T15:56:22Z</time>
      </trkpt>
      <trkpt lat="44.43665" lon="6.98873">
        <ele>1648.07</ele>
        <time>2016-03-13T15:59:07Z</time>
      </trkpt>
      <trkpt lat="44.43693" lon="6.98891">
        <ele>1645.737</ele>
        <time>2016-03-13T15:59:19Z</time>
      </trkpt>
      <trkpt lat="44.43712" lon="6.98904">
        <ele>1644.45</ele>
        <time>2016-03-13T15:59:31Z</time>
      </trkpt>
      <trkpt lat="44.43715" lon="6.98914">
        <ele>1643.158</ele>
        <time>2016-03-13T15:59:41Z</time>
      </trkpt>
      <trkpt lat="44.43713" lon="6.98916">
        <ele>1642.952</ele>
        <time>2016-03-13T16:00:03Z</time>
      </trkpt>
      <trkpt lat="44.43712" lon="6.98925">
        <ele>1641.216</ele>
        <time>2016-03-13T16:00:22Z</time>
      </trkpt>
      <trkpt lat="44.43702" lon="6.98939">
        <ele>1639.459</ele>
        <time>2016-03-13T16:00:27Z</time>
      </trkpt>
      <trkpt lat="44.43696" lon="6.98945">
        <ele>1637.551</ele>
        <time>2016-03-13T16:00:39Z</time>
      </trkpt>
      <trkpt lat="44.43698" lon="6.9895">
        <ele>1637.218</ele>
        <time>2016-03-13T16:01:31Z</time>
      </trkpt>
      <trkpt lat="44.43696" lon="6.98968">
        <ele>1636.246</ele>
        <time>2016-03-13T16:01:41Z</time>
      </trkpt>
      <trkpt lat="44.43702" lon="6.98972">
        <ele>1636.616</ele>
        <time>2016-03-13T16:01:56Z</time>
      </trkpt>
      <trkpt lat="44.43706" lon="6.98972">
        <ele>1636.431</ele>
        <time>2016-03-13T16:02:04Z</time>
      </trkpt>
      <trkpt lat="44.4374" lon="6.98981">
        <ele>1633.831</ele>
        <time>2016-03-13T16:02:21Z</time>
      </trkpt>
      <trkpt lat="44.4376" lon="6.98985">
        <ele>1632.404</ele>
        <time>2016-03-13T16:02:37Z</time>
      </trkpt>
      <trkpt lat="44.43774" lon="6.98994">
        <ele>1630.361</ele>
        <time>2016-03-13T16:02:44Z</time>
      </trkpt>
      <trkpt lat="44.43778" lon="6.98993">
        <ele>1629.962</ele>
        <time>2016-03-13T16:02:46Z</time>
      </trkpt>
      <trkpt lat="44.4379" lon="6.99">
        <ele>1628.633</ele>
        <time>2016-03-13T16:02:49Z</time>
      </trkpt>
      <trkpt lat="44.43795" lon="6.9901">
        <ele>1627.999</ele>
        <time>2016-03-13T16:02:51Z</time>
      </trkpt>
      <trkpt lat="44.438" lon="6.99017">
        <ele>1626.979</ele>
        <time>2016-03-13T16:02:53Z</time>
      </trkpt>
      <trkpt lat="44.43824" lon="6.99037">
        <ele>1623.629</ele>
        <time>2016-03-13T16:03:01Z</time>
      </trkpt>
      <trkpt lat="44.43827" lon="6.99041">
        <ele>1622.754</ele>
        <time>2016-03-13T16:03:11Z</time>
      </trkpt>
      <trkpt lat="44.43835" lon="6.99049">
        <ele>1622.421</ele>
        <time>2016-03-13T16:03:22Z</time>
      </trkpt>
      <trkpt lat="44.43842" lon="6.99069">
        <ele>1621.288</ele>
        <time>2016-03-13T16:03:26Z</time>
      </trkpt>
      <trkpt lat="44.43844" lon="6.99079">
        <ele>1620.527</ele>
        <time>2016-03-13T16:03:28Z</time>
      </trkpt>
      <trkpt lat="44.43849" lon="6.99088">
        <ele>1619.607</ele>
        <time>2016-03-13T16:03:31Z</time>
      </trkpt>
      <trkpt lat="44.43853" lon="6.9909">
        <ele>1619.187</ele>
        <time>2016-03-13T16:03:33Z</time>
      </trkpt>
      <trkpt lat="44.43854" lon="6.99095">
        <ele>1619.097</ele>
        <time>2016-03-13T16:03:49Z</time>
      </trkpt>
      <trkpt lat="44.43852" lon="6.99097">
        <ele>1618.867</ele>
        <time>2016-03-13T16:04:04Z</time>
      </trkpt>
      <trkpt lat="44.43851" lon="6.99104">
        <ele>1617.525</ele>
        <time>2016-03-13T16:04:09Z</time>
      </trkpt>
      <trkpt lat="44.43859" lon="6.9911">
        <ele>1617.174</ele>
        <time>2016-03-13T16:04:18Z</time>
      </trkpt>
      <trkpt lat="44.43862" lon="6.99114">
        <ele>1617.396</ele>
        <time>2016-03-13T16:04:27Z</time>
      </trkpt>
      <trkpt lat="44.43864" lon="6.99119">
        <ele>1617.298</ele>
        <time>2016-03-13T16:04:30Z</time>
      </trkpt>
      <trkpt lat="44.43881" lon="6.99125">
        <ele>1615.292</ele>
        <time>2016-03-13T16:04:37Z</time>
      </trkpt>
      <trkpt lat="44.43889" lon="6.99137">
        <ele>1613.992</ele>
        <time>2016-03-13T16:04:40Z</time>
      </trkpt>
      <trkpt lat="44.43904" lon="6.99157">
        <ele>1610.293</ele>
        <time>2016-03-13T16:04:44Z</time>
      </trkpt>
      <trkpt lat="44.43908" lon="6.99161">
        <ele>1610.293</ele>
        <time>2016-03-13T16:04:45Z</time>
      </trkpt>
      <trkpt lat="44.4393" lon="6.99182">
        <ele>1608.269</ele>
        <time>2016-03-13T16:04:55Z</time>
      </trkpt>
      <trkpt lat="44.43936" lon="6.99186">
        <ele>1607.505</ele>
        <time>2016-03-13T16:04:57Z</time>
      </trkpt>
      <trkpt lat="44.4394" lon="6.99184">
        <ele>1606.142</ele>
        <time>2016-03-13T16:05:06Z</time>
      </trkpt>
      <trkpt lat="44.43943" lon="6.99178">
        <ele>1605.883</ele>
        <time>2016-03-13T16:05:09Z</time>
      </trkpt>
      <trkpt lat="44.43967" lon="6.99171">
        <ele>1603.315</ele>
        <time>2016-03-13T16:05:20Z</time>
      </trkpt>
      <trkpt lat="44.43984" lon="6.99179">
        <ele>1602.4</ele>
        <time>2016-03-13T16:05:45Z</time>
      </trkpt>
      <trkpt lat="44.43997" lon="6.99212">
        <ele>1600.244</ele>
        <time>2016-03-13T16:05:56Z</time>
      </trkpt>
      <trkpt lat="44.44008" lon="6.99243">
        <ele>1598.004</ele>
        <time>2016-03-13T16:06:08Z</time>
      </trkpt>
      <trkpt lat="44.44021" lon="6.9927">
        <ele>1595.549</ele>
        <time>2016-03-13T16:06:18Z</time>
      </trkpt>
      <trkpt lat="44.44047" lon="6.99307">
        <ele>1592.669</ele>
        <time>2016-03-13T16:06:32Z</time>
      </trkpt>
      <trkpt lat="44.44049" lon="6.99312">
        <ele>1592.42</ele>
        <time>2016-03-13T16:06:34Z</time>
      </trkpt>
      <trkpt lat="44.44055" lon="6.99319">
        <ele>1591.982</ele>
        <time>2016-03-13T16:06:39Z</time>
      </trkpt>
      <trkpt lat="44.44075" lon="6.99335">
        <ele>1590.536</ele>
        <time>2016-03-13T16:06:52Z</time>
      </trkpt>
      <trkpt lat="44.44083" lon="6.9934">
        <ele>1589.752</ele>
        <time>2016-03-13T16:07:03Z</time>
      </trkpt>
      <trkpt lat="44.44085" lon="6.99345">
        <ele>1591.186</ele>
        <time>2016-03-13T16:07:29Z</time>
      </trkpt>
      <trkpt lat="44.44086" lon="6.99355">
        <ele>1589.564</ele>
        <time>2016-03-13T16:07:51Z</time>
      </trkpt>
      <trkpt lat="44.44089" lon="6.99366">
        <ele>1588.459</ele>
        <time>2016-03-13T16:08:02Z</time>
      </trkpt>
      <trkpt lat="44.44102" lon="6.99374">
        <ele>1587.989</ele>
        <time>2016-03-13T16:08:20Z</time>
      </trkpt>
      <trkpt lat="44.44116" lon="6.9938">
        <ele>1588.076</ele>
        <time>2016-03-13T16:08:40Z</time>
      </trkpt>
      <trkpt lat="44.44124" lon="6.99383">
        <ele>1588.843</ele>
        <time>2016-03-13T16:08:56Z</time>
      </trkpt>
      <trkpt lat="44.4413" lon="6.99384">
        <ele>1589.992</ele>
        <time>2016-03-13T16:09:08Z</time>
      </trkpt>
      <trkpt lat="44.44133" lon="6.99385">
        <ele>1591.575</ele>
        <time>2016-03-13T16:09:15Z</time>
      </trkpt>
      <trkpt lat="44.44135" lon="6.99386">
        <ele>1590.938</ele>
        <time>2016-03-13T16:09:28Z</time>
      </trkpt>
      <trkpt lat="44.44141" lon="6.99384">
        <ele>1591.916</ele>
        <time>2016-03-13T16:09:44Z</time>
      </trkpt>
      <trkpt lat="44.44148" lon="6.99382">
        <ele>1592.359</ele>
        <time>2016-03-13T16:10:00Z</time>
      </trkpt>
      <trkpt lat="44.44157" lon="6.9938">
        <ele>1592.146</ele>
        <time>2016-03-13T16:10:13Z</time>
      </trkpt>
      <trkpt lat="44.44165" lon="6.99376">
        <ele>1591.823</ele>
        <time>2016-03-13T16:10:24Z</time>
      </trkpt>
      <trkpt lat="44.44189" lon="6.9938">
        <ele>1590.32</ele>
        <time>2016-03-13T16:10:35Z</time>
      </trkpt>
      <trkpt lat="44.44199" lon="6.99386">
        <ele>1588.909</ele>
        <time>2016-03-13T16:10:39Z</time>
      </trkpt>
      <trkpt lat="44.44225" lon="6.99424">
        <ele>1586.56</ele>
        <time>2016-03-13T16:10:50Z</time>
      </trkpt>
      <trkpt lat="44.44231" lon="6.99451">
        <ele>1585.011</ele>
        <time>2016-03-13T16:10:56Z</time>
      </trkpt>
      <trkpt lat="44.44233" lon="6.99457">
        <ele>1585.149</ele>
        <time>2016-03-13T16:11:15Z</time>
      </trkpt>
      <trkpt lat="44.44237" lon="6.99464">
        <ele>1584.002</ele>
        <time>2016-03-13T16:11:38Z</time>
      </trkpt>
      <trkpt lat="44.44241" lon="6.99474">
        <ele>1584.292</ele>
        <time>2016-03-13T16:11:53Z</time>
      </trkpt>
      <trkpt lat="44.44248" lon="6.99491">
        <ele>1584.573</ele>
        <time>2016-03-13T16:12:07Z</time>
      </trkpt>
      <trkpt lat="44.44251" lon="6.99498">
        <ele>1584.071</ele>
        <time>2016-03-13T16:12:10Z</time>
      </trkpt>
      <trkpt lat="44.44255" lon="6.99513">
        <ele>1583.568</ele>
        <time>2016-03-13T16:12:22Z</time>
      </trkpt>
      <trkpt lat="44.44255" lon="6.99522">
        <ele>1583.354</ele>
        <time>2016-03-13T16:12:42Z</time>
      </trkpt>
      <trkpt lat="44.44258" lon="6.99523">
        <ele>1582.646</ele>
        <time>2016-03-13T16:13:34Z</time>
      </trkpt>
      <trkpt lat="44.44258" lon="6.99532">
        <ele>1581.589</ele>
        <time>2016-03-13T16:13:49Z</time>
      </trkpt>
      <trkpt lat="44.4426" lon="6.9954">
        <ele>1579.203</ele>
        <time>2016-03-13T16:14:06Z</time>
      </trkpt>
      <trkpt lat="44.44267" lon="6.99537">
        <ele>1578.152</ele>
        <time>2016-03-13T16:14:20Z</time>
      </trkpt>
      <trkpt lat="44.4427" lon="6.99536">
        <ele>1577.055</ele>
        <time>2016-03-13T16:14:34Z</time>
      </trkpt>
      <trkpt lat="44.44268" lon="6.99539">
        <ele>1575.457</ele>
        <time>2016-03-13T16:14:57Z</time>
      </trkpt>
      <trkpt lat="44.44266" lon="6.9955">
        <ele>1573.694</ele>
        <time>2016-03-13T16:15:10Z</time>
      </trkpt>
      <trkpt lat="44.44275" lon="6.99547">
        <ele>1569.369</ele>
        <time>2016-03-13T16:15:30Z</time>
      </trkpt>
      <trkpt lat="44.44279" lon="6.99547">
        <ele>1567.915</ele>
        <time>2016-03-13T16:15:33Z</time>
      </trkpt>
      <trkpt lat="44.44282" lon="6.99551">
        <ele>1566.647</ele>
        <time>2016-03-13T16:16:03Z</time>
      </trkpt>
      <trkpt lat="44.4428" lon="6.99557">
        <ele>1567.265</ele>
        <time>2016-03-13T16:16:33Z</time>
      </trkpt>
      <trkpt lat="44.44284" lon="6.99557">
        <ele>1566.433</ele>
        <time>2016-03-13T16:17:09Z</time>
      </trkpt>
      <trkpt lat="44.44302" lon="6.99568">
        <ele>1564.404</ele>
        <time>2016-03-13T16:17:18Z</time>
      </trkpt>
      <trkpt lat="44.44326" lon="6.99582">
        <ele>1562.858</ele>
        <time>2016-03-13T16:17:30Z</time>
      </trkpt>
      <trkpt lat="44.44329" lon="6.99586">
        <ele>1562.139</ele>
        <time>2016-03-13T16:17:38Z</time>
      </trkpt>
      <trkpt lat="44.44334" lon="6.99585">
        <ele>1562.641</ele>
        <time>2016-03-13T16:20:46Z</time>
      </trkpt>
      <trkpt lat="44.4435" lon="6.99591">
        <ele>1560.662</ele>
        <time>2016-03-13T16:20:53Z</time>
      </trkpt>
      <trkpt lat="44.44368" lon="6.9959">
        <ele>1558.363</ele>
        <time>2016-03-13T16:20:57Z</time>
      </trkpt>
      <trkpt lat="44.44377" lon="6.99595">
        <ele>1556.183</ele>
        <time>2016-03-13T16:20:59Z</time>
      </trkpt>
      <trkpt lat="44.44384" lon="6.99601">
        <ele>1553.829</ele>
        <time>2016-03-13T16:21:01Z</time>
      </trkpt>
      <trkpt lat="44.44396" lon="6.99595">
        <ele>1552.661</ele>
        <time>2016-03-13T16:21:04Z</time>
      </trkpt>
      <trkpt lat="44.44408" lon="6.99593">
        <ele>1550.965</ele>
        <time>2016-03-13T16:21:06Z</time>
      </trkpt>
      <trkpt lat="44.44419" lon="6.996">
        <ele>1546.307</ele>
        <time>2016-03-13T16:21:08Z</time>
      </trkpt>
      <trkpt lat="44.44423" lon="6.99606">
        <ele>1546.307</ele>
        <time>2016-03-13T16:21:09Z</time>
      </trkpt>
      <trkpt lat="44.44432" lon="6.99619">
        <ele>1544.198</ele>
        <time>2016-03-13T16:21:11Z</time>
      </trkpt>
      <trkpt lat="44.4444" lon="6.99632">
        <ele>1542.473</ele>
        <time>2016-03-13T16:21:13Z</time>
      </trkpt>
      <trkpt lat="44.44446" lon="6.99645">
        <ele>1540.53</ele>
        <time>2016-03-13T16:21:16Z</time>
      </trkpt>
      <trkpt lat="44.44452" lon="6.99652">
        <ele>1540.094</ele>
        <time>2016-03-13T16:21:18Z</time>
      </trkpt>
      <trkpt lat="44.44474" lon="6.99665">
        <ele>1537.143</ele>
        <time>2016-03-13T16:21:23Z</time>
      </trkpt>
      <trkpt lat="44.4448" lon="6.99667">
        <ele>1535.766</ele>
        <time>2016-03-13T16:21:24Z</time>
      </trkpt>
      <trkpt lat="44.44497" lon="6.99674">
        <ele>1534.054</ele>
        <time>2016-03-13T16:21:27Z</time>
      </trkpt>
      <trkpt lat="44.44509" lon="6.9968">
        <ele>1532.107</ele>
        <time>2016-03-13T16:21:29Z</time>
      </trkpt>
      <trkpt lat="44.4452" lon="6.99687">
        <ele>1528.867</ele>
        <time>2016-03-13T16:21:31Z</time>
      </trkpt>
      <trkpt lat="44.44523" lon="6.99689">
        <ele>1528.867</ele>
        <time>2016-03-13T16:21:32Z</time>
      </trkpt>
      <trkpt lat="44.44545" lon="6.99697">
        <ele>1526.011</ele>
        <time>2016-03-13T16:21:43Z</time>
      </trkpt>
      <trkpt lat="44.44558" lon="6.99702">
        <ele>1525.147</ele>
        <time>2016-03-13T16:21:48Z</time>
      </trkpt>
      <trkpt lat="44.4457" lon="6.99703">
        <ele>1524.225</ele>
        <time>2016-03-13T16:22:01Z</time>
      </trkpt>
      <trkpt lat="44.44597" lon="6.99703">
        <ele>1522.129</ele>
        <time>2016-03-13T16:22:18Z</time>
      </trkpt>
      <trkpt lat="44.44616" lon="6.99702">
        <ele>1519.513</ele>
        <time>2016-03-13T16:22:23Z</time>
      </trkpt>
      <trkpt lat="44.44635" lon="6.99707">
        <ele>1516.398</ele>
        <time>2016-03-13T16:22:29Z</time>
      </trkpt>
      <trkpt lat="44.44638" lon="6.99708">
        <ele>1516.398</ele>
        <time>2016-03-13T16:22:30Z</time>
      </trkpt>
      <trkpt lat="44.44647" lon="6.99712">
        <ele>1515.73</ele>
        <time>2016-03-13T16:22:34Z</time>
      </trkpt>
      <trkpt lat="44.44651" lon="6.99716">
        <ele>1514.728</ele>
        <time>2016-03-13T16:22:48Z</time>
      </trkpt>
      <trkpt lat="44.44664" lon="6.99718">
        <ele>1512.609</ele>
        <time>2016-03-13T16:23:44Z</time>
      </trkpt>
      <trkpt lat="44.44667" lon="6.99719">
        <ele>1511.135</ele>
        <time>2016-03-13T16:23:45Z</time>
      </trkpt>
      <trkpt lat="44.44677" lon="6.99719">
        <ele>1510.585</ele>
        <time>2016-03-13T16:23:48Z</time>
      </trkpt>
      <trkpt lat="44.44689" lon="6.99733">
        <ele>1508.046</ele>
        <time>2016-03-13T16:24:00Z</time>
      </trkpt>
      <trkpt lat="44.44697" lon="6.99737">
        <ele>1507.126</ele>
        <time>2016-03-13T16:24:13Z</time>
      </trkpt>
      <trkpt lat="44.44703" lon="6.99728">
        <ele>1506.407</ele>
        <time>2016-03-13T16:24:21Z</time>
      </trkpt>
      <trkpt lat="44.44715" lon="6.99719">
        <ele>1505.913</ele>
        <time>2016-03-13T16:24:36Z</time>
      </trkpt>
      <trkpt lat="44.44719" lon="6.99719">
        <ele>1506.407</ele>
        <time>2016-03-13T16:25:03Z</time>
      </trkpt>
      <trkpt lat="44.44721" lon="6.99719">
        <ele>1506.685</ele>
        <time>2016-03-13T16:25:18Z</time>
      </trkpt>
      <trkpt lat="44.44726" lon="6.9972">
        <ele>1507.346</ele>
        <time>2016-03-13T16:25:34Z</time>
      </trkpt>
      <trkpt lat="44.44731" lon="6.99724">
        <ele>1507.245</ele>
        <time>2016-03-13T16:25:53Z</time>
      </trkpt>
      <trkpt lat="44.44755" lon="6.99758">
        <ele>1503.887</ele>
        <time>2016-03-13T16:26:09Z</time>
      </trkpt>
      <trkpt lat="44.44756" lon="6.99761">
        <ele>1503.887</ele>
        <time>2016-03-13T16:26:10Z</time>
      </trkpt>
      <trkpt lat="44.44769" lon="6.99784">
        <ele>1501.535</ele>
        <time>2016-03-13T16:26:17Z</time>
      </trkpt>
      <trkpt lat="44.44772" lon="6.99787">
        <ele>1500.058</ele>
        <time>2016-03-13T16:26:18Z</time>
      </trkpt>
      <trkpt lat="44.44793" lon="6.99801">
        <ele>1497.659</ele>
        <time>2016-03-13T16:26:23Z</time>
      </trkpt>
      <trkpt lat="44.44819" lon="6.99826">
        <ele>1494.779</ele>
        <time>2016-03-13T16:26:34Z</time>
      </trkpt>
      <trkpt lat="44.44824" lon="6.99834">
        <ele>1493.957</ele>
        <time>2016-03-13T16:27:45Z</time>
      </trkpt>
      <trkpt lat="44.4484" lon="6.99842">
        <ele>1491.951</ele>
        <time>2016-03-13T16:27:49Z</time>
      </trkpt>
      <trkpt lat="44.44852" lon="6.99853">
        <ele>1488.675</ele>
        <time>2016-03-13T16:27:52Z</time>
      </trkpt>
      <trkpt lat="44.44862" lon="6.99861">
        <ele>1486.854</ele>
        <time>2016-03-13T16:27:54Z</time>
      </trkpt>
      <trkpt lat="44.44866" lon="6.99866">
        <ele>1485.557</ele>
        <time>2016-03-13T16:27:55Z</time>
      </trkpt>
      <trkpt lat="44.44879" lon="6.99882">
        <ele>1483.945</ele>
        <time>2016-03-13T16:27:58Z</time>
      </trkpt>
      <trkpt lat="44.44885" lon="6.99894">
        <ele>1480.851</ele>
        <time>2016-03-13T16:28:00Z</time>
      </trkpt>
      <trkpt lat="44.44888" lon="6.99899">
        <ele>1480.851</ele>
        <time>2016-03-13T16:28:01Z</time>
      </trkpt>
      <trkpt lat="44.44898" lon="6.99922">
        <ele>1477.667</ele>
        <time>2016-03-13T16:28:07Z</time>
      </trkpt>
      <trkpt lat="44.4491" lon="6.99937">
        <ele>1477.086</ele>
        <time>2016-03-13T16:28:19Z</time>
      </trkpt>
      <trkpt lat="44.4492" lon="6.99942">
        <ele>1477.421</ele>
        <time>2016-03-13T16:28:40Z</time>
      </trkpt>
      <trkpt lat="44.44935" lon="6.9994">
        <ele>1476.43</ele>
        <time>2016-03-13T16:29:42Z</time>
      </trkpt>
      <trkpt lat="44.44961" lon="6.99934">
        <ele>1474.478</ele>
        <time>2016-03-13T16:29:54Z</time>
      </trkpt>
      <trkpt lat="44.44968" lon="6.99934">
        <ele>1473.466</ele>
        <time>2016-03-13T16:29:56Z</time>
      </trkpt>
      <trkpt lat="44.44972" lon="6.99937">
        <ele>1472.525</ele>
        <time>2016-03-13T16:30:11Z</time>
      </trkpt>
      <trkpt lat="44.44973" lon="6.99942">
        <ele>1472.504</ele>
        <time>2016-03-13T16:30:33Z</time>
      </trkpt>
      <trkpt lat="44.44972" lon="6.99948">
        <ele>1471.925</ele>
        <time>2016-03-13T16:30:37Z</time>
      </trkpt>
      <trkpt lat="44.44973" lon="6.99968">
        <ele>1468.942</ele>
        <time>2016-03-13T16:30:57Z</time>
      </trkpt>
      <trkpt lat="44.44972" lon="6.99975">
        <ele>1468.044</ele>
        <time>2016-03-13T16:33:23Z</time>
      </trkpt>
      <trkpt lat="44.44978" lon="6.99996">
        <ele>1465.161</ele>
        <time>2016-03-13T16:33:38Z</time>
      </trkpt>
      <trkpt lat="44.44978" lon="7.00003">
        <ele>1463.734</ele>
        <time>2016-03-13T16:34:11Z</time>
      </trkpt>
    </trkseg>
  </trk>
</gpx>